GFSNGP_925_thetae_000.txt.gz
Theta_e
315 316 316 321 323 321 323 321 321 318 319 318 317 313 312 313 313 313 313 313 311 308 305 303 301 300 299 296 295 294 293 293 292 292 291 291 290 289 288 288 288 287 287 287
318 321 320 326 324 325 323 320 320 321 321 316 312 311 312 313 314 314 314 313 310 308 305 302 300 298 297 295 294 293 293 292 291 291 290 290 289 288 288 287 287 287 287 286
326 327 326 330 325 325 318 317 316 321 320 313 313 313 312 313 315 314 314 312 310 307 304 301 299 298 295 294 293 292 292 291 290 290 289 289 288 287 287 287 287 287 286 285
325 327 325 319 320 322 321 322 320 317 312 312 310 307 306 306 311 311 310 310 307 303 300 299 298 297 295 293 292 291 291 290 290 289 288 288 287 287 286 287 286 286 285 284
322 321 319 317 314 320 322 322 315 313 311 310 309 309 308 305 306 306 305 303 301 300 298 297 296 295 293 292 291 290 289 289 288 288 287 287 286 286 286 286 285 285 284 284
320 319 325 317 314 312 314 321 312 312 311 311 310 314 309 304 301 299 298 297 296 295 295 296 294 294 292 290 290 289 288 288 287 287 287 286 286 286 285 285 284 284 283 283
319 323 318 315 313 312 321 318 312 311 311 309 311 308 304 300 298 296 296 294 294 294 293 293 293 292 290 289 288 288 287 287 287 286 286 285 286 285 284 284 283 283 283 283
321 322 320 314 313 316 312 310 309 307 306 305 304 303 301 299 297 296 295 293 293 291 290 291 291 291 288 288 287 287 287 286 286 285 285 285 285 284 283 283 283 282 282 283
319 318 313 311 313 312 309 309 308 305 304 304 303 301 300 298 296 294 292 291 291 289 289 290 290 291 288 286 286 286 286 285 285 284 285 284 283 283 282 282 282 282 282 282
317 315 313 311 311 310 309 307 304 303 303 303 301 300 298 297 295 294 291 290 289 289 288 287 288 289 288 286 286 285 285 284 284 284 284 283 283 282 282 282 282 282 282 282
314 311 310 310 309 306 303 303 303 301 302 301 299 298 298 296 295 293 292 290 290 288 286 286 287 287 286 285 285 284 284 283 283 283 283 282 282 281 282 282 282 282 282 282
317 310 311 309 306 303 304 303 302 302 300 299 299 298 297 295 294 293 292 290 289 288 286 285 285 285 285 284 284 283 283 282 282 282 282 282 281 281 281 281 281 282 281 282
313 307 305 304 302 303 302 302 301 300 300 298 297 297 297 295 294 294 292 291 289 288 287 285 285 284 284 283 283 282 282 282 282 282 282 281 281 281 280 280 280 280 280 280
304 305 305 305 304 300 300 299 298 297 297 296 295 294 294 294 293 292 291 291 290 287 286 285 284 284 283 283 282 282 282 282 282 281 281 281 281 280 280 279 279 279 279 279
304 304 303 300 299 297 297 297 296 295 294 293 293 292 291 289 289 289 290 289 287 286 284 284 284 283 282 282 282 281 282 281 281 281 281 281 280 280 279 279 279 278 278 278
299 300 300 300 297 296 296 295 294 293 292 291 290 290 290 289 288 287 287 287 285 283 284 283 283 282 282 282 281 281 281 280 281 281 280 280 280 279 279 278 278 278 277 277
300 297 296 296 295 294 294 294 294 293 291 290 289 289 287 286 285 285 285 286 285 284 283 283 282 282 281 281 281 281 280 280 280 280 280 280 279 279 278 277 277 277 277 277
301 300 299 297 295 293 293 293 293 293 292 290 289 287 286 285 284 284 284 284 283 283 283 282 282 281 281 281 281 280 280 280 279 279 279 278 278 277 277 277 277 277 277 277
298 297 295 294 293 293 292 291 291 291 290 290 289 287 288 287 285 284 283 283 282 281 281 281 281 281 281 281 281 280 279 279 278 278 277 277 277 276 277 276 277 277 277 276
293 292 292 291 292 292 291 291 290 290 290 290 289 287 285 285 284 283 283 281 281 282 281 281 281 281 280 280 281 280 278 277 277 277 276 277 276 276 276 276 276 276 276 275
292 292 291 291 289 290 290 290 290 289 289 289 287 285 283 283 283 282 281 280 280 281 281 281 281 280 280 280 280 277 277 276 276 276 276 275 275 275 276 276 276 275 275 274
292 292 291 290 289 287 288 289 289 288 288 287 285 283 282 281 281 281 281 281 281 281 280 280 279 280 280 280 278 276 276 276 275 275 275 275 275 275 275 275 274 274 274 273
292 291 290 289 288 285 286 286 286 286 284 283 282 281 281 281 281 280 279 280 280 279 279 278 279 279 279 277 276 275 275 275 275 274 274 275 275 274 274 274 274 273 273 273
290 289 286 285 285 284 282 281 283 283 283 282 282 281 281 280 280 280 280 280 279 277 277 278 278 278 277 275 275 275 275 274 274 274 274 274 274 274 273 273 272 272 272 272
287 286 285 284 283 281 279 280 280 280 280 280 280 280 281 281 281 278 278 278 277 276 276 276 276 276 275 274 274 274 274 273 273 274 273 273 273 272 272 271 271 271 272 271
287 286 284 283 281 280 279 280 279 278 278 277 278 278 278 278 277 277 276 276 275 275 275 275 274 274 274 274 274 273 273 273 272 272 272 272 271 271 271 271 270 270 270 270
284 283 281 280 280 280 280 279 279 279 278 277 276 276 277 276 276 276 275 275 275 275 274 274 273 273 273 273 273 273 272 272 271 271 271 271 271 271 271 270 270 270 270 271

GFSNGP_925_thetae_003.txt.gz
Theta_e
315 315 317 317 317 315 315 313 314 315 317 315 315 315 313 312 312 312 312 312 310 307 304 301 300 299 298 297 296 295 295 294 293 292 292 291 290 289 288 288 288 288 287 286
317 315 315 317 316 319 315 317 316 319 318 315 315 312 310 312 313 313 313 312 310 307 303 300 298 296 296 295 295 295 294 293 292 291 291 290 289 288 288 287 288 287 286 285
320 322 319 319 317 320 319 319 319 321 319 317 315 311 312 312 313 313 312 311 309 306 303 299 297 297 295 294 293 293 292 292 291 290 290 289 288 287 287 287 287 286 285 284
321 324 328 320 321 320 320 319 317 318 319 317 315 308 306 306 311 310 311 309 306 303 299 298 298 296 294 293 292 292 291 290 290 290 289 288 287 287 287 286 286 285 284 284
326 322 319 320 323 323 322 320 318 319 317 311 308 308 311 306 305 306 307 305 302 300 297 296 296 294 293 292 291 291 290 290 289 289 288 287 286 286 286 286 285 284 284 283
322 321 321 315 316 314 319 322 318 318 318 309 309 316 316 301 299 298 298 298 296 295 295 295 293 294 292 290 290 289 289 288 288 287 287 286 286 285 285 284 284 283 283 283
321 322 317 314 312 310 323 318 309 314 313 310 311 309 301 296 295 294 294 293 294 294 292 291 292 292 290 289 289 288 288 287 287 286 286 285 285 285 284 283 283 282 283 283
317 321 317 313 312 315 312 308 309 307 305 304 302 300 298 296 295 294 293 292 291 290 289 291 292 292 289 288 287 287 287 286 286 285 285 285 284 284 283 282 282 282 282 282
316 316 312 310 312 310 307 307 306 304 303 303 302 300 298 296 294 292 291 289 290 289 288 290 291 291 288 286 286 286 286 285 284 284 284 284 283 282 282 282 281 282 282 282
319 314 314 311 310 307 305 304 302 303 303 303 300 299 296 294 292 290 289 288 288 288 287 286 288 289 288 286 286 285 284 284 283 283 283 283 282 282 281 281 281 282 282 281
314 311 309 309 309 304 302 301 301 301 301 300 298 297 296 294 292 290 289 288 288 287 286 285 287 286 285 285 285 284 283 283 283 283 282 282 281 281 281 281 282 282 282 281
317 312 312 310 305 302 303 301 300 300 299 298 298 296 295 293 292 290 288 288 287 286 286 285 285 285 284 284 284 284 283 282 282 282 282 281 281 280 280 281 281 281 281 281
314 306 303 302 301 302 301 300 299 298 298 297 296 295 295 293 291 291 289 288 287 286 285 284 284 284 283 283 283 282 282 282 282 281 281 280 280 280 279 279 279 279 279 280
302 304 305 304 303 299 299 299 298 296 296 296 295 294 294 293 292 290 289 289 287 286 284 284 284 283 283 283 282 282 281 282 281 281 280 280 280 280 279 279 278 278 278 278
301 302 303 299 298 297 296 297 296 295 294 293 293 293 292 290 289 288 289 288 286 285 284 284 283 282 282 282 281 281 281 281 281 280 280 280 280 279 278 278 277 277 277 277
298 298 299 299 297 296 296 296 295 293 292 291 290 289 289 289 287 286 286 286 285 282 283 283 283 282 282 281 281 281 280 280 281 280 280 279 279 278 278 277 277 276 276 276
299 295 295 294 295 294 295 295 295 293 290 289 287 287 286 285 284 284 284 285 285 283 283 283 282 282 281 281 281 280 280 280 280 279 279 278 277 278 277 276 276 276 276 276
300 298 299 297 295 293 292 291 291 291 290 288 286 285 284 284 283 283 283 283 283 282 282 282 282 281 281 281 281 280 280 279 278 278 278 277 278 277 276 276 276 276 276 276
297 296 294 294 293 292 291 291 290 289 288 287 286 285 285 284 284 283 282 282 282 281 281 281 281 281 281 281 281 280 279 278 277 277 276 277 276 276 276 275 276 276 276 276
293 293 292 291 292 292 290 290 289 288 288 288 287 285 284 283 283 282 282 281 281 282 281 281 281 280 280 280 280 279 277 277 276 276 276 276 275 275 275 275 276 276 275 275
292 292 291 291 289 290 289 289 289 288 288 288 286 284 283 283 283 282 280 280 280 281 281 281 280 280 280 280 279 277 276 276 275 275 275 274 274 275 275 275 275 274 274 274
291 291 290 289 289 287 288 289 288 287 287 286 285 283 282 280 280 281 281 281 281 281 280 280 279 280 280 279 277 276 275 275 275 274 274 274 274 274 274 274 273 273 273 272
291 291 290 290 288 286 287 287 287 286 284 283 282 281 281 280 281 280 279 280 280 279 279 279 279 279 278 277 275 275 275 275 274 274 274 274 274 273 273 273 272 272 271 271
290 289 287 286 286 285 283 282 284 284 283 282 282 282 281 280 280 280 280 280 279 278 277 278 278 278 276 275 275 274 274 274 273 273 273 273 272 272 272 271 271 271 271 271
287 286 286 285 283 280 279 280 280 281 281 280 280 280 281 281 281 279 279 278 277 276 276 276 275 275 274 274 274 274 273 273 273 273 272 272 272 271 271 271 271 270 271 271
287 286 284 283 281 280 280 280 278 278 278 277 278 279 279 279 278 277 276 276 276 275 275 274 274 274 274 273 273 273 273 273 273 272 272 272 271 272 271 271 271 271 271 272
283 282 281 280 280 280 280 279 279 278 278 278 276 277 277 276 276 276 276 275 275 275 274 273 273 273 273 273 273 273 273 273 272 271 272 272 272 272 272 272 272 272 273 273

GFSNGP_925_thetae_006.txt.gz
Theta_e
314 313 314 316 316 314 314 312 312 310 310 312 312 313 315 315 313 313 313 310 308 305 301 298 296 296 295 295 295 295 295 294 293 292 292 291 290 289 288 287 288 287 287 286
316 316 314 317 316 317 316 313 312 311 311 311 312 312 314 312 312 313 313 311 308 305 301 298 295 293 293 293 294 295 293 292 291 291 291 290 289 288 287 287 287 287 286 285
318 319 320 318 316 315 316 315 313 314 312 311 313 315 311 310 312 313 313 310 307 304 301 297 294 294 293 293 293 293 292 291 290 290 290 289 288 287 287 287 286 286 285 284
317 319 328 321 317 314 315 316 314 312 316 316 315 310 306 306 310 311 311 309 306 302 298 295 295 295 294 293 293 292 291 290 290 290 288 287 287 286 286 286 286 285 284 284
322 324 321 321 322 316 316 318 315 315 315 315 309 309 309 303 304 308 308 306 302 300 296 294 294 294 293 291 291 290 290 290 289 288 287 286 286 286 286 285 285 284 283 283
320 324 319 314 320 318 318 325 317 316 316 315 311 316 314 300 300 300 300 299 297 295 293 293 291 292 291 290 290 289 289 288 288 287 286 286 285 285 284 284 283 283 283 282
319 322 316 313 311 316 325 321 310 316 316 308 312 306 299 296 295 295 295 294 294 293 291 289 291 292 289 289 288 288 287 287 286 286 286 285 285 284 283 283 283 282 282 282
316 320 316 312 312 317 313 309 307 308 306 303 299 298 296 295 294 294 293 292 291 290 288 289 291 291 288 287 287 287 286 286 285 285 284 284 284 283 283 282 282 281 282 282
315 314 310 310 310 309 306 307 306 304 303 301 299 298 297 294 292 292 291 290 289 288 287 289 290 290 286 285 286 286 286 285 284 284 283 283 283 283 282 281 281 282 282 281
316 314 313 310 310 305 303 304 303 302 301 301 299 296 294 293 292 290 289 288 288 287 285 285 288 288 286 285 286 286 284 284 283 284 283 283 282 282 281 281 281 282 281 281
313 311 308 309 308 303 301 300 301 300 301 300 298 296 294 292 290 289 288 287 287 286 284 284 286 285 285 285 285 284 283 283 283 283 282 282 281 281 281 281 281 282 281 281
317 312 311 310 304 301 301 300 300 300 299 298 298 295 293 290 289 288 287 286 285 284 284 284 285 284 284 284 285 284 282 282 283 282 281 281 281 280 280 280 281 281 280 280
314 306 302 301 301 301 300 299 298 298 298 296 295 294 292 290 289 289 286 286 285 284 284 284 284 283 283 283 283 283 282 282 282 281 281 280 280 280 279 279 279 279 279 279
303 303 305 303 304 299 298 297 296 295 295 295 294 293 292 291 289 287 286 285 285 284 284 284 283 283 282 283 282 282 282 282 281 281 280 280 280 279 278 278 277 277 277 278
302 301 303 298 297 296 296 296 296 295 295 294 293 292 291 289 288 286 286 285 285 284 283 284 283 282 282 282 282 282 282 281 281 280 280 280 279 278 278 277 277 276 276 276
298 298 299 299 297 296 296 296 296 294 293 292 291 290 288 287 286 285 285 285 284 282 283 283 282 282 282 281 281 281 281 280 281 280 279 279 278 277 277 276 276 276 276 276
299 296 296 296 297 296 296 296 295 294 292 291 287 286 285 284 283 283 284 285 285 283 283 283 282 281 281 281 281 281 280 280 279 278 278 278 277 277 276 276 275 275 276 276
301 298 299 299 296 295 293 292 291 290 289 287 286 285 284 284 282 282 282 283 283 282 282 282 281 281 281 281 281 280 280 278 278 277 277 276 277 277 275 275 275 275 275 275
298 297 296 296 295 293 292 290 289 288 287 286 286 284 284 283 283 282 282 282 282 281 281 281 281 281 281 281 281 280 279 277 277 276 276 276 276 275 275 275 275 275 275 275
294 293 293 291 292 292 290 289 288 287 286 286 285 283 281 282 282 282 282 281 281 281 281 281 281 280 280 280 280 279 277 276 276 276 275 275 275 275 275 275 275 275 274 274
291 291 291 291 289 290 289 288 288 286 286 286 284 283 281 282 282 282 281 280 280 281 281 280 280 280 280 280 279 277 276 276 275 275 274 274 274 274 274 274 274 273 273 273
290 290 289 289 289 288 288 288 287 286 286 285 284 283 281 280 281 281 281 281 281 281 280 280 279 280 280 279 277 276 275 275 275 274 274 273 273 273 273 273 272 272 271 271
290 290 289 289 289 287 287 286 286 286 284 284 282 282 281 280 281 280 279 280 280 280 279 279 280 279 278 276 275 275 275 274 274 273 273 273 273 272 272 272 271 271 271 271
289 289 288 287 287 286 284 282 284 284 284 283 283 283 281 280 280 281 281 280 279 278 278 278 278 277 275 275 275 274 274 273 273 273 273 273 272 272 272 272 271 271 271 271
288 287 288 288 286 282 281 281 281 281 281 280 281 281 281 281 281 279 279 278 277 277 276 276 276 275 275 274 274 274 273 273 273 273 272 272 272 272 272 272 272 271 271 272
288 287 286 285 283 282 281 281 279 278 278 277 278 279 280 280 279 278 278 277 276 275 275 275 274 274 274 273 273 273 273 273 273 272 271 272 272 272 272 272 272 272 273 273
283 282 281 280 280 280 280 279 279 279 278 278 277 277 278 277 277 276 276 275 275 275 274 274 273 273 273 273 273 273 273 273 272 272 272 272 272 273 273 272 272 273 274 275

GFSNGP_925_thetae_009.txt.gz
Theta_e
313 313 313 314 315 314 314 312 312 310 310 309 309 310 311 311 312 313 312 309 307 305 302 298 296 295 294 294 295 296 295 293 292 292 291 290 290 289 288 288 288 288 287 287
315 315 315 315 315 315 314 313 311 311 311 309 309 309 312 313 314 314 313 309 306 303 300 298 296 294 292 292 293 294 293 292 291 290 290 289 288 288 287 288 287 287 286 286
317 316 318 320 317 315 315 314 313 314 312 311 311 313 313 314 311 313 314 309 305 302 300 296 294 292 291 292 293 293 292 290 290 290 289 288 287 287 287 287 286 286 285 285
317 318 325 323 318 315 315 313 314 313 312 311 312 311 311 307 307 312 311 308 305 301 296 293 292 292 291 291 292 291 290 289 289 289 288 287 287 287 286 286 285 285 284 283
320 323 322 317 317 317 316 316 313 314 313 312 310 309 311 303 303 309 310 307 303 299 295 293 291 291 291 290 290 290 289 289 288 288 287 287 286 286 285 285 284 284 283 283
321 323 325 314 316 314 317 322 312 312 314 312 312 318 316 300 300 302 302 301 298 295 293 291 290 290 290 289 289 288 288 288 287 287 287 286 285 285 284 284 283 283 282 282
319 322 317 313 312 316 323 320 308 313 313 311 315 310 301 297 296 296 298 296 294 294 291 289 289 291 288 288 287 287 287 287 287 286 286 285 284 284 283 283 282 282 282 282
318 319 316 311 315 319 313 307 307 310 309 305 300 298 296 296 295 295 294 292 291 290 288 288 289 290 287 285 286 287 287 286 285 285 284 284 283 283 283 282 281 281 282 281
314 314 310 310 309 308 306 306 306 307 304 301 299 297 295 293 293 292 291 290 289 288 287 287 288 289 285 285 286 286 286 285 284 284 283 283 283 282 282 281 281 281 281 281
316 313 311 310 308 305 302 303 303 302 300 300 297 295 293 292 291 290 289 289 288 287 286 284 287 287 286 286 286 286 285 284 283 283 282 282 282 281 281 281 281 281 281 281
313 312 309 309 307 303 300 300 300 299 299 297 295 294 292 291 290 289 288 288 287 286 284 283 286 286 285 286 286 285 284 283 282 282 282 282 281 281 280 280 281 282 281 281
317 313 311 309 303 301 301 300 299 299 297 296 295 293 291 290 289 288 287 286 285 284 283 283 285 284 284 285 286 284 282 282 282 282 282 281 280 280 280 279 280 280 280 280
313 306 303 302 301 300 299 298 298 297 297 295 294 292 291 289 288 288 286 285 284 283 283 284 284 283 283 284 283 283 282 282 282 281 280 280 280 280 279 279 278 278 278 279
304 302 305 303 304 299 298 297 296 294 294 294 292 292 291 290 288 286 285 284 284 284 283 283 283 282 282 282 282 283 282 282 281 281 280 280 280 279 278 277 277 277 277 277
301 302 302 298 297 296 296 296 295 294 293 293 292 291 289 288 286 284 284 284 284 283 283 283 282 281 281 282 282 282 281 281 281 280 279 279 279 278 277 277 276 276 276 276
298 298 298 299 297 296 296 296 295 294 293 292 291 289 288 286 284 283 284 284 283 281 282 282 281 281 281 281 281 281 281 281 281 279 278 278 277 277 277 276 275 275 275 275
300 297 296 297 297 296 296 296 295 294 293 291 288 286 285 283 283 282 283 284 284 283 282 282 281 281 281 281 281 281 281 280 279 278 277 277 276 277 276 275 275 275 275 275
302 300 300 300 298 296 295 294 293 292 290 287 286 285 284 285 283 281 282 282 282 281 281 281 281 281 281 281 281 281 280 278 277 277 276 276 277 276 275 275 275 275 275 275
299 298 298 297 296 295 292 291 290 288 287 286 286 284 283 282 282 281 282 282 281 280 280 281 281 281 281 281 281 280 279 277 276 276 275 276 275 275 275 274 275 275 275 275
294 294 293 292 292 292 290 289 288 286 286 285 284 283 281 281 281 281 282 280 281 281 281 281 281 280 280 280 280 279 277 276 275 275 275 275 274 274 274 274 274 274 274 274
292 292 292 291 289 289 288 288 287 286 285 285 284 282 281 281 282 281 280 279 280 281 281 281 280 280 280 280 279 277 276 275 275 275 274 274 274 274 273 273 273 273 272 272
290 290 289 289 288 287 287 287 286 285 284 284 282 282 280 280 281 281 281 281 281 281 280 280 280 280 279 279 277 276 275 275 274 274 274 273 273 273 273 272 272 271 271 271
289 290 289 289 288 286 286 286 285 285 283 282 281 281 280 280 281 280 279 280 280 280 280 280 280 279 278 276 275 275 274 274 274 274 273 273 273 272 272 271 271 271 271 271
289 289 288 287 286 286 284 283 284 284 283 283 283 283 281 280 280 281 281 280 280 279 278 278 279 277 275 275 274 274 274 274 274 273 273 273 272 272 272 272 272 272 272 272
288 288 287 288 287 284 282 281 281 281 281 281 281 281 281 282 282 280 280 279 278 278 277 277 276 275 274 274 274 274 274 274 273 273 273 272 272 272 272 272 272 272 272 273
288 289 288 287 284 283 282 282 280 279 279 277 279 280 281 281 280 279 278 277 276 276 276 275 274 274 274 274 274 274 274 273 273 273 272 272 272 272 272 272 273 273 273 274
284 284 283 282 282 282 281 280 280 279 278 278 277 278 279 279 278 277 276 276 276 275 274 274 274 274 274 274 274 274 273 273 272 272 272 272 272 273 273 273 273 274 274 274

GFSNGP_925_thetae_012.txt.gz
Theta_e
313 313 314 315 315 316 315 314 315 314 312 311 311 310 310 311 311 313 315 316 313 313 313 314 309 303 298 297 296 297 298 297 295 293 292 291 290 289 289 289 289 288 288 287
315 314 316 317 316 316 316 316 314 314 314 312 311 312 313 313 313 314 315 315 312 311 310 307 301 298 296 295 295 295 296 293 292 291 291 290 289 289 289 288 288 287 287 286
317 316 318 322 319 318 317 315 314 316 314 312 312 312 311 312 313 314 313 314 311 308 306 302 298 296 295 295 295 295 293 292 291 291 290 289 289 289 288 288 287 287 286 285
317 318 328 323 318 318 318 317 315 314 313 312 313 313 312 312 313 311 315 312 309 304 302 299 298 296 295 295 294 293 292 291 290 290 289 288 288 288 287 287 286 286 285 285
322 323 320 321 317 321 319 318 315 315 314 313 313 313 314 306 306 311 314 310 307 302 299 297 295 294 294 293 293 292 291 290 289 289 288 288 288 287 286 286 285 285 284 284
321 323 326 322 315 315 315 322 314 313 314 314 314 316 317 304 307 310 307 304 300 297 296 295 294 294 293 292 292 291 290 289 288 288 288 287 287 286 285 285 284 284 284 284
320 321 320 316 313 317 323 320 313 313 314 314 315 312 303 303 301 303 304 301 298 297 296 294 293 293 292 292 290 289 288 288 287 287 286 286 285 284 284 284 284 284 284 284
320 319 324 313 316 319 317 313 310 312 313 313 308 303 301 300 300 299 297 296 295 294 292 292 292 292 291 289 288 287 287 286 286 285 284 284 284 284 284 283 284 284 284 284
319 321 315 313 315 313 310 310 310 311 309 308 304 301 299 298 296 295 295 294 293 292 292 291 291 290 287 287 287 286 286 285 284 284 283 283 284 284 284 283 283 283 283 283
319 318 316 315 313 309 307 307 307 308 306 304 302 299 297 296 295 294 292 292 291 291 290 290 289 288 286 286 286 286 285 284 284 284 283 283 283 283 283 283 283 283 283 282
319 318 317 313 310 307 305 304 304 304 303 301 299 299 297 295 294 293 291 291 290 289 288 287 287 286 285 285 286 285 285 284 284 284 284 283 282 282 282 282 282 282 282 281
320 316 316 314 307 305 305 304 302 301 299 298 298 296 295 294 293 291 290 289 288 287 286 286 285 284 284 284 285 285 284 284 284 283 283 282 282 282 281 279 280 280 280 280
318 310 308 306 305 303 304 302 301 300 298 296 296 294 294 293 291 290 289 288 287 286 285 284 284 283 283 283 284 284 284 284 283 283 282 282 282 281 281 280 279 279 279 279
309 307 309 306 308 302 301 300 298 297 296 295 294 293 293 291 290 289 288 287 285 285 284 284 283 282 282 283 283 283 283 282 283 282 281 281 281 280 280 280 279 279 278 278
308 305 305 304 301 300 299 298 298 296 295 294 293 292 291 290 289 287 285 285 284 284 283 283 282 281 282 282 282 283 283 282 282 281 281 280 280 279 279 279 278 278 278 278
303 303 302 303 301 299 299 299 298 297 295 293 292 291 290 288 286 285 284 284 285 284 283 282 282 281 281 282 282 282 283 282 281 280 279 279 279 278 279 278 277 278 278 278
304 302 300 300 299 299 300 300 299 296 294 293 290 288 287 286 285 285 285 285 284 283 282 282 281 281 282 282 281 281 281 280 279 279 278 278 278 278 278 277 277 277 277 277
304 304 303 303 301 300 298 297 295 294 293 290 288 287 287 287 287 285 283 283 282 282 281 281 281 281 281 281 281 280 279 278 278 278 277 277 278 277 277 277 277 277 277 277
302 302 302 301 299 298 296 295 294 291 289 288 288 288 287 286 285 283 283 283 282 282 281 281 281 281 281 281 281 279 278 277 277 277 276 277 277 276 276 276 277 277 276 276
298 299 299 297 296 296 294 292 291 289 288 288 286 285 284 283 283 283 283 283 283 282 281 281 281 281 282 280 280 278 277 276 276 276 276 276 276 276 276 276 276 276 275 275
296 296 295 295 293 292 292 290 289 288 287 287 287 286 284 282 282 281 282 282 281 281 281 280 280 280 280 279 278 276 276 276 276 276 275 275 275 276 276 275 275 275 274 274
294 294 293 292 292 290 290 290 288 287 286 286 284 283 282 281 281 281 282 282 281 281 280 280 280 280 279 278 276 276 275 275 275 275 275 275 275 275 275 274 274 274 273 273
293 293 292 291 290 289 288 288 287 286 285 284 283 282 282 282 282 282 281 281 281 280 280 280 281 279 278 276 275 275 275 274 274 274 274 274 274 274 274 273 273 273 273 273
291 291 290 288 288 288 287 286 285 284 283 283 282 282 281 281 281 282 281 280 280 280 280 280 280 278 276 275 274 274 274 274 273 273 274 274 273 273 273 272 272 272 272 272
290 289 288 288 289 287 284 283 282 282 281 281 281 281 282 282 282 280 280 280 279 279 278 278 277 275 275 274 274 274 274 273 273 274 274 273 272 272 272 272 271 271 272 273
289 289 289 288 286 284 283 284 283 282 281 280 279 280 281 281 280 280 280 278 277 276 276 275 275 274 274 274 274 274 273 273 273 272 272 272 272 272 272 272 272 272 272 273
287 286 285 284 284 284 284 283 282 282 280 280 278 278 279 279 279 278 277 276 276 275 275 274 274 274 274 274 274 274 274 273 274 273 273 273 273 273 273 273 273 273 273 274

GFSNGP_925_thetae_015.txt.gz
Theta_e
314 314 315 316 316 316 316 317 318 316 315 313 313 313 313 312 312 311 312 315 316 315 316 318 318 316 309 307 304 301 300 299 299 297 295 294 293 292 292 292 291 291 290 289
315 314 315 318 317 318 320 319 317 317 317 314 313 313 313 313 314 314 313 314 315 314 315 316 310 305 302 300 300 300 299 298 295 294 293 292 291 291 291 290 290 289 289 288
317 316 317 322 322 321 320 318 318 320 318 315 314 314 313 312 313 313 313 313 314 313 313 306 301 298 297 297 297 296 295 294 294 292 292 291 291 291 291 290 289 288 287 287
320 318 327 322 317 319 320 319 317 316 317 316 314 314 313 313 312 312 313 314 312 310 304 298 297 297 297 295 295 294 293 294 292 292 291 291 291 290 289 289 288 288 287 286
322 320 319 323 320 321 321 321 316 316 318 315 314 314 311 306 307 309 314 311 307 301 298 297 297 296 296 294 294 293 292 292 291 291 291 290 290 289 288 288 287 287 286 286
320 322 324 323 319 317 318 323 316 315 318 315 315 320 311 307 311 309 307 302 299 297 297 297 296 295 295 295 295 293 292 291 291 290 290 289 288 287 287 287 286 286 286 285
319 321 319 318 317 316 325 321 315 313 316 315 316 309 306 304 307 305 303 300 299 299 298 297 297 297 295 294 292 291 290 290 289 289 288 287 287 286 286 286 286 286 285 285
318 321 323 316 317 321 319 316 314 313 315 313 307 304 304 303 301 302 300 299 297 297 296 296 295 294 292 291 290 289 288 288 287 287 286 286 286 286 285 285 285 285 285 285
320 322 319 317 317 316 314 313 313 312 313 310 305 303 301 300 300 297 296 295 295 295 294 294 292 290 289 288 288 288 287 287 286 285 285 286 286 286 286 285 285 285 285 284
320 320 319 318 316 313 310 310 310 310 310 309 305 302 300 298 297 296 296 295 294 293 292 290 288 288 287 287 288 287 287 286 285 285 285 285 285 285 285 284 284 284 284 283
320 320 319 316 313 310 308 307 308 308 306 305 303 301 299 297 296 295 294 293 292 290 288 287 287 287 288 288 288 287 286 286 286 285 285 285 284 284 283 283 282 282 282 282
320 319 319 316 310 308 308 306 305 304 302 302 300 299 298 297 295 294 292 290 289 288 288 287 287 287 287 287 287 286 286 285 285 285 285 284 284 283 283 281 280 280 281 280
318 314 312 310 307 306 306 304 303 302 300 299 298 297 296 296 294 293 291 290 289 288 287 286 286 285 286 286 287 287 286 285 284 285 284 284 283 283 282 282 281 280 280 279
314 311 312 309 310 305 304 302 300 299 298 297 296 295 294 294 292 292 290 288 287 287 286 286 285 285 285 285 285 285 284 284 284 284 283 283 282 281 281 281 280 280 279 279
313 310 309 307 305 303 301 300 299 299 297 296 295 294 293 292 290 288 287 287 286 286 286 285 285 284 285 285 285 285 284 284 283 282 282 281 281 280 280 280 280 279 279 279
310 307 306 306 304 302 301 301 299 298 297 295 294 293 291 289 288 287 286 286 287 286 285 284 284 283 283 283 284 284 283 282 282 281 281 280 280 279 280 279 279 279 279 279
307 304 304 303 302 302 302 301 300 298 296 295 293 290 289 288 287 287 287 287 285 285 284 283 282 282 282 283 283 283 282 281 280 280 280 279 279 279 279 278 278 278 278 278
309 308 305 305 303 303 302 301 299 297 295 292 290 289 288 288 288 287 286 285 284 283 283 282 282 282 282 282 282 282 281 280 279 279 278 278 279 278 278 278 278 278 278 278
306 305 305 305 303 302 300 298 296 294 291 290 289 290 290 288 286 285 285 285 284 283 282 282 282 282 282 281 281 280 279 279 278 278 278 278 278 278 278 278 278 277 277 277
302 302 303 302 301 299 298 296 293 291 290 290 290 288 287 286 285 285 285 285 285 283 282 282 282 283 282 281 280 279 278 278 278 277 277 277 277 277 277 277 277 277 276 276
300 299 298 298 298 297 295 293 292 291 290 289 288 287 286 285 285 285 283 283 282 283 282 281 281 281 281 280 278 278 277 277 277 277 277 277 277 277 277 277 276 276 276 275
297 297 296 295 295 293 292 292 290 289 289 289 287 285 285 284 284 284 284 283 282 282 281 281 281 281 280 278 277 277 276 276 276 276 276 276 276 276 276 276 275 275 275 275
296 295 295 294 293 292 291 290 289 289 288 286 285 284 284 283 283 283 283 282 282 281 281 282 281 279 278 277 276 276 276 276 276 276 276 275 275 276 275 275 274 274 274 274
294 294 293 292 291 290 289 288 287 286 285 284 284 284 283 283 283 283 283 282 281 281 282 282 280 278 276 276 275 275 275 275 275 275 275 275 275 274 274 274 274 273 273 273
293 291 290 290 291 289 286 285 284 284 283 283 283 283 283 283 283 282 281 281 281 280 280 279 277 276 275 275 275 275 275 275 274 274 274 274 274 274 274 273 273 273 273 273
291 291 290 291 289 287 285 285 285 284 283 282 281 282 282 282 281 281 281 280 279 278 277 276 275 275 275 275 275 275 274 274 274 274 274 274 273 273 273 273 273 273 273 273
290 289 287 286 286 286 286 285 284 284 283 282 281 280 280 280 279 279 278 277 276 276 276 275 275 274 274 275 275 275 274 274 274 274 274 274 274 273 273 273 273 273 273 274

GFSNGP_925_thetae_018.txt.gz
Theta_e
314 313 313 313 314 314 316 317 318 316 317 316 315 315 315 313 312 312 312 312 312 314 313 315 312 312 309 304 302 301 300 299 298 297 295 294 294 293 293 292 292 292 291 290
313 313 313 314 314 314 317 319 320 319 320 317 316 313 312 312 311 311 311 313 312 312 314 311 307 305 305 302 300 300 299 296 295 294 293 293 292 292 292 291 291 290 289 289
315 315 315 318 318 321 320 318 320 322 319 317 316 315 313 313 312 312 312 312 311 313 306 302 301 300 300 300 299 297 295 294 294 293 293 292 291 291 291 290 290 289 288 288
317 315 319 322 318 319 320 321 320 317 318 318 315 314 310 307 308 309 311 311 311 304 300 298 297 297 296 295 295 294 294 294 293 293 292 291 291 290 290 289 288 288 287 287
320 317 315 320 322 319 320 320 316 314 316 315 315 314 311 307 308 309 307 303 300 298 297 296 296 295 295 295 294 294 294 293 292 292 291 290 290 289 289 288 287 287 286 286
319 320 319 321 317 318 316 324 315 314 316 315 313 316 309 307 304 300 298 297 297 297 297 296 296 296 295 294 294 293 292 292 291 291 290 289 288 288 288 287 287 286 286 285
318 321 317 315 315 315 324 319 314 313 315 310 309 306 304 306 303 300 299 298 298 297 296 296 296 296 295 294 294 293 292 290 290 289 288 288 287 287 286 286 286 286 285 285
317 319 317 315 316 320 317 314 313 312 312 306 305 304 302 301 301 300 300 299 298 298 298 296 295 293 291 290 289 289 289 288 288 287 287 286 286 286 286 286 285 285 285 285
316 317 315 315 315 315 312 311 310 311 308 304 302 302 301 298 296 296 295 295 294 293 291 291 291 289 288 288 288 287 287 286 286 286 286 286 286 286 285 285 284 284 284 284
318 319 318 316 314 310 308 307 308 309 308 304 301 299 298 297 295 294 293 293 291 290 289 288 288 288 288 288 287 287 286 286 286 285 285 285 285 285 284 284 283 283 283 282
317 316 316 312 309 308 306 306 306 304 305 302 300 299 297 296 294 294 293 291 289 288 287 287 287 288 288 287 287 286 285 285 286 285 285 285 284 284 283 283 282 281 281 281
318 316 316 311 308 308 306 305 303 301 301 300 299 298 296 294 293 291 289 288 288 287 287 288 288 288 287 287 287 286 285 285 285 285 284 284 283 283 283 282 281 281 280 280
315 312 310 307 306 305 304 302 301 299 298 297 296 295 294 293 291 290 289 288 288 287 287 286 286 287 287 286 286 286 285 285 285 284 284 283 283 282 281 281 282 282 281 280
313 310 312 308 307 303 301 300 299 297 297 296 295 294 293 292 291 289 288 287 287 286 285 285 285 285 286 286 286 285 285 284 284 283 283 282 282 281 280 280 280 279 279 279
312 309 307 304 302 301 299 298 297 296 295 294 293 292 291 289 288 287 287 286 286 285 285 285 285 285 285 285 285 285 284 284 283 282 281 281 280 280 280 280 279 278 278 279
307 305 304 304 302 300 299 299 297 296 294 293 292 291 288 287 287 286 286 286 285 284 284 284 284 284 284 284 284 284 284 283 282 281 280 280 279 279 279 279 278 278 278 278
307 302 300 299 299 300 300 299 298 296 294 293 290 288 287 286 286 287 286 286 285 284 284 284 283 283 284 284 283 283 282 281 280 280 279 279 278 279 278 278 278 278 278 278
306 307 303 302 301 300 300 298 297 295 294 290 289 287 287 287 286 285 284 284 284 283 283 283 283 283 283 283 283 282 281 280 279 279 278 278 278 278 278 278 278 277 277 277
306 305 304 303 301 300 299 297 296 293 290 289 288 288 287 286 285 284 284 283 283 282 282 282 282 282 282 282 281 280 279 279 278 278 278 278 278 277 277 277 277 277 277 276
301 302 303 302 301 300 297 295 292 290 289 289 288 287 285 284 285 284 284 283 283 283 282 282 282 282 282 281 280 279 278 278 277 277 277 278 277 277 277 277 277 277 276 276
298 298 298 299 297 297 295 292 291 290 289 288 287 286 285 285 285 284 283 282 282 283 282 282 283 282 282 280 279 278 278 277 277 277 276 276 276 276 276 276 276 275 275 275
296 296 295 295 294 293 292 291 290 289 288 287 286 285 285 284 284 284 284 283 283 282 282 282 282 281 280 278 278 277 277 276 276 276 276 276 276 275 276 276 275 275 274 274
295 295 294 293 292 291 290 289 289 289 287 286 285 284 284 283 283 283 281 282 282 282 282 282 281 280 278 277 277 276 276 276 276 275 275 275 275 275 275 274 274 274 274 274
294 294 293 292 291 290 289 288 288 287 286 285 285 284 284 283 284 284 283 282 282 282 282 282 280 278 277 276 276 276 276 276 275 275 275 275 275 275 274 274 274 273 273 273
291 291 290 290 288 287 286 286 285 284 284 283 284 284 284 284 284 283 283 282 282 282 282 281 278 277 276 276 275 276 276 275 275 275 275 274 274 274 274 274 274 273 274 274
290 289 290 290 288 286 285 285 284 283 283 282 282 283 284 284 283 282 282 282 281 280 280 278 276 276 276 275 276 276 275 275 275 275 274 274 274 274 274 274 274 274 274 274
290 289 287 286 286 286 285 285 284 283 283 283 281 282 282 282 281 281 281 280 279 277 277 276 275 275 275 276 276 276 275 275 275 275 275 275 275 274 274 274 274 274 274 275

GFSNGP_925_thetae_021.txt.gz
Theta_e
311 311 312 311 312 313 313 314 316 314 315 314 315 317 317 313 311 312 312 312 311 309 309 309 309 306 305 304 305 305 303 302 300 298 296 295 294 294 295 295 294 293 292 292
307 310 311 312 312 313 313 314 314 315 317 316 317 315 314 313 312 312 311 310 310 310 310 305 306 303 301 301 301 301 299 297 296 294 294 294 294 293 293 292 292 292 291 290
308 312 312 316 313 314 319 319 319 321 319 318 318 316 311 309 310 312 312 311 311 308 301 301 302 302 301 299 297 295 294 294 294 294 293 293 292 292 292 291 290 290 289 289
313 311 315 320 316 317 318 318 318 318 317 314 316 313 309 308 303 309 308 310 303 299 297 297 296 296 296 295 294 294 294 293 293 293 292 293 293 293 291 291 290 289 288 287
319 318 312 316 320 318 319 318 316 314 312 314 313 313 310 305 300 300 300 298 298 297 296 295 295 295 294 294 294 294 294 294 294 295 294 293 291 290 290 291 288 287 286 286
319 319 316 317 318 316 314 322 315 313 314 313 309 314 310 304 299 298 298 298 297 296 296 295 295 295 295 295 295 294 293 292 293 292 291 291 291 291 288 287 287 286 286 285
318 319 316 312 312 315 323 317 313 312 313 308 308 305 304 303 300 299 298 297 297 297 297 296 296 295 294 294 292 292 293 293 292 292 291 290 288 287 287 286 286 285 285 285
318 319 316 311 314 319 314 312 311 311 307 305 303 301 300 301 301 300 299 297 297 297 296 295 295 295 293 293 292 292 291 289 288 288 287 287 287 286 286 285 285 285 284 284
314 313 309 313 314 311 309 309 309 310 305 304 301 300 297 294 295 298 298 298 297 295 293 292 290 290 288 287 287 287 287 287 287 287 286 286 286 285 285 284 284 284 284 283
316 314 314 315 309 308 306 306 306 308 303 302 300 298 296 293 292 292 290 290 290 289 288 288 288 288 287 287 287 287 286 286 286 286 285 285 285 285 284 283 283 283 282 281
314 314 313 310 308 307 306 304 303 303 302 300 298 297 295 294 292 291 290 289 289 288 288 287 287 287 287 288 288 286 286 286 286 285 285 285 284 283 283 282 281 281 281 280
316 315 314 311 307 306 305 303 301 300 300 298 297 296 294 292 290 289 288 288 288 288 288 287 287 287 287 287 287 286 285 285 285 285 284 283 283 283 283 282 281 281 281 280
312 311 309 307 305 304 302 301 299 298 297 296 295 294 292 290 288 289 288 288 288 288 287 287 287 287 287 287 286 286 285 285 284 284 283 282 282 281 281 280 281 281 281 280
310 310 310 306 306 301 300 299 298 295 295 294 293 292 291 290 289 288 288 287 287 286 286 286 286 286 286 286 286 285 284 284 283 283 282 281 281 280 280 279 279 278 278 280
309 307 308 303 300 299 297 296 296 295 294 292 292 291 290 288 288 287 286 286 285 285 285 285 285 285 285 285 285 284 284 283 282 281 281 280 280 279 279 279 278 278 278 278
305 303 302 302 300 298 297 296 296 294 293 291 290 288 287 286 286 285 285 285 285 284 285 285 285 284 285 285 284 284 283 282 281 281 280 279 279 279 279 278 277 278 277 278
306 302 297 296 298 298 297 297 296 294 293 292 288 287 286 285 285 285 285 285 285 285 284 284 284 284 284 284 284 283 282 281 280 280 279 278 278 278 278 277 277 277 277 277
302 303 304 303 300 298 297 296 295 294 292 289 287 287 286 286 285 283 284 284 284 283 283 283 283 283 283 283 283 282 281 280 279 279 278 278 278 278 277 277 277 277 277 277
300 303 303 302 299 299 297 296 294 292 289 288 287 287 287 285 284 283 283 283 282 282 282 282 283 283 283 282 282 280 280 279 278 278 277 278 277 277 277 277 277 277 276 276
299 299 302 302 300 299 297 294 291 290 289 288 287 286 285 284 284 283 284 283 283 284 282 282 283 283 282 281 280 279 279 278 277 277 277 277 276 277 276 276 276 276 275 275
296 297 298 299 297 296 294 292 291 290 288 288 287 286 284 284 284 284 283 282 283 283 283 282 283 282 282 280 279 279 278 277 277 276 276 276 276 276 275 276 275 275 275 274
295 295 295 296 295 293 292 292 291 289 288 287 286 285 284 283 283 283 284 284 283 283 283 283 283 282 281 279 278 278 277 276 276 276 276 275 275 275 275 275 275 274 274 274
294 294 294 293 293 291 291 290 289 288 287 286 285 285 284 283 283 283 282 283 283 282 282 282 282 281 279 278 277 276 276 276 276 276 275 275 275 275 275 274 274 274 274 274
292 292 293 292 291 289 288 288 288 287 286 286 285 285 284 283 283 285 285 283 282 282 282 282 281 279 278 277 276 276 276 276 276 275 275 275 275 274 274 274 274 274 274 274
289 290 290 290 288 286 286 286 286 285 285 284 284 284 285 285 285 283 283 282 283 282 282 281 279 277 277 276 276 276 276 276 276 275 275 275 275 274 274 274 274 274 274 274
289 289 289 289 288 286 285 285 284 284 283 283 283 284 284 285 285 284 283 283 282 282 282 280 278 277 276 276 276 276 276 276 276 275 275 275 275 275 275 275 275 274 274 275
289 289 287 286 286 286 285 284 283 283 283 283 282 283 284 284 283 282 282 282 282 281 279 277 277 276 276 276 276 276 276 276 276 276 276 276 276 276 275 276 276 275 276 276

GFSNGP_925_thetae_024.txt.gz
Theta_e
309 310 310 310 311 310 308 311 312 312 313 312 312 314 315 312 312 313 312 310 309 309 309 308 306 303 304 306 306 306 305 304 303 301 299 298 297 296 296 296 295 297 296 293
310 309 310 310 310 310 311 312 312 312 312 311 313 316 316 311 310 309 311 311 310 308 307 304 302 302 301 302 303 302 300 298 296 296 295 294 294 293 294 293 294 293 292 291
308 310 311 313 311 312 314 313 312 318 317 315 316 314 312 310 304 303 307 309 310 304 299 300 302 300 298 297 297 296 295 295 294 294 292 292 292 292 293 294 294 293 291 290
310 309 312 316 314 313 313 316 315 316 316 315 311 312 308 304 301 301 300 299 298 297 297 297 296 296 294 294 294 294 294 293 293 292 292 294 295 294 293 292 290 289 289 289
315 314 312 315 317 317 317 317 314 315 313 311 312 311 310 301 299 299 299 297 296 296 296 295 295 295 294 293 293 293 294 294 294 296 295 295 293 292 291 292 292 292 290 288
318 317 316 313 318 315 314 319 314 313 312 312 310 316 310 301 299 298 298 297 297 296 295 295 295 295 295 295 294 293 293 293 293 293 293 292 293 293 292 292 288 286 286 286
319 318 314 311 311 314 321 316 313 311 310 309 310 307 303 300 299 298 297 298 297 297 296 296 295 295 293 292 291 292 292 293 293 294 294 293 292 291 287 286 286 285 285 285
318 319 316 310 313 319 314 311 311 309 309 305 302 301 300 301 300 299 298 298 296 295 293 294 295 294 293 291 291 292 293 292 291 290 289 288 287 286 286 286 285 284 284 283
313 313 310 309 313 311 308 308 308 308 306 302 300 299 298 299 299 299 298 297 295 293 291 290 292 292 291 291 291 289 288 287 287 287 287 287 286 285 285 284 284 283 283 282
315 314 311 309 310 308 306 306 305 306 303 301 300 297 294 294 293 291 291 292 291 290 289 287 287 288 288 287 286 286 286 286 286 286 286 285 285 284 284 283 283 282 281 281
314 312 312 310 308 307 306 305 303 303 301 300 298 295 293 293 291 291 290 289 288 288 287 287 287 287 287 287 287 287 286 286 285 285 284 284 283 283 282 282 281 281 281 280
312 311 314 313 308 306 305 304 302 301 299 297 296 294 292 291 290 289 289 288 288 288 287 287 287 287 287 288 289 287 286 285 285 284 283 283 283 283 283 282 282 281 281 281
310 309 309 307 305 303 303 301 300 299 297 296 294 293 291 289 288 289 288 288 288 288 287 287 287 287 287 287 287 286 285 284 284 283 283 282 282 281 280 280 281 280 280 280
308 308 309 305 307 302 300 299 298 295 295 294 292 291 290 289 289 288 289 288 287 287 287 287 287 286 286 286 286 285 285 285 284 283 282 281 281 280 279 279 278 278 278 279
305 306 307 302 299 299 296 295 295 294 293 291 291 290 289 288 287 288 287 287 287 287 287 287 286 285 286 286 286 285 284 283 283 282 281 280 279 279 279 278 278 277 278 278
301 304 302 303 300 297 296 295 294 293 293 291 289 288 288 288 287 286 286 286 285 284 285 286 285 285 285 285 285 284 283 282 281 280 280 279 278 278 278 277 277 277 277 277
300 300 300 296 296 297 296 295 294 294 292 290 289 287 286 285 285 285 285 285 286 286 286 285 285 284 284 284 284 283 282 281 280 279 279 278 278 278 277 277 277 277 277 277
298 299 300 301 302 298 296 295 294 293 293 290 288 286 286 285 285 283 284 285 285 284 285 285 284 284 284 284 283 281 280 280 279 279 278 278 278 277 277 277 277 277 277 276
297 298 299 301 300 298 296 295 294 293 291 289 287 286 286 286 284 284 284 284 283 282 283 283 283 283 283 282 282 281 280 279 278 278 277 278 277 277 277 276 276 276 276 275
297 297 298 301 300 298 297 295 293 290 289 288 287 286 285 284 284 283 283 282 283 284 283 283 283 283 282 281 280 280 279 278 278 277 277 277 276 276 276 276 276 275 275 275
296 295 296 297 296 295 294 292 291 290 289 288 287 286 285 284 284 283 282 282 283 283 283 282 282 282 282 281 279 279 278 277 277 276 276 276 276 275 275 275 275 275 274 274
293 294 294 296 295 293 293 292 291 290 289 288 287 285 284 283 283 283 284 284 283 283 282 282 282 282 281 279 279 278 277 277 276 276 276 275 275 275 275 275 274 274 274 274
292 292 293 293 294 294 293 292 292 290 288 287 286 285 285 284 283 283 283 284 283 283 283 283 282 282 280 279 278 277 277 276 276 276 275 275 275 275 274 274 274 274 274 274
289 290 290 291 291 290 289 289 289 289 288 287 287 287 285 283 283 284 285 284 283 283 282 282 282 281 279 278 277 277 276 276 276 276 276 275 275 275 274 274 275 275 275 274
288 289 289 289 288 287 288 287 286 286 286 286 286 286 286 286 286 285 285 283 283 282 282 282 281 279 278 277 277 277 277 276 276 276 275 276 276 275 275 276 275 275 275 275
287 287 288 288 288 288 287 285 285 284 284 283 283 284 285 285 286 285 284 283 283 282 282 281 279 278 277 277 277 277 277 276 276 276 276 276 276 276 277 277 276 276 276 276
287 288 287 287 287 286 286 285 284 284 284 284 283 284 284 285 285 284 283 283 282 282 282 280 278 277 277 277 277 277 276 276 276 277 277 277 277 277 278 277 277 277 277 277

GFSNGP_925_thetae_027.txt.gz
Theta_e
308 308 309 309 310 309 307 309 310 310 309 309 310 311 310 313 311 310 306 306 309 310 308 308 305 303 303 304 304 306 307 306 306 305 305 303 300 299 297 296 295 294 294 295
306 308 309 309 309 309 310 310 310 310 310 309 309 309 314 312 309 305 303 303 306 308 305 302 301 299 299 298 300 300 299 298 298 298 297 296 295 295 294 293 294 295 295 296
310 307 310 312 310 310 310 310 310 311 311 311 314 315 312 309 304 302 302 301 299 298 298 300 300 298 296 295 296 295 295 295 295 294 293 292 292 293 293 294 295 294 293 291
311 309 312 311 310 310 311 311 310 311 312 313 314 311 308 303 300 300 299 298 297 297 297 297 296 295 295 295 294 294 293 293 293 293 293 293 293 292 292 293 293 292 291 291
313 314 310 314 314 315 315 316 313 313 313 312 311 310 309 301 300 299 299 297 297 296 296 295 295 294 293 292 294 294 293 294 294 294 293 292 292 291 290 291 291 291 291 291
316 317 314 312 316 313 313 317 313 312 312 311 310 313 310 302 299 298 298 297 297 296 296 296 295 295 293 292 292 291 291 292 292 292 292 291 291 291 292 292 292 291 290 288
318 318 312 310 310 313 319 315 313 312 310 309 310 307 302 300 299 298 298 298 297 296 296 295 294 293 292 291 291 291 292 292 292 292 293 293 293 292 292 291 287 285 284 285
316 319 314 310 314 318 313 310 311 309 308 308 303 301 301 301 300 298 298 297 295 293 293 294 294 293 292 291 291 292 292 293 293 293 292 292 291 288 286 285 285 284 284 283
312 313 309 309 311 310 308 308 307 307 306 304 301 300 299 299 298 298 297 296 294 292 290 292 293 293 291 291 292 290 290 289 289 288 286 286 286 285 284 284 284 283 283 282
313 313 310 309 308 307 306 306 305 304 305 301 301 298 296 298 294 293 294 292 292 290 288 288 289 289 288 288 288 288 286 286 286 285 285 285 285 284 284 283 283 282 281 281
311 310 310 310 309 308 306 305 304 303 302 301 299 296 293 294 292 291 290 289 289 288 287 287 288 287 288 288 288 286 285 285 285 285 284 283 283 282 282 281 281 281 280 280
311 308 309 310 309 306 305 305 302 302 299 298 297 294 291 291 291 290 289 289 288 288 287 287 287 287 287 287 287 286 285 284 284 284 283 283 283 283 283 283 283 282 281 281
309 308 308 307 304 304 304 302 300 299 298 297 294 292 291 289 289 290 289 289 288 288 287 287 286 286 286 287 287 286 285 284 284 283 282 282 281 281 281 281 281 280 281 281
307 305 307 306 306 303 301 300 300 297 296 295 293 292 290 289 290 289 289 289 288 288 287 287 286 286 286 287 286 285 285 284 283 282 282 281 280 280 279 279 278 278 278 279
302 301 302 302 300 300 297 295 296 295 293 292 291 290 289 288 287 289 289 288 288 287 287 286 286 285 286 286 285 285 284 283 283 281 281 280 280 279 279 278 277 277 278 278
298 298 300 302 302 299 297 295 295 294 292 290 290 289 289 289 288 288 287 287 287 285 286 286 286 285 285 285 285 284 283 283 282 281 280 279 278 278 278 277 277 277 277 277
297 297 295 295 294 298 296 295 295 293 292 290 290 289 288 287 286 286 286 288 287 287 286 286 286 285 285 285 285 284 283 281 280 280 279 278 278 278 277 277 277 277 276 277
294 296 297 297 298 299 298 295 293 293 292 291 289 287 286 285 285 285 286 286 285 285 285 286 285 285 284 284 284 283 282 281 280 279 278 278 278 277 277 277 276 276 276 276
296 297 296 297 298 298 298 295 293 293 292 290 288 287 286 286 285 285 285 284 284 284 284 285 285 284 284 284 283 282 280 279 278 278 277 278 277 277 276 276 276 276 276 275
296 296 296 297 298 299 298 296 294 292 291 290 288 286 285 285 285 284 284 283 284 285 285 284 284 284 283 283 281 280 279 278 278 277 277 277 276 276 276 275 275 275 275 275
294 294 295 296 296 294 294 293 291 290 289 288 287 286 285 284 284 284 283 282 284 285 284 283 283 283 282 281 280 279 279 278 277 277 276 276 276 275 275 275 275 275 274 274
291 292 293 294 295 294 293 292 291 289 288 288 288 286 285 283 283 283 284 284 285 284 283 283 283 283 282 280 279 279 278 277 276 276 276 276 275 275 275 275 274 274 274 274
290 290 290 291 291 293 293 292 291 290 290 289 288 286 285 284 283 283 283 285 285 284 283 283 282 282 281 280 279 278 277 276 276 276 276 276 275 275 275 274 275 275 275 275
288 289 288 289 290 290 291 291 291 291 291 289 288 288 286 284 283 285 286 286 285 284 283 282 282 282 281 279 278 277 277 277 277 276 276 276 276 275 275 276 276 275 275 275
287 287 288 288 287 287 287 288 288 289 289 288 287 287 287 286 286 285 286 286 284 284 283 283 283 282 280 278 277 277 277 277 277 276 276 276 276 276 277 276 276 276 276 276
285 286 287 287 286 286 287 286 285 285 285 285 285 285 286 285 286 286 285 285 284 283 282 283 282 281 278 277 277 277 277 277 277 276 276 277 277 277 277 277 277 277 277 277
286 287 287 286 287 287 286 285 285 284 285 284 284 284 285 284 285 285 284 283 284 283 282 282 281 279 277 277 277 277 277 277 277 277 278 278 278 278 278 278 278 278 278 279

GFSNGP_925_thetae_030.txt.gz
Theta_e
307 307 308 308 310 308 306 306 306 307 307 308 308 308 309 307 311 309 303 301 300 300 301 301 300 299 299 298 301 304 307 308 307 307 306 305 303 301 300 300 298 296 294 294
303 308 307 308 308 308 308 309 308 309 310 308 307 307 312 312 308 304 303 301 299 298 298 299 299 298 297 296 296 297 298 297 298 300 300 298 297 296 296 294 294 294 295 294
304 307 309 311 309 309 309 308 309 310 309 307 310 314 313 309 303 301 301 299 297 297 297 297 296 296 296 295 295 294 294 294 294 294 294 294 294 293 293 292 293 293 293 294
302 307 311 310 308 308 309 309 308 309 308 309 309 311 308 302 300 299 299 298 297 296 296 296 295 294 294 294 294 294 294 293 293 293 293 293 293 292 292 292 292 293 293 292
306 314 310 313 311 311 313 316 309 309 309 308 310 309 308 302 298 298 298 298 297 296 296 296 295 294 293 292 292 292 293 294 293 293 292 291 290 291 291 292 291 291 291 291
313 315 313 310 316 313 313 318 313 310 311 311 310 311 309 300 298 297 298 297 297 296 296 295 293 293 292 292 292 291 291 291 292 292 291 291 291 292 292 292 291 291 290 290
314 314 312 308 310 312 319 315 312 311 310 309 309 307 302 299 298 297 297 296 295 295 295 295 293 292 292 291 290 291 291 291 291 292 292 292 291 292 291 290 290 289 287 287
313 314 314 310 313 317 313 309 310 309 308 307 305 301 300 300 298 298 297 295 294 294 293 294 293 293 291 291 291 291 292 292 292 292 291 291 292 291 289 286 283 283 283 283
310 310 308 308 311 310 307 308 308 306 305 305 302 300 299 299 297 298 297 295 293 292 292 293 293 292 291 290 291 290 290 290 291 290 288 286 285 284 284 284 283 282 282 282
312 312 309 309 307 306 306 306 305 304 304 302 302 299 298 297 296 295 294 293 291 291 289 289 291 290 289 289 291 290 286 285 285 285 284 284 284 284 284 283 282 282 281 280
310 309 308 310 309 308 307 304 304 302 302 301 300 297 296 297 294 294 291 291 291 289 288 288 289 289 289 289 288 286 285 285 284 284 283 283 282 282 282 281 281 281 280 280
310 306 308 308 307 307 306 305 303 301 300 299 298 296 293 291 292 291 290 290 289 288 287 287 288 287 287 287 287 286 285 284 283 283 283 283 283 284 284 283 283 282 281 281
310 308 306 305 305 304 303 303 301 299 299 298 296 293 292 289 291 291 290 289 289 288 287 287 287 286 286 286 286 285 285 284 283 283 282 282 282 281 281 281 281 281 281 281
304 304 307 306 305 301 300 300 300 298 297 297 295 293 291 289 291 290 289 289 289 288 287 287 286 286 286 286 285 285 284 284 283 282 281 280 280 279 279 279 278 278 278 279
300 299 300 299 300 299 298 296 297 296 294 293 292 291 290 288 287 289 289 289 289 288 287 286 286 286 286 285 285 285 284 283 282 281 280 280 279 279 279 278 277 277 277 277
296 295 296 297 298 301 298 296 296 296 293 291 290 290 290 290 289 289 288 289 287 286 286 286 286 286 285 285 285 284 283 282 281 281 280 279 279 278 278 277 277 277 277 277
295 297 293 295 295 296 298 297 295 295 292 290 290 290 289 288 288 287 287 288 289 289 287 287 286 285 285 285 284 284 283 282 281 280 279 279 278 278 277 277 277 276 276 276
293 293 294 294 296 296 297 297 295 294 292 292 291 289 288 287 287 286 286 288 288 286 286 286 286 285 284 284 284 284 283 281 280 279 278 278 278 277 277 276 276 276 276 276
295 296 297 296 296 297 298 298 297 295 293 291 289 288 288 288 287 286 286 286 284 284 285 285 285 284 284 284 284 283 282 280 279 279 278 278 277 276 276 276 276 276 275 275
294 294 295 295 297 295 296 297 295 293 292 290 289 288 287 286 286 285 285 284 285 286 286 285 285 284 284 284 283 282 280 279 279 278 277 277 276 276 276 275 275 275 275 275
292 292 293 294 295 295 292 293 293 292 291 290 289 288 287 285 285 285 283 283 285 286 286 285 285 284 283 283 282 281 280 279 278 277 277 276 276 276 276 275 275 275 275 274
290 290 290 291 292 294 294 292 290 289 289 289 289 288 286 284 284 284 285 285 286 285 285 285 284 283 283 282 282 280 279 278 277 277 277 276 276 276 276 275 275 275 275 275
289 289 289 289 289 289 293 293 292 290 290 290 289 287 286 284 284 283 283 285 286 285 285 285 284 283 282 282 281 279 278 277 277 277 277 276 276 276 276 275 275 275 275 275
287 287 287 288 289 289 288 288 291 291 291 291 290 289 287 284 284 285 286 287 286 285 285 284 283 283 282 282 280 278 277 277 277 277 277 277 276 276 276 276 276 276 276 276
285 286 287 286 286 286 286 286 286 288 289 289 288 289 288 288 286 286 285 286 286 285 285 283 283 283 283 282 279 278 277 277 277 277 277 277 277 277 277 277 277 277 277 277
285 286 286 285 285 285 285 285 285 285 285 286 286 287 287 287 285 286 286 286 285 285 284 283 283 284 283 280 278 277 277 277 277 277 277 277 277 277 277 278 278 278 278 279
284 285 285 283 283 283 285 286 286 285 285 285 284 285 285 287 285 287 286 285 284 285 283 283 284 283 282 278 278 277 277 277 277 277 277 278 278 278 278 279 279 279 280 280

GFSNGP_925_thetae_033.txt.gz
Theta_e
307 307 307 308 309 307 306 306 309 307 306 307 307 307 307 307 310 307 304 302 299 298 299 299 298 298 298 297 296 297 299 298 299 302 303 305 305 303 302 301 299 298 297 296
304 307 307 309 308 308 308 308 307 308 309 308 308 306 310 310 306 304 302 300 299 297 298 298 297 297 297 296 295 296 296 295 298 300 300 299 298 296 297 295 295 294 294 294
305 307 308 310 309 309 309 307 309 310 309 307 308 310 311 309 304 301 300 299 299 297 297 297 296 296 295 295 294 294 294 294 294 294 294 294 294 294 294 293 294 293 293 294
305 306 311 309 307 307 308 308 307 308 308 307 307 308 308 302 301 299 299 298 297 296 296 296 295 293 293 294 294 294 294 294 293 293 292 292 292 292 292 292 292 292 292 292
307 309 308 311 309 309 311 316 308 308 308 307 308 308 306 300 298 298 297 297 297 296 296 295 293 292 293 292 292 292 292 292 292 292 291 291 290 290 290 291 291 291 292 291
311 312 312 310 315 311 312 319 312 307 308 309 310 313 310 300 298 297 297 297 297 295 295 294 292 291 292 291 291 291 291 291 292 292 291 290 290 290 290 291 291 291 290 289
314 313 310 307 312 311 321 317 311 310 310 309 309 308 302 298 298 297 297 296 295 295 295 294 293 293 292 291 290 291 291 292 292 292 292 292 292 292 291 290 289 288 287 287
312 314 312 308 311 317 315 309 310 309 308 307 305 300 299 299 297 297 296 295 294 294 294 294 294 293 291 291 291 291 292 292 291 292 291 291 291 291 290 289 286 284 283 283
309 309 305 307 311 310 308 308 308 307 305 305 303 301 300 299 297 297 296 295 293 293 293 293 294 294 291 289 291 292 292 291 290 289 287 286 285 284 284 284 283 282 282 282
311 310 308 308 308 307 306 306 306 304 304 303 303 300 299 298 297 297 295 293 292 291 290 290 291 292 291 291 291 288 285 285 284 284 284 284 284 283 283 283 282 282 281 280
309 308 308 308 308 308 307 306 304 302 302 302 300 299 298 298 298 296 294 292 291 291 290 289 289 290 291 289 287 285 285 284 284 283 283 282 282 282 282 281 281 281 280 280
311 307 308 308 307 305 305 304 303 302 302 300 299 298 296 296 296 294 292 291 290 290 290 288 289 287 287 287 287 286 284 284 283 283 283 283 284 284 284 284 283 281 281 281
309 305 306 306 304 303 301 300 300 300 299 300 297 296 294 292 292 293 291 290 290 289 289 288 287 287 287 287 287 286 285 284 283 283 283 283 282 282 282 281 281 281 281 281
302 303 305 305 305 298 298 298 299 299 298 297 297 294 293 291 292 291 290 291 290 289 288 287 287 286 286 286 286 285 285 284 283 282 281 281 280 279 279 278 278 278 278 279
299 298 299 297 297 298 299 297 297 297 295 294 294 292 291 289 290 290 291 291 289 288 287 287 286 286 286 286 285 285 284 283 282 281 280 280 279 279 278 278 277 277 277 277
295 295 295 296 295 295 296 298 296 296 294 293 291 291 291 290 290 290 290 289 287 286 287 286 286 286 285 285 285 284 283 282 282 281 279 279 279 278 278 277 277 277 276 276
295 295 292 293 295 294 295 296 298 297 295 292 291 291 290 289 289 288 288 289 289 289 288 287 287 286 285 285 284 284 283 282 281 280 279 279 278 278 277 277 276 276 276 276
292 292 293 295 296 295 295 296 296 296 294 294 292 290 289 289 289 287 287 288 288 288 288 287 287 286 285 284 284 284 283 282 280 280 279 278 278 277 277 277 276 276 276 276
294 295 296 296 296 296 294 296 298 298 296 293 291 290 289 289 289 288 287 287 287 285 286 286 286 285 284 284 284 283 282 281 280 279 278 278 278 277 276 276 276 276 275 275
292 293 294 294 295 296 295 294 294 294 293 292 290 289 288 288 288 287 286 286 286 286 287 286 286 285 284 284 283 282 281 280 279 279 278 277 277 276 276 276 275 275 275 275
291 291 291 291 292 293 294 293 291 293 291 291 290 289 288 288 288 287 284 284 286 286 287 286 285 284 283 283 282 282 281 280 279 278 277 277 277 276 276 276 275 275 275 275
289 290 290 290 290 290 292 293 292 290 290 290 289 289 288 286 285 285 286 286 287 286 285 285 285 284 283 283 282 281 280 280 279 278 277 277 276 276 276 276 276 276 276 276
288 288 288 288 288 288 290 290 292 291 290 289 289 288 287 286 285 284 284 285 286 285 286 286 285 283 283 283 282 281 280 279 278 277 277 277 276 276 276 276 276 276 276 276
286 287 287 287 287 287 287 286 287 289 291 291 290 290 288 286 286 286 285 287 286 286 286 285 284 283 283 283 282 281 279 279 278 277 277 277 277 277 277 277 277 277 277 277
285 286 286 285 285 285 285 285 286 286 287 289 289 289 288 288 289 288 284 286 286 285 285 284 284 284 283 282 282 280 279 278 278 277 277 277 277 277 277 277 277 278 278 278
284 284 285 284 283 282 283 285 285 285 285 285 286 287 288 287 287 288 286 285 285 285 285 284 284 284 283 283 282 280 279 278 278 278 277 277 277 277 278 278 279 279 279 279
282 283 283 282 282 281 282 284 284 284 285 284 284 285 285 287 287 285 285 286 285 285 285 283 284 284 284 283 281 279 278 278 278 278 277 277 278 278 278 279 280 280 280 280

GFSNGP_925_thetae_036.txt.gz
Theta_e
310 310 311 312 312 311 312 312 314 311 310 310 311 312 312 313 314 312 309 306 304 303 303 300 300 300 300 299 299 297 298 298 300 301 301 301 300 300 299 299 298 298 298 297
312 310 310 312 311 311 311 311 311 311 312 311 311 311 311 313 312 310 306 304 303 301 300 299 298 297 297 297 297 297 297 296 297 298 298 297 297 296 296 296 296 297 297 295
315 310 311 314 312 312 312 311 311 313 312 311 311 311 311 313 310 307 304 303 302 300 298 298 296 295 295 296 296 296 295 295 295 295 295 294 294 294 294 295 295 294 294 294
314 312 317 312 310 311 312 311 310 311 311 311 311 310 311 308 308 305 303 302 301 298 297 296 295 294 294 294 294 294 294 294 294 294 292 292 292 292 293 293 292 292 293 293
315 314 313 311 310 311 314 318 311 311 311 311 310 312 312 306 303 303 302 301 299 297 296 294 293 293 293 293 292 292 292 292 292 292 291 291 291 291 291 291 291 291 291 291
312 313 316 313 315 311 313 321 314 311 312 313 313 318 317 306 303 302 301 300 298 297 296 294 293 293 293 292 292 291 291 290 291 291 291 290 290 291 291 291 290 289 289 288
314 312 313 311 314 313 322 320 313 313 314 313 314 313 309 304 302 301 301 299 298 297 297 296 294 294 292 291 291 291 291 291 291 291 291 291 291 290 290 290 289 288 288 287
314 314 313 310 312 317 316 312 311 311 311 310 310 307 306 304 303 301 300 299 297 298 297 296 295 294 293 292 291 292 292 292 291 290 290 291 291 290 290 288 287 285 285 285
312 312 310 310 313 312 311 311 311 310 308 308 308 306 305 304 303 302 300 299 298 298 296 295 294 294 292 290 291 290 290 288 288 287 286 286 286 285 285 285 285 284 284 284
313 313 311 310 310 309 308 310 308 307 307 306 307 306 306 305 303 302 300 298 297 297 297 295 293 293 292 291 290 288 287 286 285 285 285 284 284 284 285 285 284 284 283 282
313 313 312 311 311 310 309 308 308 308 306 306 306 306 305 305 303 301 299 296 296 296 295 294 292 291 290 289 287 287 286 285 285 284 284 283 283 283 283 282 282 282 282 281
315 313 313 312 310 308 309 307 305 306 306 304 304 306 304 304 303 301 298 295 293 295 293 292 292 290 288 286 286 286 285 285 285 285 285 285 286 285 284 284 283 282 281 282
311 309 311 311 308 306 304 303 303 304 304 304 303 303 302 303 302 299 297 294 293 292 291 290 289 287 286 286 286 285 285 285 284 284 284 285 284 284 284 282 282 282 281 281
306 306 308 307 308 302 301 301 301 301 301 301 301 300 299 299 298 298 297 294 292 291 290 288 287 286 286 286 286 285 284 284 284 283 283 282 281 281 280 280 280 279 278 279
303 301 301 300 300 300 299 300 301 302 301 299 298 298 296 296 296 296 296 294 291 290 288 287 286 286 287 286 286 285 284 284 283 282 281 281 280 279 279 279 279 279 278 278
299 298 299 300 299 299 298 300 301 301 299 297 297 296 295 295 295 295 293 291 290 288 288 287 287 286 287 286 285 285 284 284 282 281 281 279 279 279 279 278 278 278 278 278
300 301 298 298 300 299 298 299 299 300 300 298 297 296 294 293 292 292 291 290 290 289 289 288 288 286 286 286 285 284 283 283 282 280 279 279 279 279 278 278 278 278 278 277
295 296 296 296 297 297 298 298 298 299 299 298 296 294 293 292 293 291 289 289 288 288 288 288 288 286 286 285 285 284 283 282 281 280 279 279 279 278 278 277 277 277 277 277
295 296 296 295 296 296 297 296 296 296 298 296 293 292 291 291 291 289 288 288 287 287 287 288 287 287 285 285 284 284 283 282 280 279 279 279 279 277 277 277 277 277 277 276
294 293 293 294 294 294 296 294 293 294 293 293 292 291 290 290 289 288 288 288 288 288 289 288 289 285 285 284 284 284 283 281 280 279 278 278 277 277 277 277 277 277 276 276
292 292 292 292 292 292 293 294 293 292 292 291 291 291 290 289 288 287 286 286 287 288 291 290 285 285 284 284 283 283 282 280 279 279 278 278 277 277 277 276 276 276 276 276
291 291 291 290 290 291 290 292 293 291 290 290 290 289 288 287 287 286 287 287 288 287 286 285 285 285 285 283 283 282 281 280 279 278 278 277 277 277 277 276 276 277 276 276
290 289 289 289 289 289 289 288 288 291 291 290 290 289 288 288 287 286 285 287 289 286 286 285 286 285 284 283 283 282 281 280 279 278 277 277 277 277 277 277 277 276 276 276
288 288 287 287 287 288 288 287 286 287 289 290 290 290 289 287 286 286 287 288 288 285 286 285 285 284 284 284 282 281 281 280 279 278 278 278 277 277 277 277 277 277 277 278
286 286 286 285 285 284 284 286 286 286 286 286 288 289 289 288 288 288 287 285 285 287 287 284 285 284 284 283 282 281 281 280 279 278 278 278 278 277 277 278 278 278 278 278
284 285 284 283 283 282 282 284 286 286 286 285 285 286 287 287 287 287 287 286 286 286 285 284 285 285 284 283 282 281 281 279 278 278 278 278 278 278 278 278 278 279 279 279
282 283 283 282 281 281 282 284 284 284 284 284 284 284 284 286 286 286 286 286 286 286 285 284 284 285 284 283 282 282 280 279 278 278 278 278 277 278 278 278 279 280 280 281

GFSNGP_925_thetae_039.txt.gz
Theta_e
312 312 314 314 314 314 315 314 317 314 312 312 312 313 315 313 315 314 312 309 307 306 305 303 301 299 298 299 299 300 300 300 301 302 301 301 301 300 300 300 299 299 297 297
314 312 312 313 313 313 313 313 313 312 313 312 311 312 313 313 315 313 310 308 306 304 302 300 298 297 297 297 297 298 298 298 298 299 298 297 297 297 297 297 297 296 296 295
316 312 312 314 313 313 313 312 313 314 313 312 313 312 312 313 314 311 308 306 304 302 300 298 297 296 296 296 296 296 296 296 296 296 295 295 294 294 294 294 294 294 294 294
316 313 318 315 312 312 312 312 312 312 312 312 312 312 311 312 313 309 307 305 303 300 298 297 295 295 295 294 295 295 295 295 295 294 294 293 292 292 292 293 293 293 293 293
316 316 314 312 312 313 315 317 312 312 311 311 312 312 315 310 308 308 306 304 301 298 297 295 294 294 294 293 293 292 292 292 293 292 291 291 291 291 291 292 291 291 291 290
313 315 316 316 316 312 313 322 315 313 313 314 314 318 318 309 306 305 304 302 300 298 296 295 295 294 293 293 292 292 292 291 291 291 291 291 290 290 290 290 290 289 289 288
313 313 312 312 316 315 322 321 315 314 315 315 316 314 312 307 306 305 304 302 300 299 298 296 295 294 293 292 292 292 292 291 291 291 290 291 291 290 289 289 289 288 287 287
314 314 314 311 316 319 317 315 315 313 312 312 311 310 309 307 306 305 303 301 301 300 299 297 296 295 294 293 292 292 292 292 292 292 292 291 292 291 290 289 287 286 286 286
313 313 311 311 313 314 313 313 313 313 310 309 309 309 308 307 306 305 304 302 301 301 299 298 297 296 295 293 293 293 292 292 290 289 288 288 288 287 287 287 287 286 285 285
312 312 312 311 312 312 311 312 311 310 310 308 309 309 308 307 306 305 304 303 302 301 300 298 297 296 295 294 293 292 289 288 287 287 287 286 286 286 286 286 285 285 284 283
313 313 313 312 312 312 310 310 310 310 309 309 309 309 308 307 307 305 304 302 301 301 301 299 297 296 295 293 290 289 288 287 287 286 286 285 285 285 284 283 283 283 283 283
314 313 313 313 312 311 312 311 308 307 308 308 307 307 307 307 307 306 304 301 299 299 299 297 296 295 293 290 289 288 287 287 287 287 287 287 287 286 284 284 283 282 282 282
314 312 313 312 311 309 309 308 305 305 305 307 307 305 306 306 306 305 303 300 297 297 296 294 294 293 290 288 288 288 287 287 286 286 286 286 286 286 285 283 282 281 280 280
311 311 311 309 310 305 304 303 303 303 303 304 305 304 304 304 304 304 302 299 296 295 294 291 291 290 288 287 287 287 286 286 286 286 285 284 283 282 282 282 282 281 280 279
308 305 305 303 302 303 302 302 303 304 304 304 302 302 301 302 302 302 302 299 295 294 292 290 289 288 287 286 286 286 286 285 285 284 283 283 282 281 281 280 280 280 280 280
304 302 302 303 302 302 302 302 303 303 303 302 301 300 300 300 300 300 300 298 294 292 290 289 289 288 288 287 286 285 285 285 284 283 282 281 281 280 280 280 280 280 280 279
303 304 301 301 302 302 301 301 301 301 301 302 301 298 297 297 297 298 297 296 293 292 290 291 290 288 287 288 286 285 285 284 283 282 281 281 280 280 280 279 279 279 279 278
299 299 299 299 299 298 298 299 300 299 299 301 300 298 296 296 296 296 295 293 291 290 290 290 290 288 288 288 285 285 284 284 283 281 281 280 280 279 279 279 279 279 279 278
298 298 297 296 296 296 297 297 296 296 297 298 299 297 295 294 294 294 292 289 288 288 287 288 288 288 291 288 285 284 284 283 282 281 280 280 280 279 278 278 278 278 278 278
297 296 295 296 295 294 294 295 294 293 293 293 294 293 293 292 291 290 289 289 289 289 289 288 287 289 290 286 285 284 283 283 282 280 280 280 279 279 278 278 278 278 278 278
295 295 294 294 293 293 293 295 295 294 292 292 292 292 292 291 290 289 288 288 288 289 289 288 291 290 289 285 284 283 283 282 281 280 280 280 279 278 278 278 278 278 277 277
293 293 293 292 292 292 291 290 291 293 293 291 290 290 290 289 288 288 288 288 288 288 289 290 289 289 289 284 284 283 283 282 281 280 279 278 278 278 278 278 278 278 278 278
291 291 291 290 290 290 290 289 289 288 290 291 291 291 289 289 288 287 287 287 287 287 289 288 289 289 285 284 284 283 282 281 280 280 279 278 278 278 278 278 278 278 278 278
289 289 289 288 288 287 287 288 288 287 287 288 290 290 290 289 288 288 288 288 288 287 286 287 287 285 285 284 284 283 282 281 280 279 279 278 278 278 278 278 278 278 278 278
287 287 287 286 286 285 284 284 287 288 287 287 287 287 288 288 288 288 287 287 286 286 286 287 288 286 285 284 284 283 282 281 281 279 279 278 278 278 278 278 278 278 279 279
286 286 285 284 284 283 284 284 286 286 286 286 286 286 285 286 287 287 286 286 286 286 286 286 286 285 285 285 284 283 282 281 280 279 278 278 278 278 278 278 278 279 279 280
284 284 284 284 283 282 283 285 285 285 285 285 285 286 285 285 286 286 286 286 286 286 286 286 286 285 285 285 284 282 281 281 280 279 278 278 278 279 278 278 279 279 280 280

GFSNGP_925_thetae_042.txt.gz
Theta_e
312 312 314 315 314 314 312 313 313 315 313 309 309 310 313 312 313 313 311 309 306 304 301 301 299 298 298 297 298 298 299 299 299 299 299 299 299 299 298 299 299 299 298 297
310 312 312 312 312 312 313 313 312 312 311 310 310 310 311 312 313 313 310 307 305 302 300 299 298 297 296 297 297 297 297 297 297 297 296 296 296 296 296 296 296 296 296 296
312 312 312 312 312 311 312 311 312 313 311 312 312 312 311 312 313 311 307 305 303 299 298 297 296 296 296 296 296 296 296 296 295 295 294 293 293 293 293 294 294 294 294 294
309 312 312 313 312 312 311 311 310 311 311 311 311 311 310 311 312 307 306 304 301 298 297 296 295 295 294 294 294 294 294 294 294 293 292 292 292 292 292 293 292 292 292 291
314 311 312 312 312 312 313 314 310 310 310 311 310 312 313 309 309 306 304 301 299 298 296 295 294 294 294 293 293 292 292 291 291 291 291 291 291 291 291 292 291 290 289 289
315 312 315 318 312 311 312 321 314 310 310 310 311 314 313 306 305 304 302 300 298 297 295 295 295 294 293 293 293 292 292 291 290 291 291 291 291 290 289 289 288 288 287 287
315 314 311 313 312 313 320 319 314 311 312 313 314 312 309 305 305 304 303 300 299 297 297 295 295 294 293 293 292 292 292 292 292 291 291 290 290 290 289 289 287 287 288 288
313 315 312 314 315 318 315 314 312 312 312 311 309 309 307 305 304 303 302 301 300 298 297 296 296 295 294 293 293 293 293 293 293 293 292 292 291 289 288 287 286 286 286 286
310 311 310 310 312 311 311 312 313 310 309 309 309 308 307 305 304 303 302 301 301 300 298 296 296 296 295 294 293 293 292 292 290 289 289 289 287 287 287 286 286 285 285 284
311 310 310 309 311 310 311 311 309 309 308 308 309 308 307 305 304 303 303 302 301 301 299 297 297 296 296 294 293 293 289 287 287 287 286 286 286 286 286 285 285 284 283 283
310 310 313 311 309 309 309 308 308 309 309 308 308 307 307 306 305 304 303 303 302 301 299 298 297 296 295 294 293 289 288 287 287 286 286 285 285 285 284 283 283 283 283 282
310 309 309 311 309 309 309 310 306 306 306 307 306 306 306 305 306 305 303 302 301 301 301 299 297 296 295 293 289 289 287 287 286 286 287 287 286 285 284 283 282 282 282 282
310 311 310 309 308 307 308 306 305 304 303 303 304 305 305 304 306 305 304 302 300 300 300 299 297 296 294 291 289 288 287 287 287 287 287 287 286 286 285 284 283 282 281 280
309 309 310 308 307 303 302 302 302 302 302 302 302 304 304 304 305 305 304 301 300 299 298 297 296 295 293 290 289 288 287 287 286 286 286 285 284 283 282 282 281 281 280 280
305 302 302 301 301 301 301 301 301 301 301 301 302 302 302 301 301 303 304 302 299 297 296 295 294 293 291 289 288 288 287 286 286 286 285 284 283 282 281 281 280 280 280 280
302 302 301 301 301 302 301 301 301 301 300 299 300 300 300 300 300 301 302 301 296 295 294 293 292 292 290 289 288 287 286 286 285 285 284 283 282 281 281 280 280 280 280 279
302 300 297 296 300 300 299 298 299 299 299 298 299 300 299 298 298 298 299 300 298 295 294 293 292 291 290 289 288 287 286 286 285 284 283 282 281 281 280 280 279 279 279 279
298 298 298 298 297 297 297 298 298 298 296 297 297 300 298 296 295 296 297 297 295 293 293 292 292 290 288 288 288 287 286 285 284 284 283 282 281 281 280 279 279 279 279 279
298 297 296 296 296 296 296 296 296 295 294 294 294 296 296 296 295 295 295 294 292 290 290 290 291 290 288 288 289 287 285 285 284 283 282 281 281 281 280 279 279 279 279 278
296 295 296 295 295 294 293 295 295 295 293 292 292 293 292 293 292 292 292 291 291 290 291 291 289 288 288 289 290 286 285 285 284 283 282 281 280 280 279 279 279 279 278 278
294 294 293 293 292 293 292 291 292 294 294 292 291 291 291 291 291 290 289 288 290 289 290 290 289 287 287 290 288 286 284 284 283 282 281 281 280 280 279 279 279 278 278 278
292 292 292 291 291 291 290 289 289 289 291 292 292 291 290 290 289 288 288 288 289 288 288 288 287 287 288 290 287 285 284 283 283 282 281 280 280 280 279 279 279 278 278 279
291 291 290 289 289 289 290 289 288 288 287 287 289 290 290 290 289 287 287 288 288 289 288 288 289 288 290 288 286 284 283 283 283 282 281 281 280 279 279 279 279 278 279 279
290 289 289 287 287 286 285 284 286 288 287 287 287 287 288 289 289 289 289 288 288 288 287 288 288 288 287 286 286 285 283 283 282 282 281 280 280 279 279 279 278 279 279 279
287 287 287 286 285 284 284 284 286 286 287 287 286 286 286 286 287 288 287 287 287 287 287 287 287 287 286 286 286 285 283 282 282 282 281 280 280 279 279 279 279 279 279 279
286 286 285 284 283 283 283 284 285 285 285 285 285 286 286 285 285 286 287 286 286 286 286 286 286 286 286 285 285 284 282 282 281 281 281 280 280 279 279 279 278 279 279 279
284 285 284 284 284 283 283 284 284 284 284 284 284 286 285 285 285 285 285 286 286 286 286 286 286 286 286 286 286 285 284 282 281 281 281 280 279 279 279 279 278 278 279 279

GFSNGP_925_thetae_045.txt.gz
Theta_e
310 313 312 313 313 314 314 313 315 314 308 307 308 307 308 311 311 310 308 306 305 301 298 298 298 297 297 297 297 298 298 298 298 298 297 297 298 298 298 298 297 297 297 298
304 310 311 312 311 312 313 312 311 311 311 308 306 308 310 310 311 311 308 306 303 300 298 297 297 296 296 296 296 296 296 296 296 296 295 295 295 295 295 295 295 295 295 294
306 311 311 309 310 310 311 312 312 313 311 310 311 309 310 310 311 310 307 304 301 298 297 297 296 296 295 295 295 295 295 295 294 294 294 294 293 294 293 293 293 294 293 293
306 308 309 308 310 309 310 310 310 310 309 308 310 310 308 308 309 307 304 302 299 297 296 295 295 295 294 294 294 294 294 294 293 293 292 293 293 292 292 292 292 291 291 291
308 311 308 311 312 311 310 311 309 309 308 309 309 309 311 309 307 304 303 299 297 296 295 295 294 295 294 293 293 293 292 292 292 292 292 292 291 290 290 289 289 289 289 289
313 311 313 315 311 310 312 317 312 309 308 307 309 310 309 306 303 301 299 298 296 295 295 294 294 294 294 293 293 292 291 291 291 291 291 291 290 289 288 289 288 287 286 287
313 313 310 308 311 311 319 317 313 309 308 307 310 308 307 303 303 301 299 297 296 295 295 295 294 294 293 293 292 292 292 292 292 292 291 290 289 290 289 287 287 288 288 288
310 313 310 311 314 316 314 312 312 311 310 310 309 307 305 304 302 301 299 298 297 296 296 295 295 294 293 293 293 293 293 293 293 293 292 291 289 287 287 286 286 286 286 285
308 308 306 310 312 311 310 311 311 309 308 308 308 308 306 304 303 301 300 299 298 297 296 296 296 295 294 293 293 293 293 293 292 291 291 289 288 287 286 286 285 285 284 283
309 309 308 308 310 309 310 310 309 308 307 307 308 307 307 305 303 302 301 300 299 298 297 296 296 296 295 294 293 293 292 290 287 287 286 286 286 286 286 285 284 284 283 283
308 308 309 309 308 308 308 306 306 306 306 307 307 307 306 305 305 303 302 301 300 299 298 297 297 296 296 295 293 292 289 287 287 287 286 285 285 285 284 284 284 283 283 282
309 307 307 307 307 307 307 307 306 306 306 306 306 305 305 304 305 304 303 301 300 300 299 298 298 297 296 295 293 292 288 287 287 286 285 286 285 285 284 283 283 282 282 281
307 308 307 306 305 306 306 304 303 303 303 303 302 303 304 303 304 304 303 302 301 301 300 299 298 297 296 295 293 289 288 287 286 286 286 287 286 286 285 284 283 282 281 280
307 307 308 307 306 301 301 301 302 301 301 301 301 302 302 302 303 304 303 303 302 301 301 300 299 297 297 295 292 289 289 287 287 287 286 286 286 285 283 282 281 281 280 280
303 302 303 300 299 300 300 300 300 300 299 299 300 300 300 300 300 302 304 303 302 301 300 299 298 296 296 295 291 289 288 287 287 286 286 286 284 283 282 281 281 280 280 280
302 300 299 300 300 300 300 299 299 299 298 298 297 298 299 299 299 300 302 302 299 296 298 298 297 297 296 294 291 289 288 288 287 286 285 284 283 282 282 281 280 280 279 279
301 299 296 295 298 299 298 297 297 297 297 296 295 296 298 298 297 298 299 300 301 301 300 297 296 296 296 294 291 289 288 287 286 285 285 284 283 282 281 281 280 280 279 279
297 297 297 297 297 297 297 298 297 297 295 295 294 294 297 295 294 295 296 297 298 297 297 296 295 294 293 292 290 288 288 287 286 285 284 283 282 282 281 281 280 279 279 279
297 296 296 296 296 296 296 296 296 295 294 294 293 293 293 294 294 294 294 295 294 293 295 294 293 292 291 290 289 288 288 287 285 285 284 283 282 281 281 280 280 279 279 279
296 295 295 294 293 293 292 293 293 294 293 292 292 292 291 291 292 292 292 292 293 293 293 293 291 290 290 289 288 288 288 286 285 284 283 282 282 281 281 280 279 279 279 279
294 293 293 292 291 291 290 290 289 289 291 292 292 291 290 290 290 290 289 289 291 291 290 290 290 289 289 288 287 288 288 285 285 284 283 282 281 281 281 280 279 279 279 279
292 291 291 290 290 289 289 289 288 288 288 288 289 290 290 291 290 289 289 288 289 289 289 289 288 288 288 287 287 288 288 286 285 283 283 282 282 281 281 280 279 279 279 279
290 290 289 288 287 287 286 284 287 287 287 287 287 287 287 288 289 289 289 289 288 288 289 288 287 287 288 288 287 288 288 286 284 283 283 283 282 281 280 280 279 279 279 279
289 289 288 287 286 285 284 284 286 286 287 287 286 286 285 286 286 288 288 288 288 288 288 288 288 288 288 287 287 287 287 286 284 283 283 282 282 281 280 280 279 279 279 279
288 287 287 285 285 284 283 284 285 285 285 285 286 286 285 285 285 285 285 287 287 287 287 287 287 287 288 287 287 286 286 286 284 282 282 282 282 281 280 279 279 279 279 279
286 286 285 284 283 283 283 284 284 284 284 284 284 285 285 285 284 285 285 286 286 286 286 286 286 287 287 286 286 286 285 285 282 282 282 282 281 281 280 279 279 279 279 279
285 285 284 283 283 283 283 284 284 283 284 283 284 284 284 284 284 284 285 285 285 285 286 286 286 286 286 286 286 285 286 285 283 283 281 281 281 281 280 279 279 279 279 279

GFSNGP_925_thetae_048.txt.gz
Theta_e
308 312 310 311 313 316 317 316 317 316 311 308 308 308 308 308 310 310 308 306 304 301 298 298 298 298 297 297 297 298 298 298 297 297 297 297 297 298 298 297 297 296 296 296
303 308 311 311 310 313 316 316 314 311 311 307 307 306 307 310 310 310 308 306 303 300 298 297 297 296 297 296 296 296 296 296 296 296 296 295 295 294 294 294 295 295 294 294
303 309 309 308 309 309 311 312 314 312 312 309 307 307 309 310 310 310 307 304 301 299 297 297 296 296 296 296 296 295 295 295 295 295 294 294 294 294 294 294 294 293 293 293
303 306 308 308 308 307 309 309 310 310 309 309 309 308 308 308 309 308 305 302 299 297 296 296 295 295 295 295 295 294 294 294 294 293 293 293 293 292 292 292 292 291 292 292
306 305 308 310 311 309 308 309 307 309 308 307 307 308 310 307 308 306 303 300 298 297 296 295 295 295 294 294 294 293 293 293 292 293 292 292 292 291 290 290 289 290 290 290
311 310 312 310 312 308 309 314 312 307 307 307 307 311 308 307 304 301 300 298 296 296 295 295 295 295 294 293 293 292 292 292 292 292 292 291 291 289 289 288 288 287 287 287
309 311 309 306 307 310 315 313 311 307 306 305 309 306 305 303 301 300 298 297 296 295 295 295 294 294 293 293 293 293 292 292 292 292 292 290 289 289 288 287 287 287 288 287
310 311 309 307 312 314 311 311 311 309 307 306 308 305 303 302 301 299 297 296 295 294 295 295 294 294 293 293 293 293 293 292 292 290 290 289 288 286 286 286 286 286 285 285
308 308 304 305 310 310 309 311 311 310 308 308 307 306 304 303 301 299 298 297 296 295 295 295 294 294 294 293 293 293 293 293 292 292 291 288 287 287 287 286 285 284 284 283
307 307 305 306 307 309 308 310 309 307 307 307 308 307 306 305 303 301 299 298 297 296 296 296 295 294 294 294 293 293 293 292 292 291 290 289 287 286 285 285 284 284 283 283
306 306 306 306 306 308 308 307 307 306 306 307 306 306 305 305 304 303 301 299 298 297 297 296 296 295 295 294 293 293 293 292 289 287 286 286 285 285 285 284 284 283 283 282
309 306 306 306 306 305 306 306 305 306 306 305 305 304 304 304 304 304 302 301 300 299 298 298 297 296 296 295 294 293 291 288 286 286 286 285 285 285 285 284 283 283 282 281
306 304 306 304 305 305 305 304 303 302 303 304 302 302 303 302 303 304 303 302 300 300 300 299 298 297 297 296 294 293 292 288 287 286 286 285 285 285 285 284 284 283 282 281
303 303 307 306 306 302 301 300 302 300 300 300 300 300 301 301 302 302 302 303 303 302 301 300 299 298 299 297 295 294 293 289 287 287 286 286 286 286 285 284 282 282 281 283
300 301 302 301 299 299 299 299 300 299 298 299 299 298 298 298 298 300 302 303 302 301 301 300 300 299 299 298 296 295 292 289 288 287 286 286 286 285 284 282 282 281 281 280
298 299 301 301 300 300 298 298 299 298 297 296 296 296 297 298 298 298 299 301 299 297 300 300 300 300 299 299 297 295 292 289 288 287 286 286 285 284 283 282 281 281 280 280
298 300 299 298 299 298 297 296 297 297 296 295 294 294 294 296 297 297 297 298 300 300 301 300 300 299 298 298 297 295 291 289 288 287 286 285 285 283 283 282 281 281 280 280
298 297 297 298 297 297 298 298 297 296 295 295 294 293 293 294 293 294 295 295 296 298 299 300 299 298 296 295 295 294 292 290 287 287 286 285 284 283 282 282 281 281 280 280
297 296 296 297 297 297 296 296 295 295 294 293 293 292 292 292 291 292 292 293 294 294 296 297 297 296 294 293 293 292 290 289 287 287 287 284 283 283 282 281 281 280 280 280
295 294 294 293 292 292 291 290 292 292 292 292 292 292 291 291 290 290 291 290 291 292 293 294 294 294 292 291 290 289 289 287 286 287 287 284 283 283 282 281 281 280 280 280
292 291 292 291 290 290 289 289 289 288 289 290 291 291 291 291 291 289 289 288 290 290 290 290 290 290 289 289 287 288 286 287 288 287 285 284 284 282 282 281 281 280 280 279
291 291 290 289 289 289 288 287 288 288 287 287 287 287 287 289 289 290 290 288 288 288 289 289 290 291 288 287 287 287 287 287 287 286 285 285 284 283 282 281 281 281 280 280
290 290 289 287 286 285 285 285 287 287 287 286 286 286 285 285 286 288 289 289 288 289 289 289 289 287 287 287 287 286 287 287 287 286 286 286 283 282 282 282 281 280 280 280
290 289 288 287 286 284 283 284 285 285 286 286 286 285 285 285 286 287 285 286 287 287 288 288 288 288 287 287 287 287 287 287 287 286 286 286 282 282 282 281 281 280 279 279
289 289 287 287 285 285 283 284 284 284 284 284 285 285 285 284 284 285 284 285 286 286 287 287 287 287 288 288 287 287 286 286 286 286 286 283 282 282 282 281 281 280 279 279
288 287 286 285 284 283 283 283 284 284 284 283 284 284 284 284 284 284 285 284 285 286 285 286 286 286 286 287 287 287 286 285 285 286 286 283 282 282 281 281 280 280 279 279
288 287 286 284 283 283 283 283 284 283 284 283 283 283 283 284 284 284 284 284 283 284 284 285 286 286 286 286 286 286 285 285 285 286 284 283 282 281 281 281 280 279 279 279

GFSNGP_925_thetae_051.txt.gz
Theta_e
307 309 309 310 313 315 318 317 318 316 312 311 307 305 304 306 308 309 308 305 303 302 299 299 298 298 298 298 298 298 298 298 297 297 297 297 297 296 297 297 296 296 295 294
304 307 310 311 309 312 314 315 316 315 313 309 308 305 305 306 309 311 309 307 304 301 299 297 297 297 297 297 297 297 297 297 296 296 296 296 295 295 295 295 295 294 293 293
302 306 308 308 308 308 311 313 314 317 315 308 308 306 307 307 309 310 308 306 303 300 298 298 297 296 297 296 296 296 296 295 295 295 295 294 294 294 294 294 293 293 293 293
300 305 305 306 305 306 308 308 310 311 310 309 307 307 305 306 307 308 306 304 301 299 298 297 296 296 296 295 295 295 295 294 294 294 293 293 293 293 293 292 292 292 292 292
304 302 305 307 309 308 308 309 306 308 309 307 306 308 307 305 306 307 305 301 300 300 298 296 296 295 295 294 294 294 294 293 293 293 292 292 292 292 291 291 291 291 291 290
308 309 310 306 312 308 308 311 310 307 305 305 305 309 307 306 305 303 301 300 298 298 297 296 295 295 295 294 294 293 293 293 292 292 292 291 291 289 289 289 289 289 287 287
312 312 309 305 304 308 313 310 310 309 305 304 307 306 304 303 301 300 299 298 298 296 295 295 295 295 294 294 293 293 292 292 292 292 292 291 289 288 288 287 286 287 287 286
310 313 310 305 310 312 308 309 310 308 306 304 305 304 303 302 299 298 297 296 296 295 295 295 295 294 294 293 293 293 292 292 292 292 291 289 288 287 287 287 286 286 285 285
307 308 305 304 308 308 308 309 310 309 308 305 306 305 303 301 299 298 297 296 296 295 295 295 294 294 294 294 293 293 292 292 291 290 290 289 287 286 286 285 285 285 284 284
306 306 304 304 304 306 308 309 309 307 308 306 307 304 304 302 301 299 298 297 296 295 295 294 294 294 294 294 293 293 293 293 292 291 290 288 287 287 286 286 285 284 283 283
304 304 303 304 304 304 307 307 307 306 306 306 307 306 306 305 303 302 300 298 297 296 296 296 295 295 294 294 294 293 293 292 292 291 290 289 288 286 286 285 285 284 283 283
307 305 302 303 302 303 305 306 305 305 305 305 305 305 304 304 304 303 302 300 298 298 298 297 297 296 296 295 294 293 292 292 292 289 287 286 285 285 284 284 284 283 283 282
301 301 300 301 303 302 303 304 303 303 303 302 301 302 303 301 302 303 303 302 301 300 299 299 298 297 297 296 294 293 293 292 291 287 286 286 285 285 285 285 285 284 283 282
293 295 297 303 303 301 302 301 302 300 300 300 300 300 300 299 300 301 301 303 302 301 300 300 299 299 299 298 296 294 294 293 290 287 286 286 285 285 285 285 285 285 284 283
293 296 298 299 300 299 299 299 299 298 298 298 298 298 298 297 297 298 299 300 301 301 300 300 299 299 299 299 297 296 295 293 292 289 287 286 285 285 286 285 284 282 282 281
297 296 297 300 301 300 300 299 298 298 297 296 295 295 295 295 296 298 298 298 299 298 300 300 300 301 300 299 298 296 295 295 293 291 287 286 285 285 285 284 283 282 281 281
297 299 298 297 299 299 298 297 297 296 295 295 294 294 293 294 295 296 296 296 296 298 299 299 300 300 299 299 298 297 295 293 293 290 287 286 286 285 285 284 282 282 282 281
298 296 295 297 297 297 298 297 296 296 295 294 294 293 293 292 291 292 292 293 294 296 297 299 299 299 298 298 297 295 294 293 291 289 288 288 286 285 285 283 282 282 282 281
295 295 293 294 295 297 296 295 295 294 293 293 293 292 292 291 290 290 291 291 292 292 294 295 296 297 297 296 294 293 292 291 290 289 289 287 286 285 284 283 282 282 281 281
294 292 292 292 291 291 290 289 290 290 291 292 292 292 292 291 290 290 289 289 289 289 291 291 292 293 294 293 292 291 290 289 289 288 285 285 286 286 284 284 282 282 281 281
292 291 291 290 290 289 289 288 288 288 287 288 289 289 288 289 290 290 290 289 288 289 289 290 291 290 290 290 290 289 288 288 288 287 286 286 287 284 284 284 282 282 282 281
290 291 290 289 288 288 286 285 288 287 287 286 286 286 286 286 286 287 289 288 289 289 289 289 289 288 290 288 287 287 286 287 287 286 286 287 286 285 285 284 283 282 282 281
290 290 290 289 287 286 284 284 286 286 286 286 285 285 285 285 284 286 287 287 286 287 288 288 289 289 287 287 287 287 287 287 286 286 287 287 286 286 286 286 284 282 282 281
290 290 289 288 287 286 284 284 284 285 285 285 285 285 285 285 285 285 284 284 284 286 286 287 288 288 288 287 287 287 286 286 286 286 287 286 286 286 287 285 282 282 282 281
290 289 289 287 287 286 285 283 284 284 284 284 284 285 285 284 284 284 284 283 284 284 286 286 287 287 287 287 287 287 287 286 286 286 286 286 286 286 285 282 282 282 281 280
289 289 289 287 285 285 283 283 283 284 284 283 283 284 283 284 284 284 284 284 283 283 284 285 286 285 286 287 286 286 286 286 286 285 285 285 286 286 284 281 281 281 281 280
288 288 288 287 288 284 283 283 282 283 284 283 283 283 282 283 283 283 283 283 282 282 283 283 284 285 285 285 285 285 285 285 285 285 285 285 286 284 282 281 281 281 280 279

GFSNGP_925_thetae_054.txt.gz
Theta_e
307 307 310 311 313 316 317 316 316 315 314 312 311 310 304 303 306 308 307 305 303 302 300 300 300 299 299 298 298 298 298 298 297 297 297 297 296 296 296 296 296 294 294 293
306 307 309 310 309 310 314 315 317 316 316 314 309 304 304 303 306 308 308 307 303 301 300 299 299 298 298 298 297 297 297 297 297 296 296 296 296 295 295 295 295 294 294 293
302 305 307 307 308 308 309 311 313 314 313 311 311 310 307 304 305 308 309 307 304 301 300 299 299 298 297 297 296 296 296 296 296 295 295 295 294 294 294 294 294 293 293 292
299 303 303 304 304 305 307 307 309 310 311 309 309 308 305 304 304 305 307 306 303 300 300 300 299 297 297 296 296 296 295 295 295 294 294 293 293 293 293 293 293 292 292 291
303 302 304 305 308 307 308 308 305 306 307 307 306 306 305 304 303 305 305 303 302 302 301 298 297 297 296 295 295 295 294 294 294 294 293 293 292 292 292 292 291 291 290 288
306 305 308 304 310 307 306 310 309 308 307 305 304 307 309 305 304 304 303 303 301 300 299 298 296 296 295 295 294 294 294 294 293 293 293 292 292 291 291 291 290 290 288 287
309 312 308 304 304 305 312 308 308 309 308 305 304 305 303 303 302 300 299 299 299 298 297 297 296 295 294 294 294 294 293 293 293 293 292 292 291 290 289 288 288 287 287 287
308 312 308 304 309 311 307 307 309 308 307 304 303 304 304 302 299 297 296 296 297 296 296 296 295 295 294 294 294 293 293 292 292 292 291 291 289 288 287 286 286 287 286 285
305 306 304 303 307 306 306 307 308 308 307 304 305 305 303 301 298 297 297 296 296 296 295 295 295 295 294 294 294 293 292 292 292 291 291 289 289 287 286 286 285 285 284 284
305 305 304 302 301 301 302 305 305 306 308 305 306 303 304 301 299 298 297 296 296 296 295 294 295 295 295 294 294 293 292 292 291 290 289 289 287 286 286 285 285 284 284 283
303 303 303 302 301 300 299 302 303 304 306 306 306 305 304 303 301 300 299 298 296 296 296 296 296 295 295 294 294 293 292 292 292 290 290 289 287 287 287 286 285 285 284 283
303 302 300 299 297 295 302 302 302 303 304 305 305 306 305 304 303 302 301 300 298 298 297 297 297 297 296 295 294 294 293 292 292 291 291 290 289 288 286 285 284 284 284 283
294 294 294 294 295 295 300 300 301 301 302 303 302 302 303 301 302 303 302 301 300 300 300 299 298 298 298 296 295 294 293 293 292 292 290 288 286 285 285 284 285 285 284 283
295 291 293 295 296 296 297 299 300 300 299 299 299 299 299 299 299 299 300 302 302 301 301 300 299 299 300 299 296 295 294 294 293 292 291 287 285 286 285 285 285 285 285 285
295 293 294 296 296 297 298 298 299 298 297 297 297 297 297 297 296 297 298 298 299 300 300 300 299 299 299 299 297 296 294 293 293 293 291 288 286 286 285 285 285 285 284 282
297 298 298 297 298 298 299 299 299 298 297 295 295 295 294 294 295 295 297 297 296 297 299 299 299 300 300 299 298 296 295 295 294 293 291 288 286 285 285 284 285 285 284 282
296 297 298 296 296 297 298 298 297 297 295 295 294 294 293 294 294 294 294 295 295 295 296 298 299 299 299 299 298 297 296 294 293 292 291 290 288 286 285 285 285 285 284 283
296 296 294 294 293 295 297 295 295 296 294 294 293 293 292 292 291 290 291 292 292 294 294 295 297 298 298 298 298 297 296 295 293 292 291 289 288 286 286 286 285 284 284 283
293 295 293 292 291 293 293 292 291 292 292 292 293 292 292 291 290 289 290 290 290 290 291 291 293 295 296 296 296 295 294 293 291 291 290 289 287 287 287 285 285 284 283 282
292 292 292 291 290 289 289 288 288 288 288 290 291 291 291 291 290 290 290 288 287 288 289 289 290 291 292 293 293 292 292 291 290 290 289 288 288 287 287 287 285 283 283 282
291 291 290 290 289 288 286 286 287 287 287 287 287 287 286 287 288 288 289 288 288 289 289 289 289 290 291 290 290 290 290 289 288 288 289 288 287 286 286 286 284 283 285 282
290 290 289 289 288 287 286 284 286 287 287 286 286 286 286 285 285 286 288 287 286 286 288 288 289 289 289 289 289 288 288 288 287 288 287 286 286 285 286 286 285 285 286 284
289 290 290 290 288 288 287 284 284 285 285 286 285 285 284 284 284 286 284 285 284 285 286 286 287 288 288 287 287 288 287 286 286 286 286 286 286 286 286 286 286 286 286 287
289 289 290 289 288 287 287 287 285 284 284 284 284 285 285 284 285 285 284 283 284 284 285 285 287 288 288 288 287 287 287 286 286 286 286 286 286 285 285 285 285 286 285 282
289 289 289 288 288 287 287 286 283 284 284 284 284 284 284 283 283 284 284 284 283 283 284 284 285 286 287 287 287 287 287 286 286 286 285 285 285 285 285 285 286 285 282 281
288 289 289 289 289 288 286 284 283 283 284 284 284 283 283 283 283 283 283 283 283 282 283 283 283 284 285 285 286 286 285 285 285 285 285 285 285 285 285 285 284 281 281 281
286 288 289 288 288 288 287 284 282 283 284 284 283 283 283 282 282 282 282 283 283 281 282 282 282 282 283 284 284 284 285 285 284 284 284 284 284 284 284 284 281 281 281 280

GFSNGP_925_thetae_057.txt.gz
Theta_e
308 308 311 312 313 315 315 315 316 315 313 313 311 310 309 305 304 306 308 306 306 305 303 301 301 301 301 300 300 299 299 298 298 298 298 297 297 297 297 296 296 295 295 294
305 307 308 310 309 310 313 313 314 314 314 312 312 309 309 307 303 306 308 308 306 304 302 300 300 300 300 299 299 298 298 298 297 297 296 296 297 296 296 296 295 295 294 293
305 304 305 307 308 309 310 310 313 315 313 311 310 310 311 310 307 304 307 308 306 304 303 301 301 301 299 299 298 297 297 297 296 296 296 295 295 295 295 294 294 294 293 293
301 303 305 305 303 305 307 307 308 310 310 309 309 308 307 306 306 304 305 306 306 304 302 302 302 300 299 298 297 296 296 296 296 295 295 294 294 294 293 293 293 293 292 292
305 303 304 306 308 306 307 309 304 305 306 306 304 303 305 305 303 303 303 305 306 304 303 302 301 299 298 296 296 296 295 295 295 295 294 293 293 293 293 293 292 291 289 288
305 305 307 302 308 306 306 310 307 305 307 307 305 308 309 304 303 302 302 303 303 303 302 301 299 298 297 296 295 295 295 295 295 294 294 293 293 292 292 292 291 290 288 287
307 307 307 303 304 304 310 308 307 309 308 307 305 304 303 301 302 300 300 300 300 299 298 299 297 297 295 295 295 295 295 294 294 294 293 293 292 291 291 290 290 288 287 287
308 309 308 303 307 310 305 305 306 306 307 307 304 301 303 301 300 298 297 296 297 297 297 297 297 296 295 294 295 295 294 293 293 293 292 291 291 290 289 288 288 287 286 286
305 306 302 302 304 301 300 301 303 303 304 306 305 304 304 302 299 298 297 296 297 297 296 296 296 296 294 294 294 294 293 293 292 292 292 291 290 288 287 286 286 286 285 284
305 304 302 301 301 298 295 295 299 302 303 305 305 304 304 302 300 298 297 296 296 296 295 294 295 295 296 295 294 293 293 292 292 291 291 290 290 288 286 285 285 284 284 284
302 301 299 301 296 295 295 294 299 300 300 302 304 305 304 303 301 300 298 297 297 297 296 296 296 295 295 295 294 293 293 292 292 291 291 290 289 287 286 286 286 285 285 284
300 297 298 296 295 295 294 294 298 297 298 300 302 303 304 304 303 301 300 299 298 298 297 297 297 296 296 295 295 294 292 292 292 290 290 289 288 286 287 287 286 285 284 284
295 294 296 295 294 293 292 295 296 297 297 299 300 302 303 302 303 303 302 301 300 300 300 299 299 298 297 296 295 295 293 293 292 292 291 290 289 288 287 286 285 285 284 285
296 296 296 295 298 297 296 296 297 297 298 298 299 299 299 298 299 299 300 301 301 301 301 300 299 299 299 298 296 295 294 294 293 292 292 292 291 289 287 285 285 285 286 286
296 295 295 297 298 297 297 296 296 297 297 297 297 297 297 296 296 297 297 297 297 298 299 300 299 300 300 299 298 296 295 294 293 293 292 292 291 289 286 285 285 285 285 285
295 295 296 297 297 295 295 296 297 299 298 297 296 295 295 295 295 295 295 296 295 296 297 297 298 300 299 299 298 297 295 295 294 293 293 292 290 288 285 285 285 285 285 285
294 295 295 296 294 292 294 296 296 297 297 296 295 294 293 293 293 293 292 292 293 293 294 294 296 297 298 298 298 297 296 295 293 292 291 291 289 289 287 285 285 285 285 286
293 294 294 294 293 292 294 294 292 291 292 291 292 292 292 291 291 290 290 290 291 291 291 291 293 295 296 297 297 297 296 295 294 293 292 290 290 289 288 287 286 285 285 286
293 293 292 292 291 291 291 290 289 289 290 290 291 291 291 291 290 290 289 289 289 289 289 290 291 293 294 295 295 295 295 294 294 293 292 290 289 288 287 287 286 286 287 285
292 291 291 291 290 290 289 287 287 288 287 287 289 290 290 289 289 290 289 287 287 288 289 288 289 290 291 292 293 293 293 293 292 292 291 289 289 288 288 287 287 286 286 286
289 290 290 290 289 289 287 285 285 287 287 286 286 286 286 286 286 287 289 289 287 287 287 288 289 289 289 290 290 290 290 290 290 290 290 289 288 288 287 287 286 286 286 286
289 289 289 290 289 289 288 287 284 285 286 286 286 285 285 285 285 287 287 285 285 285 286 286 287 288 289 289 289 289 288 288 288 288 288 288 287 287 286 286 286 285 286 285
288 289 289 290 290 289 288 288 285 284 284 284 285 285 285 284 284 285 284 284 284 285 285 285 286 287 288 287 287 287 287 287 286 286 286 286 286 286 286 286 286 285 286 286
287 289 289 289 289 288 288 287 286 284 284 284 284 284 284 284 284 285 284 284 283 284 284 285 285 286 287 287 287 287 287 286 286 286 286 285 285 285 285 285 285 285 285 285
285 286 287 288 288 288 288 287 286 286 283 284 284 283 284 283 283 283 283 283 283 283 283 284 284 284 285 286 286 286 286 286 286 286 285 285 285 284 285 285 285 285 285 285
283 284 285 287 288 288 288 288 286 285 284 283 284 283 283 283 283 283 283 283 283 282 282 282 283 283 284 284 285 285 285 285 285 285 284 284 284 284 284 284 284 284 285 283
284 285 286 287 287 288 288 287 286 285 284 283 284 284 283 283 282 282 282 282 282 282 281 281 281 281 282 283 283 284 284 284 284 284 284 284 284 283 283 283 284 284 281 281

GFSNGP_925_thetae_060.txt.gz
Theta_e
310 313 314 315 316 316 318 316 318 316 316 314 314 314 314 314 312 311 310 312 314 314 313 310 308 306 305 304 302 301 301 300 300 299 299 298 298 298 297 297 297 296 296 295
311 309 311 313 313 314 315 316 316 315 315 313 313 313 313 313 312 312 311 311 312 313 312 310 309 307 305 304 302 301 301 300 300 299 298 298 298 297 296 296 296 295 294 295
315 308 309 311 310 311 312 314 314 316 314 313 312 312 312 312 312 311 312 312 311 311 311 310 309 306 305 303 302 301 300 300 299 298 297 297 296 295 295 295 294 294 293 293
313 309 314 307 305 307 309 309 310 312 311 311 312 312 311 310 310 311 311 311 310 310 310 310 308 305 303 301 300 300 300 299 298 297 296 295 295 295 294 294 294 293 293 292
314 312 310 311 310 310 311 313 310 311 313 313 313 311 312 309 307 308 310 311 308 309 310 309 305 303 301 300 299 299 299 298 297 296 295 295 294 294 293 293 293 292 292 291
310 312 311 310 310 308 308 314 310 310 311 312 312 315 314 308 306 307 307 306 306 307 307 306 304 302 301 300 299 298 298 297 296 295 295 294 294 293 293 292 292 291 289 288
312 312 310 307 307 306 313 313 307 307 308 310 312 312 311 307 306 305 303 304 303 304 304 304 301 300 300 299 297 297 297 296 295 294 294 294 293 292 292 291 290 289 288 287
311 312 312 306 308 311 306 303 302 302 303 306 307 309 309 307 306 304 303 301 301 302 301 300 299 299 299 298 297 296 296 295 294 294 293 293 292 292 291 291 290 288 287 287
310 310 305 303 305 302 298 298 299 298 300 303 303 307 308 307 306 304 302 300 300 301 300 299 298 299 299 298 296 296 295 294 293 293 293 292 291 290 289 289 289 288 287 287
309 306 302 301 302 299 300 299 298 297 299 301 300 301 306 308 307 304 301 300 299 299 300 299 297 297 298 296 295 295 295 294 292 292 291 291 290 290 289 287 287 287 287 286
303 303 301 302 301 299 299 298 297 297 299 299 299 299 303 307 306 304 302 300 299 300 300 299 297 297 296 296 295 295 294 293 292 292 291 290 289 290 288 287 287 286 286 285
302 300 299 299 298 298 298 298 298 299 299 299 299 300 301 306 306 304 303 300 299 299 299 298 297 296 296 295 295 294 293 292 292 291 291 290 289 289 288 286 286 286 286 285
299 298 297 298 297 297 297 297 298 297 298 298 299 300 301 304 306 305 303 302 301 302 301 300 299 297 297 296 295 294 293 293 292 291 291 290 289 289 288 287 287 287 286 285
298 297 297 297 297 296 297 297 297 297 296 297 298 299 300 301 302 302 302 302 302 302 301 301 301 300 297 298 296 294 294 293 293 292 291 290 290 289 288 288 287 287 287 287
297 296 296 296 296 297 295 295 296 296 297 299 299 298 298 299 300 299 298 298 297 297 299 300 300 300 299 296 296 295 294 293 293 293 292 291 290 289 289 287 286 285 285 286
296 295 295 296 296 295 294 294 296 297 297 298 299 298 296 295 295 295 295 295 296 298 297 296 297 298 298 298 296 295 295 295 293 293 292 292 290 289 288 287 286 285 285 286
294 294 295 294 294 293 292 293 294 294 294 294 293 293 293 293 293 293 293 292 292 292 292 293 294 295 296 296 296 296 295 294 293 292 292 291 291 290 289 288 288 285 286 286
293 293 293 293 293 292 291 292 291 290 291 290 290 291 291 291 291 291 290 289 291 290 290 290 290 292 294 295 295 295 295 295 294 293 292 291 290 290 289 288 288 286 285 286
293 293 292 291 291 291 290 290 288 288 289 288 289 290 290 290 290 290 290 289 290 290 290 288 289 290 292 293 294 294 295 294 294 294 293 292 290 290 288 287 287 287 287 286
291 291 291 292 291 291 290 290 286 287 288 288 287 288 289 288 288 289 289 289 287 287 287 288 289 289 289 290 291 293 293 293 293 293 292 291 290 290 289 288 288 287 287 286
289 289 289 290 291 291 290 288 287 287 287 287 287 287 287 286 286 287 289 290 286 286 286 287 287 289 289 289 290 290 290 290 290 290 290 290 289 289 288 288 287 287 286 285
288 288 288 289 290 290 290 289 287 285 286 286 286 286 286 286 285 286 286 285 285 285 285 286 287 288 288 289 288 288 288 288 288 288 288 288 288 288 288 288 287 286 285 285
287 287 287 289 290 290 290 289 287 285 286 285 285 285 286 285 284 286 286 284 284 284 285 285 286 287 288 288 288 287 287 287 287 287 287 287 287 287 287 287 286 286 285 285
286 285 286 287 288 289 289 289 287 286 285 285 284 284 284 285 285 285 284 283 283 284 284 284 285 286 286 287 287 287 287 286 286 286 286 286 285 285 285 285 285 285 284 284
283 283 284 285 287 288 289 289 287 286 285 284 284 284 284 284 283 284 284 283 283 283 283 283 284 284 285 285 285 286 286 286 286 286 285 284 284 284 284 284 284 284 284 284
283 284 285 285 286 286 287 288 288 287 285 285 284 284 283 283 282 282 282 282 282 282 282 282 282 282 283 284 284 284 284 285 285 285 284 284 284 284 283 283 283 284 284 284
283 285 284 285 286 286 287 288 287 287 287 285 284 284 284 283 282 282 281 281 281 282 282 281 281 281 282 282 283 283 283 283 283 283 283 283 283 284 283 284 284 284 284 284

GFSNGP_925_thetae_063.txt.gz
Theta_e
313 315 316 317 316 317 319 318 319 316 315 315 315 315 315 314 313 313 313 313 313 315 315 314 313 311 310 309 307 305 305 304 304 303 302 302 301 301 300 300 300 299 298 297
315 311 312 314 314 315 316 316 317 316 316 315 314 313 313 312 313 313 312 312 313 312 315 314 313 311 310 309 307 305 305 304 303 302 301 300 299 299 298 298 297 297 297 296
318 311 310 312 311 312 313 314 314 316 314 312 313 313 315 315 314 313 313 313 312 313 313 314 313 312 310 308 307 305 305 304 303 301 301 300 299 298 296 296 296 296 295 295
316 311 315 309 307 308 310 310 310 311 312 313 314 314 314 313 311 310 310 310 312 311 312 312 313 312 310 307 306 304 304 303 302 301 299 298 297 296 296 295 295 294 294 294
316 314 312 312 310 311 312 313 312 312 311 311 312 313 313 313 311 309 308 309 309 311 310 311 312 311 308 306 304 303 303 302 301 300 298 297 295 295 294 294 294 293 293 293
312 313 312 313 310 309 310 314 309 309 309 310 311 314 313 312 311 309 308 307 308 308 309 309 311 309 306 305 303 302 302 301 300 298 297 296 295 294 294 293 293 292 292 292
313 313 311 309 308 308 312 313 306 305 304 305 307 308 307 310 311 308 307 306 304 306 308 308 309 306 305 304 302 301 300 299 298 297 296 295 295 294 293 293 292 291 290 288
311 313 312 307 310 311 307 304 303 302 302 301 302 304 304 304 310 309 307 305 304 305 306 305 304 304 304 303 302 300 299 298 297 296 295 294 294 293 292 292 291 290 289 288
311 312 307 304 306 304 302 302 302 301 301 300 300 302 302 302 305 310 307 305 303 304 304 302 302 302 303 302 300 299 298 297 296 295 293 294 293 292 291 291 290 291 289 288
310 308 307 303 304 302 302 301 301 300 299 299 301 301 301 301 302 308 308 305 303 303 303 302 301 301 302 300 298 298 297 296 295 294 292 292 292 292 290 290 290 291 288 287
305 304 303 304 304 302 301 300 300 300 300 300 301 301 300 301 301 305 307 304 302 303 303 302 301 300 300 299 297 297 296 295 294 293 292 291 291 291 290 291 291 289 288 287
303 302 301 301 301 300 299 299 299 299 298 298 298 299 300 301 301 304 307 304 302 301 301 301 300 299 298 297 296 296 296 295 293 292 292 291 290 290 290 291 289 288 287 286
300 300 299 299 299 298 298 297 297 297 297 298 297 297 298 300 300 303 306 305 301 301 302 302 301 299 298 297 296 296 295 294 293 292 292 291 290 290 290 290 289 287 287 286
300 299 299 298 298 297 297 296 296 296 296 297 298 298 299 301 301 302 304 305 305 303 303 303 303 302 300 297 296 295 295 294 293 293 292 292 291 290 291 289 288 288 287 287
299 298 297 296 296 296 295 295 295 295 295 296 296 298 299 300 300 300 299 299 298 299 300 302 302 302 302 299 295 295 294 294 294 293 293 293 292 291 291 289 288 288 287 288
295 295 294 295 295 295 294 294 293 294 294 294 294 295 295 295 296 295 295 296 296 299 300 299 299 299 300 300 297 295 294 294 294 293 293 292 292 291 290 289 289 288 287 287
295 295 294 294 293 293 293 293 292 293 292 292 291 291 291 292 292 293 293 292 292 293 294 293 293 294 294 296 298 297 296 295 293 293 293 292 292 290 290 289 288 288 287 287
295 295 294 294 293 292 293 293 292 292 291 289 290 290 290 292 292 291 291 290 290 291 290 289 290 290 292 293 295 297 296 296 295 293 292 291 291 291 290 289 289 288 289 288
293 293 293 292 292 292 292 291 291 290 288 289 289 289 290 290 290 290 290 290 290 291 291 289 289 289 290 291 293 294 295 295 294 294 293 292 291 290 289 289 288 288 288 288
291 290 290 290 290 291 292 292 291 291 290 289 289 288 289 289 288 288 289 289 289 288 288 288 289 289 289 289 290 292 293 293 293 293 293 292 292 291 290 290 289 289 288 288
290 289 289 289 289 290 292 292 291 291 290 288 288 288 288 287 287 286 288 290 287 287 286 287 288 288 289 290 290 289 290 291 291 291 291 291 291 290 290 289 289 288 288 288
289 289 289 288 288 289 291 291 291 290 289 287 287 287 287 287 287 286 287 286 286 285 286 286 287 287 288 289 289 288 289 289 289 289 289 289 289 289 289 289 289 288 288 287
289 288 288 287 288 288 289 289 290 290 289 287 286 286 286 287 286 286 287 285 284 285 285 285 286 287 287 288 288 288 288 288 288 289 288 288 288 288 287 288 288 287 287 286
288 287 286 286 286 287 288 288 289 289 288 287 286 286 285 285 286 285 285 284 284 284 284 284 285 285 286 286 287 287 287 287 287 287 287 286 286 286 286 286 286 285 285 285
286 285 285 286 287 288 288 288 288 289 288 286 285 285 285 284 284 284 284 284 283 283 284 283 284 284 285 285 285 285 285 286 286 286 286 286 285 285 285 285 284 284 285 284
286 286 286 285 286 286 287 287 288 289 289 287 286 285 284 284 283 283 283 283 283 283 283 282 283 283 283 284 284 284 284 284 284 284 284 284 284 284 284 284 284 283 284 284
286 286 287 288 287 286 285 285 287 288 289 288 286 285 284 284 284 283 282 282 281 281 282 282 282 282 282 282 282 283 283 282 282 281 282 283 283 283 283 283 283 282 283 283

GFSNGP_925_thetae_066.txt.gz
Theta_e
313 314 316 317 316 316 315 316 316 315 314 312 312 312 311 309 309 310 310 309 308 310 311 312 312 311 311 309 308 307 306 306 305 305 304 304 303 302 301 301 301 300 300 299
310 312 312 314 314 314 315 316 316 316 315 312 311 309 311 311 312 312 311 310 310 308 311 312 312 312 310 309 308 306 305 304 304 303 302 302 301 300 300 299 299 299 298 297
315 310 310 310 311 312 314 314 314 315 313 310 312 314 313 312 311 308 307 308 307 307 308 312 313 312 311 309 307 306 305 305 304 303 301 300 300 299 298 298 298 297 297 296
310 310 310 308 307 308 310 311 310 309 311 311 311 310 310 309 309 308 306 306 306 306 307 310 313 313 311 310 308 306 305 304 303 302 301 300 299 297 296 297 297 296 295 295
312 311 310 311 309 310 312 313 309 310 309 309 308 308 310 307 306 308 306 306 306 307 307 308 311 313 311 309 307 305 304 304 302 301 300 299 297 296 296 296 295 295 294 294
310 311 312 311 308 308 309 314 307 306 305 305 304 309 308 304 304 306 307 307 306 305 305 307 308 312 310 308 306 305 304 303 302 301 299 298 296 295 296 295 294 294 293 293
310 310 311 308 308 308 311 308 304 303 302 301 301 302 301 301 302 302 307 307 305 304 305 306 308 309 307 306 304 303 303 302 301 299 298 296 295 295 295 294 293 293 292 291
310 312 308 305 309 310 303 303 302 301 300 300 299 299 299 300 300 300 301 307 305 303 305 305 305 306 305 305 304 303 301 300 299 298 297 295 295 294 294 293 292 291 290 289
310 309 305 303 305 301 300 300 300 300 299 299 298 298 300 300 299 299 300 305 305 303 304 303 303 303 304 303 302 301 299 299 298 297 295 294 293 294 292 292 291 291 290 289
308 307 307 305 303 300 299 299 299 299 299 299 299 299 299 300 300 299 300 301 305 303 302 302 302 302 303 302 301 299 298 298 297 296 294 293 293 293 292 291 291 291 291 289
303 301 301 301 299 298 298 298 298 298 297 298 298 298 298 298 298 299 300 300 304 303 303 303 302 301 301 301 300 298 298 297 296 295 294 293 293 293 292 292 292 292 291 290
302 299 299 300 299 298 297 297 297 297 297 297 297 297 297 297 297 297 299 300 302 303 302 302 302 301 300 299 298 298 297 296 295 294 294 293 292 291 291 292 292 291 291 290
298 298 299 298 298 296 296 296 296 296 295 296 296 296 297 298 298 299 300 301 303 304 303 302 301 301 300 299 298 297 297 296 295 294 293 292 291 291 290 291 291 290 290 288
298 297 298 297 296 295 295 295 295 295 294 294 295 295 295 296 297 298 299 298 298 299 301 302 303 303 302 300 298 297 297 296 295 294 293 292 292 292 292 291 291 291 290 288
296 296 295 294 293 293 294 294 293 293 293 293 293 293 293 293 293 294 295 296 296 296 297 298 300 303 303 301 299 297 295 295 295 294 293 293 293 292 292 291 291 289 289 289
294 294 293 292 292 291 291 291 293 293 292 292 292 291 291 290 291 292 293 294 294 295 295 295 296 297 300 300 300 299 297 295 294 294 293 293 292 292 291 291 291 290 288 288
290 291 292 290 292 291 291 290 291 292 292 291 291 289 288 289 291 291 291 291 291 291 292 292 293 293 293 296 297 297 297 296 294 293 293 293 292 292 292 292 291 290 290 291
293 293 292 291 290 291 291 291 291 291 291 290 289 288 288 289 289 289 289 290 290 290 291 290 290 290 291 291 293 296 297 296 296 294 293 292 292 292 291 291 290 290 289 289
291 291 290 290 290 290 290 290 290 291 291 290 289 287 288 288 289 289 288 288 289 291 291 289 289 289 289 289 291 293 295 296 296 295 294 292 292 291 291 290 290 290 289 289
290 290 290 289 289 289 288 289 290 291 292 291 290 289 288 288 288 288 287 287 288 289 288 288 287 288 289 289 289 290 293 293 294 294 294 293 292 291 291 290 290 289 289 289
288 289 288 288 287 288 288 288 289 291 291 291 290 288 287 287 287 287 286 287 288 287 286 286 286 287 288 289 289 289 290 291 292 292 292 292 291 291 291 290 290 290 289 289
289 288 287 288 287 287 287 287 287 289 289 289 289 288 286 286 286 287 287 287 286 285 285 285 286 286 287 289 288 288 289 289 289 290 290 290 290 290 290 290 290 289 289 289
288 288 288 287 286 285 285 286 287 288 288 289 289 288 287 286 286 287 286 286 285 284 285 284 285 286 287 287 287 288 288 288 289 289 288 288 288 288 288 287 287 288 288 287
287 287 287 286 285 285 283 286 287 287 288 288 289 288 287 286 285 286 286 285 284 284 284 284 284 285 285 286 286 287 287 287 287 287 287 287 286 285 286 286 286 286 286 286
286 286 286 285 285 285 286 286 286 287 287 288 288 288 286 285 285 284 284 284 283 283 283 283 284 284 284 284 285 285 285 285 285 286 286 286 285 285 284 284 284 284 284 284
286 286 286 286 285 286 285 286 285 285 286 287 288 287 286 285 284 284 283 283 283 283 282 282 282 282 283 283 283 283 283 284 284 284 284 284 284 283 283 283 283 283 283 283
286 287 287 286 287 288 288 287 286 285 285 286 287 287 286 285 284 284 283 282 282 281 281 282 282 281 282 282 282 282 282 282 282 281 282 282 282 282 282 282 282 282 282 282

GFSNGP_925_thetae_069.txt.gz
Theta_e
312 313 314 315 316 316 314 314 313 314 314 313 310 309 309 310 311 310 308 307 306 305 305 308 310 311 311 310 310 309 309 308 307 307 306 305 305 304 303 303 302 301 301 300
308 311 311 313 312 313 314 315 315 315 314 310 309 310 311 310 308 307 307 306 305 304 304 306 309 310 310 310 309 308 308 307 306 305 305 304 303 303 301 301 300 300 300 299
309 309 308 308 308 311 313 313 313 315 312 311 311 311 310 308 308 308 307 305 305 304 304 305 306 310 310 310 309 307 307 306 305 304 303 302 301 300 300 299 299 299 298 298
304 306 306 307 306 307 310 310 309 308 309 309 308 307 307 304 304 305 306 305 304 304 305 305 306 307 311 310 309 307 306 305 304 303 303 302 300 299 299 298 297 297 297 296
308 307 309 310 308 309 311 311 307 307 305 304 302 305 307 302 302 303 303 304 304 305 305 304 305 307 309 309 309 307 306 305 304 303 302 301 299 299 297 296 296 296 296 295
307 307 311 309 307 307 307 312 304 303 302 301 301 306 305 298 299 300 299 300 301 305 304 304 305 307 308 308 307 306 306 305 304 303 302 300 299 298 296 296 295 295 295 294
308 305 308 307 306 307 307 305 301 300 300 299 300 299 297 297 298 299 299 299 300 304 303 304 305 307 307 307 306 307 306 305 303 302 301 300 298 296 295 295 295 294 293 293
307 311 309 302 306 309 302 299 300 300 299 299 298 297 297 298 299 299 298 298 298 301 303 304 304 304 305 305 306 305 304 303 302 301 300 298 296 294 294 294 294 293 292 292
306 306 302 302 300 298 297 298 298 298 298 298 297 298 297 298 297 298 298 298 299 299 302 303 303 302 303 304 304 303 302 301 300 299 298 297 295 293 293 293 293 292 291 290
306 305 303 298 297 297 297 297 297 297 296 296 297 298 298 297 297 297 297 297 297 298 300 302 302 302 302 303 303 302 301 300 299 298 297 296 294 293 293 292 291 291 291 290
302 300 298 298 297 297 297 296 296 296 296 297 297 297 297 297 297 297 297 297 297 298 299 302 303 302 302 301 301 301 299 298 298 297 296 295 293 293 293 293 294 292 292 292
301 298 298 298 297 296 296 296 296 296 296 296 295 296 295 296 296 298 299 299 299 299 301 302 302 302 302 301 300 300 298 297 297 296 295 294 293 292 292 293 293 293 293 293
297 297 297 297 297 295 295 294 295 294 294 294 294 294 295 295 295 296 295 297 297 297 297 298 300 301 301 301 299 299 298 297 296 296 294 293 292 291 291 291 291 292 292 292
296 296 297 296 295 292 292 293 293 293 292 293 293 293 292 292 293 292 292 293 294 295 296 297 298 299 301 302 300 298 298 297 296 295 294 293 292 292 291 291 291 291 292 291
292 293 293 292 291 291 291 291 291 290 290 291 292 292 291 291 290 290 291 291 292 294 295 296 296 297 299 300 300 300 298 297 296 296 295 294 293 292 292 291 291 291 292 292
293 292 292 292 291 290 290 289 289 290 289 290 291 291 291 289 288 288 289 290 291 291 292 292 293 293 295 296 296 296 297 298 297 295 294 293 292 292 291 291 291 291 291 291
287 290 290 289 290 289 290 289 289 289 290 290 290 290 290 289 288 288 288 288 289 288 289 290 291 291 292 292 292 293 295 296 296 295 293 293 293 292 291 291 291 291 291 293
291 291 289 289 287 287 288 289 289 288 288 289 290 290 290 288 287 287 288 288 287 287 288 289 289 289 289 290 291 291 292 294 296 295 294 293 292 292 292 292 292 291 292 292
290 289 289 289 289 288 287 287 287 287 288 289 290 291 290 289 288 287 287 287 287 286 288 288 288 288 288 289 289 290 290 291 294 295 295 294 293 292 292 291 291 291 291 291
289 289 289 288 288 287 287 287 287 287 287 288 290 290 290 289 288 287 286 286 286 286 288 287 286 287 287 288 289 289 290 290 291 293 294 293 292 292 292 291 291 290 290 290
287 287 286 286 286 287 286 286 285 285 285 287 288 288 289 289 288 287 286 286 286 287 286 286 285 285 286 287 288 289 289 289 290 291 292 292 292 291 291 291 290 290 290 289
287 286 286 286 285 285 285 285 285 285 285 286 286 287 288 288 287 286 286 287 287 286 285 285 285 285 286 287 288 288 288 289 289 289 290 290 291 291 290 290 290 290 290 289
287 286 286 285 285 285 285 285 285 285 285 285 286 287 288 288 287 286 286 286 286 285 285 284 284 285 287 286 286 287 287 288 288 289 289 289 289 289 289 289 289 288 288 288
286 286 285 285 285 284 281 286 287 286 285 286 286 287 288 288 286 285 285 285 285 284 284 284 284 285 285 285 285 286 286 286 287 287 287 287 287 287 286 286 286 286 286 286
286 286 285 284 282 283 284 285 286 286 286 285 286 286 287 287 286 285 284 284 283 283 283 283 283 283 283 283 284 284 284 285 285 285 286 286 286 285 285 285 284 284 284 284
285 285 285 285 284 284 284 284 284 286 285 284 285 286 286 286 286 284 284 283 283 282 282 282 282 282 282 282 283 283 283 283 283 283 283 283 284 283 283 283 283 283 283 283
285 286 284 284 284 284 284 284 284 286 287 284 284 285 286 286 285 284 283 283 282 282 281 281 281 281 281 281 281 281 281 281 281 281 281 282 282 282 282 282 282 282 282 282

GFSNGP_925_thetae_072.txt.gz
Theta_e
311 312 313 314 315 315 311 312 311 312 311 311 309 308 309 309 308 306 306 305 304 303 302 304 305 308 309 310 311 311 310 310 310 309 309 308 307 307 306 305 304 303 302 301
306 310 309 312 312 313 314 314 315 314 314 308 308 308 308 307 308 308 307 305 304 303 303 303 304 305 306 309 309 310 309 309 309 308 307 306 306 305 304 303 302 301 301 300
308 306 306 309 308 311 312 312 313 315 312 309 310 310 308 305 304 304 303 303 303 303 303 304 304 304 305 306 309 308 308 308 307 306 305 305 304 303 302 301 300 300 299 299
302 304 306 306 305 307 310 308 307 308 308 306 305 305 302 300 300 300 300 299 299 300 301 303 304 304 304 306 307 308 307 307 306 306 304 303 302 302 301 300 299 298 298 298
306 304 306 309 308 308 310 309 304 304 302 301 300 304 303 297 297 298 297 297 298 298 299 302 304 304 304 305 306 307 307 307 306 305 304 303 302 301 299 298 297 297 297 297
306 308 311 307 306 306 307 310 301 300 300 300 300 303 303 297 296 297 298 298 298 298 298 300 303 304 304 305 305 306 307 307 306 305 304 303 302 300 299 297 296 296 296 296
307 305 306 306 305 305 306 304 300 300 299 299 299 298 297 295 297 298 297 298 298 298 297 299 301 302 303 304 304 306 305 306 306 305 304 303 301 299 298 296 294 294 295 295
306 310 310 303 305 307 301 299 299 299 299 298 298 297 297 297 296 296 296 297 297 297 297 298 299 301 302 302 304 305 305 305 305 304 303 301 300 298 297 295 294 294 294 293
305 306 300 297 299 298 297 298 298 298 297 297 296 297 296 297 296 296 297 297 297 296 296 298 300 301 301 302 303 304 304 304 303 302 301 300 299 297 296 294 293 293 292 292
305 304 298 297 297 297 297 297 297 296 296 295 296 296 297 297 296 296 297 297 297 297 296 297 299 301 302 302 302 302 302 302 301 300 299 298 297 296 295 293 292 292 291 291
300 297 297 297 297 296 296 296 296 295 295 295 295 296 296 296 296 295 295 297 298 298 298 298 299 301 302 301 301 302 301 300 299 299 298 297 297 296 295 294 294 293 292 292
302 297 297 297 296 295 295 295 294 294 294 294 294 294 294 294 295 294 295 295 293 296 296 296 297 298 300 301 300 300 299 299 298 297 296 296 295 294 294 294 294 293 293 293
297 296 296 297 294 294 293 293 293 293 292 291 292 293 292 292 292 293 292 292 292 292 293 294 295 296 298 299 300 300 300 298 298 297 296 295 294 293 292 293 292 292 292 292
295 295 296 295 294 292 291 291 291 291 291 291 291 292 291 291 291 290 290 289 290 291 292 292 294 295 297 298 300 300 299 299 298 297 296 295 294 293 293 291 291 291 292 292
292 292 292 292 291 290 291 290 289 288 288 289 290 290 291 291 290 290 289 288 288 290 291 291 291 292 293 294 295 297 298 298 297 297 296 295 294 293 292 291 291 291 292 292
293 292 292 292 290 289 289 288 288 288 288 288 288 289 290 290 290 289 289 288 288 288 289 288 289 289 290 291 292 293 295 296 297 296 295 294 293 292 291 291 291 291 291 292
286 288 289 286 288 287 287 286 286 287 287 287 287 288 289 289 289 289 288 288 288 288 287 287 287 288 289 289 289 290 291 294 295 295 295 294 293 292 292 291 291 291 291 293
290 289 288 287 285 286 287 287 287 286 286 286 286 287 288 288 288 289 288 288 287 287 287 287 287 288 288 288 288 289 289 290 293 295 294 294 293 293 292 291 291 291 292 293
289 288 288 288 288 286 286 285 285 286 286 286 286 286 287 288 289 289 288 287 286 285 286 286 287 287 287 287 287 288 288 289 289 292 294 294 293 293 292 292 291 291 292 292
288 288 288 287 287 287 286 286 286 285 285 285 285 285 286 287 287 288 288 287 286 286 286 287 287 286 286 286 286 287 288 289 288 290 291 293 293 292 292 292 292 291 291 291
285 286 284 285 285 286 286 286 285 284 284 284 284 285 285 285 287 287 288 287 286 286 286 286 286 285 285 285 286 288 288 288 288 288 290 291 292 292 292 292 291 291 291 290
285 284 285 285 284 284 285 285 285 284 284 285 285 284 284 286 287 287 287 287 286 286 286 285 285 284 285 287 287 287 287 287 288 288 289 289 290 291 291 291 291 290 290 290
286 286 285 285 283 283 284 284 284 284 285 286 284 284 284 285 286 287 287 286 285 286 285 285 284 285 285 286 285 285 286 287 287 288 289 289 289 289 289 289 289 289 289 289
285 285 285 285 285 283 280 283 284 284 284 285 287 285 285 285 286 286 286 285 285 284 284 284 284 284 284 284 284 285 285 286 286 287 288 288 287 287 287 287 287 287 287 287
285 285 285 284 282 283 284 284 283 283 284 285 287 287 285 285 286 285 285 284 284 283 283 282 283 283 282 283 283 283 284 284 285 285 286 286 286 285 285 285 285 285 285 285
283 284 284 284 284 284 284 283 282 283 283 283 286 287 285 285 285 285 285 284 283 282 282 282 282 282 281 282 282 282 282 282 283 283 283 284 284 283 283 283 283 283 284 284
283 284 284 283 284 284 283 283 284 283 284 284 283 285 285 285 284 284 284 284 283 282 282 281 281 281 281 281 281 281 281 281 281 281 281 281 282 282 282 282 282 282 282 282

GFSNGP_925_thetae_075.txt.gz
Theta_e
309 310 313 313 315 314 309 311 311 313 309 311 307 307 309 307 306 306 305 304 303 302 301 303 304 305 305 305 308 309 309 310 311 310 310 309 309 309 308 307 306 305 304 303
305 306 307 312 311 313 314 312 313 311 313 308 307 307 307 306 305 303 302 301 300 300 300 301 302 303 304 304 305 307 308 309 309 309 308 308 307 306 306 305 304 303 302 301
307 305 307 308 308 310 311 311 312 313 311 308 309 309 304 300 299 300 300 299 298 297 298 299 300 302 303 304 304 305 307 308 308 308 307 307 306 305 304 303 303 302 301 300
301 304 307 306 304 305 309 307 308 308 306 305 305 304 299 298 298 298 298 297 297 297 297 297 299 302 302 303 304 305 306 307 307 306 306 305 304 303 303 302 301 300 299 299
304 303 305 307 307 308 309 309 304 304 302 301 300 300 300 296 297 298 297 297 297 297 297 297 298 299 301 302 303 304 305 306 307 306 305 304 303 303 302 301 299 299 298 298
307 308 311 307 306 305 307 308 301 300 300 300 301 305 302 296 296 296 297 297 297 297 296 296 297 298 299 301 302 303 304 305 305 306 305 304 303 302 301 300 299 298 297 297
307 304 306 303 305 304 308 305 300 299 299 299 300 298 296 295 296 297 297 296 297 296 296 296 297 297 298 300 301 302 304 304 304 305 305 305 303 302 301 299 298 296 294 294
306 310 308 301 305 306 301 299 299 299 298 298 297 296 296 295 295 295 295 295 296 296 296 297 297 297 297 298 302 302 304 303 303 304 304 304 302 301 299 298 296 295 294 294
304 305 299 297 299 297 297 298 298 297 296 296 295 295 295 296 295 295 295 296 296 297 296 297 298 298 297 300 301 301 302 303 302 302 302 302 301 300 297 296 296 294 294 294
304 301 299 298 297 296 296 296 296 295 295 294 294 294 295 294 295 295 295 295 295 296 295 297 297 296 296 299 300 300 301 301 301 301 300 300 299 299 297 295 295 293 293 292
300 298 298 297 297 296 296 295 295 294 294 294 293 293 293 293 293 293 294 293 294 293 293 294 293 294 295 296 298 299 300 300 300 299 299 299 298 298 297 297 297 294 293 293
302 297 297 296 296 295 294 294 293 293 292 292 292 291 292 291 292 292 292 292 291 291 291 291 292 292 293 295 297 299 298 299 299 298 297 297 297 296 296 296 295 295 294 294
297 295 295 295 294 294 292 292 292 292 291 290 290 290 291 291 291 291 291 290 290 289 289 290 291 292 293 294 294 295 297 298 299 298 297 296 296 295 294 295 294 294 294 293
294 294 296 295 293 292 290 290 290 290 290 289 289 289 290 290 290 290 290 290 290 289 288 288 289 291 291 291 292 292 294 297 297 298 297 296 296 295 294 293 293 293 293 293
292 292 291 292 291 289 289 289 288 287 287 287 288 288 288 288 289 289 289 289 289 289 288 288 288 288 288 289 290 290 291 293 296 296 296 296 295 295 294 293 292 292 293 293
292 291 291 291 289 287 287 286 287 286 286 286 286 286 287 287 288 288 289 289 288 288 289 288 288 287 287 287 289 289 290 291 293 295 295 295 294 293 292 292 292 291 291 292
286 287 289 285 287 287 286 285 285 285 286 285 285 285 285 285 286 287 287 288 288 288 288 288 287 287 287 287 289 288 288 289 290 293 295 294 294 293 292 292 291 291 292 293
289 289 288 287 284 285 286 286 286 286 285 285 285 284 284 284 284 286 287 287 288 288 287 287 287 286 286 288 287 287 287 288 288 290 292 294 293 293 293 292 291 291 292 292
289 288 287 287 287 286 285 285 285 286 286 285 284 283 284 284 285 285 286 286 287 287 287 286 286 286 287 287 285 285 286 287 288 288 289 290 293 292 292 292 292 292 292 292
287 287 287 286 286 285 285 285 285 285 285 284 284 283 283 284 284 285 285 287 287 287 287 286 286 286 286 286 285 285 285 286 287 288 288 289 291 292 292 292 292 292 291 291
284 285 284 284 284 285 285 285 284 283 284 284 283 283 284 284 284 284 286 287 287 287 286 286 286 286 285 285 284 285 286 287 287 287 287 288 289 291 292 292 292 291 291 291
283 283 283 283 283 284 285 285 284 283 282 283 283 284 284 284 284 284 286 286 286 286 285 286 285 285 285 285 286 287 286 285 285 286 287 287 288 289 290 291 291 291 291 291
284 284 284 285 284 283 284 284 284 283 282 283 282 283 283 284 284 283 285 285 285 285 285 285 285 284 285 285 285 285 284 285 285 286 287 288 288 288 289 290 290 290 290 290
284 284 284 284 284 282 279 284 284 284 283 283 283 283 283 284 284 285 285 285 284 284 284 284 283 284 285 283 283 283 284 284 285 286 287 287 287 287 288 288 288 288 288 288
283 283 282 282 281 282 283 283 283 283 283 283 283 284 284 285 283 284 285 284 284 284 283 283 282 282 282 282 282 283 283 283 284 284 285 286 286 286 286 286 286 286 286 287
282 281 282 282 282 282 282 282 281 282 282 282 283 283 283 284 284 284 283 283 284 284 283 282 281 281 281 281 281 281 281 282 282 282 283 283 284 284 284 284 284 284 284 284
281 282 281 282 282 282 281 282 283 282 282 282 282 282 283 283 282 282 282 283 284 283 283 282 281 281 281 281 281 280 280 280 281 280 281 281 282 282 282 282 282 282 282 283

GFSNGP_925_thetae_078.txt.gz
Theta_e
307 308 312 313 314 313 309 310 309 311 310 308 305 307 307 304 305 303 301 299 298 297 296 298 299 302 304 304 304 304 307 309 310 310 310 310 311 310 310 309 308 307 306 305
304 305 306 312 310 312 312 312 311 308 311 307 305 305 306 304 301 300 299 298 297 297 296 296 297 298 301 303 304 304 304 306 309 309 309 309 308 308 307 306 305 305 304 303
306 304 306 308 308 311 311 311 311 312 310 307 308 308 304 299 298 298 297 297 297 296 296 296 297 297 298 300 302 303 304 305 306 307 308 308 307 306 306 305 304 303 302 302
302 304 306 305 303 305 309 307 307 308 305 303 304 300 298 296 296 296 297 297 296 296 296 296 296 297 297 298 300 302 303 304 305 306 306 306 305 304 304 303 303 302 301 300
304 302 305 306 306 308 310 309 305 303 301 299 300 300 300 296 296 297 296 296 296 296 296 296 296 297 297 297 298 301 302 303 304 304 305 305 304 303 303 302 301 301 300 299
306 307 312 306 305 304 306 307 301 301 300 300 303 305 302 296 295 295 296 296 296 296 296 296 297 296 296 297 297 299 300 301 303 303 304 304 304 303 302 301 301 300 299 298
310 304 305 303 304 303 308 305 300 299 299 299 300 297 295 294 295 295 295 295 296 296 295 296 297 296 296 296 297 299 300 301 303 303 303 304 304 302 302 300 299 298 297 295
307 309 306 299 304 306 300 298 298 298 298 298 297 295 295 294 294 294 294 295 295 295 295 297 296 296 295 295 296 298 299 300 301 302 302 302 302 302 300 299 298 297 296 295
304 304 298 297 299 297 296 297 297 297 296 296 295 295 294 294 293 293 294 294 294 294 295 293 293 295 294 294 295 297 298 299 300 301 301 301 300 300 298 297 296 294 295 294
304 301 299 298 297 296 296 296 296 295 295 294 294 293 292 292 292 292 292 293 292 293 291 291 292 291 292 292 294 295 297 299 299 299 299 299 298 298 297 295 294 294 294 294
301 298 297 296 296 296 295 294 294 293 294 294 292 291 291 291 290 291 291 291 292 290 289 289 289 290 291 292 293 294 296 297 298 298 298 298 298 298 297 297 297 297 296 295
303 298 297 297 295 294 294 293 292 293 291 291 291 290 290 289 290 290 290 290 290 290 289 288 288 288 289 291 292 292 293 295 297 297 298 297 297 296 296 297 297 297 297 296
297 294 294 295 294 293 292 292 291 291 289 289 289 289 289 289 289 290 290 290 290 289 289 289 288 288 288 289 289 290 290 291 293 296 297 296 296 295 294 296 295 296 296 294
294 294 296 294 293 292 290 290 289 289 288 288 288 288 287 287 288 288 288 289 289 289 289 289 288 288 288 288 288 288 289 290 291 294 296 296 296 296 295 294 294 295 295 294
292 291 290 291 289 289 288 287 287 286 286 286 287 286 286 285 286 286 286 287 288 288 288 288 288 288 288 288 287 287 288 289 290 291 294 295 295 295 294 294 294 294 295 294
291 291 290 290 288 287 286 286 286 285 285 285 285 285 285 285 284 284 285 286 286 287 287 287 288 288 288 287 287 286 288 289 289 290 291 294 295 294 293 292 293 293 293 293
285 286 288 285 287 286 286 285 284 284 285 285 285 285 284 284 283 283 284 285 285 286 286 287 287 286 286 286 286 286 288 287 288 289 289 291 293 293 292 292 292 292 292 293
288 289 288 286 283 285 285 286 285 285 284 285 285 284 283 282 281 283 284 285 285 285 286 287 287 287 286 286 286 287 287 286 286 287 288 289 290 292 293 292 292 292 292 293
288 287 287 287 286 285 284 284 284 285 284 284 283 282 283 283 283 284 284 284 283 285 286 286 287 286 286 286 285 287 285 285 285 286 287 288 289 289 292 292 292 292 292 292
287 287 287 286 285 285 284 285 284 284 284 283 283 282 282 283 284 284 284 283 284 285 286 286 286 286 285 285 285 285 285 285 285 286 287 288 288 289 290 291 292 292 292 292
284 284 284 285 284 285 284 284 283 283 283 283 282 282 282 283 284 284 283 283 285 285 286 286 285 285 285 285 285 285 285 285 285 286 285 286 287 287 288 290 291 291 291 291
283 281 282 282 281 282 284 284 284 283 283 282 283 282 282 282 282 283 284 283 285 285 285 285 285 284 285 285 285 286 286 285 285 284 284 285 286 287 287 288 290 291 291 291
283 283 283 282 282 282 283 283 283 283 282 283 282 282 281 282 282 282 283 285 284 285 285 285 284 285 285 285 285 284 283 283 283 284 284 285 286 287 287 288 289 290 290 290
282 282 282 282 281 280 278 282 283 283 283 283 283 283 282 281 282 282 283 283 284 284 284 285 284 284 284 283 282 282 282 283 283 284 284 285 286 287 287 287 287 288 288 289
281 281 281 281 279 280 281 281 281 281 282 282 282 282 282 282 282 282 283 283 283 283 283 283 283 282 282 282 281 281 281 282 282 283 283 284 285 285 285 286 286 286 287 287
280 279 280 281 280 280 280 280 280 281 281 281 282 281 281 282 282 281 282 282 282 282 283 283 282 282 281 281 281 281 281 281 281 281 281 282 283 283 284 284 284 285 285 285
279 280 280 278 279 278 278 279 279 279 280 280 279 280 281 280 280 280 280 281 282 282 283 282 282 281 281 281 281 280 280 280 280 280 280 280 281 281 281 282 282 282 283 283

GFSNGP_925_thetae_081.txt.gz
Theta_e
305 306 311 312 314 312 310 308 310 309 310 308 306 307 306 304 303 301 299 298 298 297 297 296 297 298 298 299 301 303 304 304 305 308 309 310 310 310 310 310 309 308 307 306
305 304 305 312 310 312 312 310 310 307 310 306 304 304 305 302 300 299 298 298 298 297 296 296 296 296 297 298 299 301 303 303 304 305 308 308 308 308 308 307 307 306 306 305
307 303 305 307 305 309 311 310 309 312 309 307 307 307 302 298 297 298 298 297 297 296 296 296 296 296 296 297 298 299 301 303 303 304 305 307 307 307 307 306 305 304 304 303
303 304 307 305 303 304 307 307 307 307 303 303 305 299 296 296 297 297 297 297 296 295 295 296 296 296 297 297 298 298 300 301 302 303 304 304 305 305 305 304 304 303 303 302
305 304 305 306 305 307 308 308 305 302 300 300 299 299 298 296 295 296 296 295 295 295 295 295 296 296 296 297 297 298 299 299 300 301 303 303 304 305 304 303 303 303 302 301
306 307 311 305 305 304 305 306 302 301 300 301 302 305 302 296 295 295 295 295 294 295 295 295 296 295 295 296 296 296 297 298 299 300 302 302 303 303 303 303 302 301 300 300
308 305 305 302 302 302 309 305 299 299 299 299 300 298 295 294 294 294 294 294 295 294 294 295 293 293 295 294 294 294 296 297 299 300 301 301 301 301 302 302 301 300 299 299
305 306 305 299 303 306 300 298 298 298 298 298 297 295 295 294 293 293 293 293 293 292 293 292 292 293 292 292 292 293 294 296 298 299 300 300 300 300 300 300 299 298 296 296
304 304 298 298 299 296 295 297 297 297 296 296 295 295 293 293 292 292 292 292 292 291 292 290 290 290 290 291 291 292 293 294 296 298 299 299 299 298 298 297 296 295 294 295
304 301 299 298 296 296 296 296 295 295 295 294 294 293 291 291 291 291 291 291 291 291 290 289 289 288 289 289 290 291 292 293 294 296 298 298 298 297 296 296 295 294 294 294
301 299 297 296 295 295 294 294 294 293 293 293 292 290 290 290 290 290 290 290 290 290 289 289 289 289 289 288 289 290 290 290 292 294 296 297 297 297 296 297 297 295 295 296
303 298 298 297 295 294 293 292 292 292 291 290 290 289 289 288 289 289 289 289 289 289 289 289 289 288 288 288 288 288 288 289 289 291 293 295 296 297 297 297 296 296 297 297
296 294 293 294 293 293 292 291 291 291 289 288 288 288 288 287 287 288 288 287 287 288 288 288 288 288 288 288 288 288 288 287 288 289 290 293 295 295 295 297 295 295 296 296
293 293 295 294 293 291 290 289 289 288 287 287 287 287 286 285 285 285 285 285 285 286 287 288 288 287 288 288 288 287 287 287 288 288 289 291 293 294 295 294 294 295 295 295
291 290 289 290 289 289 287 286 286 285 285 285 286 286 285 284 284 284 284 284 285 285 286 286 286 287 287 287 287 286 286 286 287 288 289 290 291 293 294 294 293 294 294 295
290 289 289 289 288 287 286 286 286 285 284 285 285 285 285 285 284 284 284 284 284 284 285 285 285 286 286 286 286 285 285 286 287 287 287 288 290 291 293 293 292 291 292 293
286 287 288 284 286 286 286 284 284 284 284 284 285 285 284 284 283 283 284 284 284 284 284 285 285 286 286 286 286 285 285 286 287 287 286 286 288 289 291 292 291 291 292 292
288 288 288 286 283 285 285 285 285 284 284 284 284 283 282 281 281 282 283 283 284 284 285 285 286 286 286 286 285 285 285 286 287 286 285 286 287 288 289 290 291 291 291 292
288 287 287 286 286 285 284 284 284 285 284 284 283 282 282 282 281 282 282 282 283 282 285 286 285 286 285 285 284 284 285 286 285 285 284 285 286 287 288 288 290 291 292 291
287 287 286 286 286 285 284 284 284 283 284 283 283 282 281 282 282 282 282 282 283 284 285 285 285 285 285 284 285 285 285 284 284 284 285 286 287 287 287 288 289 290 291 291
283 284 283 283 283 283 283 284 283 282 283 283 282 282 282 282 282 282 281 282 283 284 285 285 285 284 284 284 284 284 285 285 284 284 285 285 285 285 286 286 287 289 290 291
282 281 281 281 280 281 283 282 282 281 281 281 281 281 281 281 281 281 282 282 283 283 284 284 284 284 285 286 286 285 285 285 284 284 283 284 284 284 285 286 287 288 290 291
282 281 281 281 280 280 280 281 281 281 281 281 281 281 281 281 281 280 281 282 282 283 284 284 284 284 285 285 284 283 282 282 282 282 283 283 284 284 285 286 287 288 289 290
280 280 280 280 280 280 277 279 280 280 280 280 280 281 280 281 281 281 281 282 282 282 282 283 283 284 285 284 282 282 281 281 281 282 282 283 284 285 285 286 286 287 288 288
280 279 279 279 278 279 278 278 278 279 280 280 280 280 280 280 280 281 281 280 281 281 281 282 283 284 283 282 281 281 281 281 281 281 281 282 282 284 284 285 285 286 286 287
278 278 279 278 277 277 277 277 278 277 277 277 277 277 278 279 279 279 279 279 279 280 281 282 282 282 282 281 281 281 280 280 280 280 280 280 281 282 282 283 284 284 285 285
277 278 277 276 275 275 275 277 276 275 275 275 275 278 278 277 277 277 278 278 280 280 281 282 282 281 281 281 280 280 279 279 279 279 279 279 279 280 280 281 281 282 283 283

GFSNGP_925_thetae_084.txt.gz
Theta_e
310 310 314 315 316 316 315 313 316 313 314 313 312 312 310 309 306 304 304 303 302 302 302 301 300 300 300 300 300 300 302 304 305 305 306 308 309 309 310 310 310 310 310 309
312 309 312 314 314 315 314 313 313 312 313 311 309 310 310 308 305 304 303 302 302 301 300 300 300 299 299 300 299 299 300 302 303 304 305 306 307 308 309 309 308 307 307 307
316 309 310 313 309 312 314 313 313 315 312 310 310 311 308 304 303 303 302 302 301 301 300 299 299 298 299 299 299 300 300 301 302 302 303 304 305 306 306 306 306 305 304 303
316 311 317 308 305 307 308 311 310 311 309 310 310 306 302 302 303 302 301 301 300 299 299 298 298 298 298 298 299 299 300 301 301 301 301 303 304 304 304 304 304 304 303 302
317 314 309 308 308 309 311 311 308 309 306 307 304 303 302 300 300 300 299 299 298 297 297 297 298 297 297 298 298 298 298 299 300 300 300 301 303 303 304 303 302 302 302 302
312 315 313 310 307 306 307 311 306 305 306 306 305 312 311 300 299 299 298 297 297 296 296 296 296 295 296 297 296 297 296 297 298 299 299 300 301 302 302 301 302 301 301 301
313 313 311 306 305 304 311 309 304 304 304 304 307 304 300 298 298 297 296 296 295 295 295 295 294 293 294 294 294 293 294 295 296 298 299 299 300 300 299 300 300 301 300 300
310 311 310 304 305 309 306 301 303 302 302 302 301 299 298 297 296 295 295 293 293 293 293 293 291 292 291 292 292 292 293 294 295 297 298 298 298 299 299 298 298 298 297 296
309 309 303 302 304 301 300 302 302 302 300 299 299 298 296 295 294 294 293 293 292 292 292 292 290 290 290 290 290 291 292 292 293 293 295 298 297 298 297 297 298 297 296 296
307 305 304 302 300 299 299 300 299 298 298 297 297 295 294 293 293 293 292 292 291 291 291 291 290 290 290 290 290 290 291 291 291 292 293 295 296 295 296 295 296 296 295 295
307 305 302 301 300 300 298 297 296 296 296 295 295 294 293 293 292 291 291 290 290 291 290 290 290 290 290 289 289 289 290 290 290 290 290 291 293 295 295 296 296 296 295 296
308 303 303 303 299 298 298 296 294 294 294 293 292 292 292 291 291 290 289 289 289 288 289 289 290 289 289 289 289 289 289 290 290 289 290 289 290 292 294 295 295 295 296 296
303 298 298 297 297 296 296 294 293 293 292 291 291 290 290 290 289 288 288 287 287 287 287 287 288 289 289 289 289 289 289 289 289 289 289 290 289 290 292 294 295 296 295 295
296 297 298 297 298 295 294 292 291 290 289 289 289 288 288 288 288 287 287 286 286 286 286 287 287 288 288 288 288 288 288 288 288 288 288 289 289 289 291 292 293 294 295 295
296 295 293 294 292 292 290 289 289 289 289 288 288 288 287 287 287 287 287 286 285 285 286 286 287 287 287 287 287 287 287 286 286 287 288 288 288 288 289 290 292 293 293 293
292 292 292 292 291 290 289 289 288 289 288 288 287 287 287 286 286 286 286 286 285 286 286 286 286 287 286 287 287 287 287 286 286 287 287 287 286 287 287 289 291 292 292 292
292 291 291 290 290 289 289 289 288 288 287 287 287 286 286 285 285 285 285 285 285 284 285 285 286 286 286 287 287 287 286 286 286 287 287 287 286 286 287 288 289 290 291 292
290 289 289 289 289 289 289 288 288 287 287 286 285 285 284 284 285 284 284 284 284 284 284 285 285 285 286 287 286 286 285 284 285 286 287 286 285 285 286 287 288 289 290 291
289 289 288 288 288 287 287 286 286 285 284 284 284 284 284 284 284 284 283 283 283 284 285 285 285 285 285 286 285 285 285 285 286 286 286 285 285 285 286 287 288 288 288 290
288 288 287 287 286 286 286 285 285 284 284 284 284 284 284 284 284 284 283 283 283 283 284 284 284 285 285 285 284 284 285 285 285 285 285 285 286 286 287 287 287 287 288 289
285 283 283 283 283 283 283 283 282 283 283 283 283 283 283 283 283 283 283 284 284 283 284 284 284 285 285 284 284 284 285 285 285 285 286 286 286 286 286 286 285 287 287 288
283 282 280 281 282 282 282 281 281 281 281 281 281 281 281 282 282 282 282 282 282 283 283 284 284 284 285 285 285 286 286 285 284 284 284 284 284 284 285 285 286 286 287 288
282 281 281 280 280 280 279 279 279 279 280 280 280 280 280 281 281 281 282 282 282 282 283 283 283 284 284 284 285 284 283 283 283 283 283 283 284 284 285 285 286 286 287 288
280 280 279 279 278 279 279 278 278 278 279 278 278 279 279 279 279 280 280 281 281 281 281 281 282 283 284 285 283 283 282 282 282 282 282 283 283 283 284 285 285 286 286 287
279 278 279 278 278 278 277 277 277 278 277 277 277 277 277 278 279 279 279 279 279 280 280 281 281 283 283 282 282 282 281 281 281 281 281 281 281 282 283 283 284 285 285 286
279 279 278 277 277 276 276 277 277 276 277 277 276 277 278 278 278 278 278 278 279 279 279 280 281 282 282 281 281 281 281 280 280 280 279 280 280 280 281 281 282 283 284 285
277 278 277 277 276 275 276 277 276 276 276 275 276 278 277 277 277 277 277 278 278 279 280 280 281 281 281 281 280 280 279 279 278 278 278 278 278 278 279 280 280 281 283 283

GFSNGP_925_thetae_087.txt.gz
Theta_e
313 313 315 316 316 316 317 314 316 315 316 315 314 314 313 310 308 307 306 305 304 304 303 303 302 302 302 302 302 301 302 303 304 305 306 307 309 310 310 310 310 310 311 311
318 312 314 314 314 316 316 315 314 314 315 314 313 312 312 310 308 307 306 305 304 303 302 302 301 301 301 301 301 301 302 303 303 304 304 305 306 308 309 308 308 308 308 308
319 312 313 315 311 313 315 315 315 316 314 312 312 313 312 309 307 306 305 304 303 303 302 301 300 300 300 300 300 301 301 302 303 303 303 304 305 306 308 308 308 307 306 306
319 314 320 310 308 309 310 312 313 313 312 312 312 311 307 306 306 305 304 303 302 301 300 300 299 300 298 299 300 300 300 300 301 301 302 302 303 305 306 307 307 307 306 305
319 315 312 310 309 311 312 312 310 312 309 310 307 306 306 303 302 302 301 301 300 299 299 298 299 298 297 298 298 298 299 298 299 299 300 301 302 302 304 305 306 305 305 305
314 316 314 312 309 308 309 312 308 309 309 309 308 314 309 303 301 301 300 299 298 298 297 297 297 296 295 296 295 296 295 295 297 297 299 299 300 300 301 302 304 304 304 303
314 314 313 309 307 307 312 311 308 308 308 308 309 305 302 300 300 299 297 297 295 295 295 295 295 293 293 294 294 294 294 294 294 296 297 298 298 299 300 301 301 301 301 302
311 312 311 307 307 310 307 304 306 305 305 305 304 302 301 299 298 296 295 295 294 294 294 294 294 292 292 292 292 292 292 292 293 293 294 295 297 298 299 300 299 300 300 299
310 311 307 306 307 305 304 305 304 304 303 302 302 301 299 297 295 295 294 294 293 293 293 293 293 292 292 291 291 291 291 291 292 292 292 293 294 296 296 297 298 299 300 299
309 308 307 306 304 303 303 303 302 301 301 300 300 298 297 295 295 294 293 293 292 292 292 292 291 291 291 291 291 291 291 291 291 291 292 291 292 293 294 295 296 296 297 297
309 308 306 305 304 304 301 300 300 299 298 297 296 296 295 294 293 293 292 292 291 291 291 290 290 290 290 290 290 290 290 290 291 291 291 291 291 291 291 292 295 295 296 296
307 307 307 306 303 302 301 299 298 297 296 295 294 294 293 293 292 292 291 290 290 290 289 289 289 289 289 290 290 290 290 290 290 290 290 290 291 291 290 290 291 293 294 295
307 302 302 300 300 299 300 298 296 295 295 294 293 292 291 291 291 290 290 289 288 288 288 287 288 288 288 289 289 289 289 290 290 290 289 289 290 289 289 289 290 290 293 294
300 300 301 299 301 298 297 295 294 293 292 291 290 290 290 290 289 289 289 288 288 288 287 287 287 287 288 289 288 288 289 289 287 287 287 288 288 288 288 288 289 289 290 293
299 299 296 297 296 296 294 292 291 291 291 290 290 289 289 288 288 288 288 287 287 287 287 287 287 287 288 288 288 288 288 288 288 287 286 286 287 288 288 287 287 288 289 290
298 295 294 294 294 293 292 291 290 290 291 290 289 289 288 288 287 287 287 287 287 287 286 286 286 286 287 287 287 288 288 288 287 286 286 287 288 288 287 286 286 287 288 289
294 294 293 293 293 292 291 290 290 290 289 289 289 288 288 287 287 287 287 287 286 286 286 285 285 286 286 287 287 287 288 287 286 286 285 286 287 288 287 286 286 286 287 288
293 292 292 292 292 290 290 290 289 289 289 288 287 287 286 286 286 286 286 286 285 285 285 285 285 285 286 286 286 287 286 285 285 285 285 286 286 287 285 285 285 286 288 287
291 291 290 289 289 289 288 288 287 287 286 286 285 285 285 285 285 285 285 285 285 285 285 285 285 284 285 285 286 286 286 285 285 285 286 286 286 286 286 285 286 287 288 287
290 289 288 288 287 286 286 286 285 285 285 284 284 284 284 284 284 283 284 284 284 284 284 284 284 284 284 285 286 286 285 285 285 285 286 286 286 286 286 286 287 287 286 286
287 285 285 285 284 284 284 284 283 283 283 282 282 282 282 281 281 282 282 283 283 283 283 283 283 284 284 285 285 285 285 285 286 286 286 286 286 286 286 286 286 286 285 285
286 284 282 282 283 284 283 281 281 281 280 280 280 280 280 280 280 281 281 282 282 282 282 282 283 283 284 284 285 285 285 286 286 285 284 284 284 284 284 285 285 285 285 286
284 283 282 281 281 281 280 280 280 279 279 279 279 279 279 279 279 280 281 281 281 281 281 281 282 282 283 283 283 284 285 284 284 283 283 283 283 283 284 284 285 285 286 286
283 282 281 280 279 280 280 279 278 279 278 278 278 278 278 278 279 279 279 279 279 280 280 280 281 282 283 283 284 283 283 282 282 282 282 282 283 282 283 283 284 285 286 286
280 280 279 279 280 280 279 278 279 279 278 278 278 278 278 279 279 279 278 278 279 279 280 280 281 282 282 283 282 282 282 282 281 281 281 281 281 281 281 282 283 283 285 285
281 281 280 278 278 278 278 278 279 278 278 278 278 278 279 278 278 278 278 278 279 279 279 280 281 282 282 282 282 281 281 280 280 279 280 280 279 279 280 280 281 282 283 284
279 279 279 279 278 277 277 278 278 277 277 277 277 279 278 277 277 278 278 278 278 279 279 280 281 282 281 281 280 280 279 278 278 278 278 278 278 278 278 279 279 280 281 282

GFSNGP_925_thetae_090.txt.gz
Theta_e
313 313 315 315 315 315 314 312 313 315 315 313 311 310 308 306 305 305 304 303 302 301 300 301 301 301 301 301 301 301 302 302 303 303 304 304 306 307 309 310 310 311 312 314
311 312 314 313 311 314 315 314 313 313 313 312 312 309 308 306 306 305 304 303 302 301 301 301 300 300 300 300 300 301 301 302 302 303 303 303 303 304 306 308 309 309 309 309
316 312 312 313 309 310 314 313 314 315 312 310 311 312 310 306 305 304 303 303 302 300 300 300 300 300 299 299 300 300 300 301 300 301 301 301 302 303 304 305 307 308 308 307
311 312 314 309 308 309 310 312 312 312 311 310 310 306 304 303 304 303 302 301 300 299 299 299 299 299 297 297 299 298 299 299 298 298 299 299 300 301 302 303 305 306 307 307
311 311 310 309 309 310 310 311 310 310 309 308 306 305 303 301 300 300 300 299 299 299 298 298 297 297 295 296 296 295 296 295 295 296 297 298 298 299 299 300 301 303 304 306
313 313 314 311 308 308 308 310 308 309 308 308 307 309 303 301 300 299 299 298 298 297 297 296 296 295 293 293 293 293 294 293 294 294 295 296 297 297 298 298 299 300 302 303
311 311 311 308 307 307 311 309 307 306 306 307 306 302 300 300 300 298 296 296 295 295 294 294 295 294 292 292 292 292 292 292 292 292 293 294 294 295 297 297 298 300 300 301
308 310 307 306 307 310 306 304 305 305 304 304 302 301 300 299 297 295 295 294 294 294 293 293 293 293 292 292 292 292 291 291 291 291 292 292 292 293 294 296 296 298 299 300
308 309 306 306 306 303 303 303 304 303 302 301 301 301 299 297 295 293 294 293 293 292 292 292 292 292 291 291 291 291 291 290 291 291 291 291 291 291 292 293 293 295 296 297
307 307 306 304 303 303 302 303 301 300 300 299 299 297 296 294 293 292 293 292 292 291 291 291 291 290 290 290 290 290 290 290 290 290 290 291 291 291 291 291 291 292 293 294
306 306 305 304 304 302 300 300 299 298 297 297 296 295 294 292 292 292 291 291 291 290 290 290 289 289 288 289 289 290 290 290 290 290 290 290 290 290 290 291 290 290 290 292
305 305 304 303 301 301 299 299 298 297 296 295 294 293 292 290 291 291 290 290 290 289 289 288 288 288 287 287 288 288 289 289 290 290 290 290 289 289 289 289 289 289 289 290
304 301 299 299 299 299 300 298 296 295 295 293 292 291 290 289 290 290 290 289 289 288 288 288 287 287 287 287 287 288 289 289 289 289 289 287 287 287 287 288 288 288 288 288
298 298 300 299 299 297 296 295 294 293 292 291 290 290 289 289 289 289 288 288 288 287 287 287 287 287 287 287 287 288 288 288 289 289 287 286 286 286 286 287 287 287 286 287
298 297 296 296 296 295 294 292 291 289 289 289 290 289 289 287 287 287 288 287 287 287 287 287 286 286 286 286 287 287 288 288 288 288 287 287 286 286 287 287 286 286 286 286
296 293 293 294 293 292 291 291 290 288 288 288 288 288 288 287 287 287 287 287 286 286 286 286 285 285 285 285 286 286 287 287 288 288 287 286 286 286 286 287 287 286 285 286
291 291 292 291 291 291 290 289 288 287 287 287 287 287 287 286 286 285 285 285 285 285 285 284 284 284 285 285 285 286 286 287 288 287 286 285 285 285 285 286 286 285 285 285
292 292 291 290 288 289 288 288 287 287 286 286 285 285 285 284 283 284 284 284 284 284 284 284 284 285 284 284 284 285 286 287 286 286 285 285 285 285 286 286 286 285 285 285
289 288 288 288 288 287 286 286 286 285 285 284 284 283 283 283 283 282 282 282 282 282 283 283 283 283 283 283 284 285 285 286 286 285 285 285 285 285 285 285 285 285 285 285
288 288 287 286 286 285 284 284 284 283 283 282 282 281 281 281 281 280 281 281 281 282 282 282 283 282 283 283 284 285 286 286 285 285 285 285 285 285 285 285 286 286 286 286
284 285 284 284 284 284 284 283 282 281 281 280 280 280 280 280 279 280 280 280 280 281 282 281 282 282 282 283 284 284 284 285 285 285 285 285 285 284 284 284 284 284 284 284
283 281 281 282 283 282 281 281 280 280 279 279 279 278 279 278 278 278 279 280 280 281 281 281 281 281 282 283 283 283 283 283 284 285 283 283 283 283 283 283 283 284 284 284
283 282 281 281 281 280 280 280 279 279 279 279 278 278 278 278 278 278 278 279 279 279 280 280 280 281 283 283 283 283 284 283 283 282 282 282 282 282 282 283 283 283 283 284
282 282 281 280 279 280 278 279 278 279 279 278 278 278 278 278 278 279 278 279 278 279 279 279 280 282 283 282 282 283 282 282 282 282 282 282 281 280 281 281 281 282 283 284
281 280 280 279 279 280 279 278 278 279 278 278 278 278 278 279 278 278 278 278 278 279 279 279 280 281 282 282 282 281 281 280 280 281 279 280 280 279 279 279 280 280 282 282
280 281 280 279 278 278 278 278 278 278 278 278 277 277 278 278 277 277 277 277 278 278 278 278 279 280 282 281 281 280 279 279 278 278 278 277 278 278 278 278 278 279 280 281
280 280 279 278 278 278 277 278 278 277 277 277 276 277 278 277 277 277 277 277 278 277 276 277 278 279 282 281 280 279 278 278 277 277 276 276 276 276 276 277 277 278 279 280

GFSNGP_925_thetae_093.txt.gz
Theta_e
310 311 313 312 311 313 313 312 311 312 313 310 308 306 304 303 303 303 302 301 300 299 298 299 300 300 300 300 300 300 301 301 302 302 302 302 302 303 304 305 307 309 309 310
308 310 311 310 308 311 313 313 312 311 313 309 307 304 304 303 303 303 302 301 300 299 299 298 299 299 299 298 299 300 300 300 300 300 300 300 300 301 302 303 305 306 308 308
310 311 310 310 308 309 312 311 313 313 311 309 309 309 305 303 303 302 302 301 299 298 298 298 298 299 297 297 298 298 298 298 298 297 297 298 299 299 300 300 301 303 304 306
304 307 310 309 307 308 309 311 310 310 309 308 308 303 301 301 301 300 300 299 298 297 298 298 298 298 296 295 296 295 296 295 294 294 294 296 297 298 298 298 299 299 301 303
306 305 308 308 308 309 310 310 308 308 308 306 304 302 301 300 299 299 299 298 298 298 297 297 296 295 294 293 294 293 294 293 292 293 293 293 293 294 296 297 297 298 299 300
309 310 312 309 307 307 307 308 307 307 307 306 304 306 303 300 299 298 298 297 297 296 295 295 294 294 293 292 292 292 292 292 291 291 291 293 292 293 293 295 296 296 298 299
308 307 308 307 306 306 309 305 306 305 305 305 305 301 299 299 299 298 297 296 296 295 294 294 294 294 293 293 291 291 291 291 291 291 291 291 292 291 292 292 294 295 295 296
305 307 304 304 305 307 304 303 304 304 303 301 299 298 298 297 296 295 294 294 294 293 293 293 293 293 293 292 292 291 291 291 291 290 290 290 291 291 291 291 291 293 292 294
303 304 303 302 305 302 301 302 302 302 300 300 299 299 297 296 294 293 293 292 292 292 291 291 291 291 290 290 290 290 290 290 290 290 289 290 290 290 290 290 290 290 291 291
305 303 304 303 302 300 301 301 300 299 298 298 298 296 296 294 292 291 291 291 291 291 290 289 289 289 289 288 288 288 288 289 289 289 289 289 289 290 290 290 290 290 290 289
303 303 303 303 300 300 299 298 297 297 297 296 295 294 293 291 290 290 290 290 290 289 289 288 288 288 287 287 287 287 287 287 288 289 289 289 289 289 289 289 290 290 289 289
304 302 302 302 300 298 298 297 297 296 295 295 294 292 292 289 289 289 289 289 289 288 288 288 287 287 287 287 286 286 286 286 287 288 289 289 289 288 287 287 288 289 289 288
302 300 299 298 298 299 297 296 295 294 293 293 291 290 289 288 288 290 288 288 287 287 287 286 287 286 286 286 286 286 286 286 286 288 288 288 288 286 285 285 286 287 288 287
297 297 299 298 298 296 294 294 295 292 291 290 289 289 288 287 287 287 287 287 287 286 286 286 286 285 285 285 285 285 285 285 287 288 288 288 287 286 286 285 285 286 286 286
296 296 297 295 294 294 293 291 290 288 287 287 287 287 286 285 284 285 285 285 285 285 285 285 284 284 284 284 284 284 284 285 285 287 287 287 287 286 286 285 285 286 286 286
293 293 293 294 293 292 290 289 289 287 286 286 285 285 285 285 284 284 284 284 284 283 284 284 284 284 284 284 284 284 284 285 286 286 287 288 287 286 285 285 284 285 286 286
290 291 291 289 290 289 289 287 286 286 286 285 284 284 284 283 283 283 282 282 282 282 282 282 283 283 284 283 283 283 284 284 285 286 287 287 286 285 285 284 284 285 285 285
292 291 290 289 288 287 287 286 285 285 284 284 283 283 282 282 280 280 280 281 281 281 281 282 282 283 282 282 282 283 284 285 285 285 286 286 286 285 285 285 285 285 285 285
289 288 287 287 287 286 285 284 284 283 283 282 282 281 281 280 280 280 280 280 279 280 280 281 282 281 281 281 282 283 284 284 284 285 285 285 285 285 285 285 284 284 284 284
287 287 286 285 285 284 283 283 283 282 281 281 280 280 279 279 279 279 279 279 279 280 281 281 281 280 280 281 282 283 283 283 283 283 284 285 285 285 285 285 285 284 284 285
284 285 285 284 284 283 283 282 281 280 280 280 279 279 278 278 278 278 278 278 279 279 280 280 280 280 280 282 283 284 283 283 283 283 283 284 284 283 283 283 282 283 283 283
281 281 281 283 282 282 281 281 280 279 279 279 278 278 278 278 278 278 278 278 278 280 280 280 280 280 282 283 282 282 282 283 282 283 283 282 282 282 282 282 282 282 282 282
282 281 281 281 281 280 280 280 279 279 279 278 278 278 278 278 278 277 278 278 279 279 280 279 280 281 282 282 281 281 282 281 281 282 282 281 281 281 281 280 280 281 281 281
283 282 281 280 279 279 278 279 278 279 279 278 278 278 278 277 278 278 277 278 278 279 279 279 280 281 282 281 281 281 280 280 279 280 280 279 279 280 279 279 279 279 279 280
282 281 280 279 279 279 279 278 278 278 278 278 278 277 278 278 278 277 277 277 277 278 278 277 279 279 279 280 281 280 279 279 279 279 278 277 277 277 277 277 277 278 279 279
280 280 280 280 279 279 278 278 278 278 278 277 277 277 278 277 276 277 276 277 277 277 276 276 276 277 279 279 281 279 278 278 278 277 277 276 276 275 275 276 276 277 278 279
280 281 279 278 278 278 278 278 278 277 277 276 276 277 277 276 276 276 276 276 276 276 275 275 276 277 278 280 278 278 277 277 277 277 276 275 275 275 275 276 276 277 277 278

GFSNGP_925_thetae_096.txt.gz
Theta_e
308 308 310 311 308 310 311 311 310 312 312 310 308 306 305 303 302 302 301 300 299 298 297 297 298 299 298 297 298 299 299 299 298 298 298 298 299 299 300 301 302 304 305 307
305 310 309 311 307 308 311 312 311 311 313 308 307 303 302 301 302 302 301 300 299 298 297 297 297 298 297 296 297 296 296 297 295 294 294 295 296 297 298 298 299 300 301 303
306 308 309 310 308 309 311 311 312 313 311 307 306 305 303 301 302 302 302 300 299 297 296 296 297 297 296 295 295 295 294 294 293 292 292 292 293 293 294 296 296 297 298 299
304 305 306 308 306 307 308 310 309 310 309 308 307 302 301 301 300 300 300 299 298 296 297 297 296 296 295 294 293 292 292 293 292 291 291 291 291 292 292 293 294 296 296 297
305 304 306 307 307 308 309 309 307 308 307 304 301 301 301 300 298 298 298 297 297 297 296 295 295 295 294 293 292 291 291 291 291 291 290 290 290 291 292 291 292 292 295 295
306 308 309 307 306 306 305 305 305 306 306 305 304 307 304 299 298 298 298 297 296 295 294 293 293 293 293 292 292 291 291 291 291 291 290 290 290 291 291 291 291 291 294 293
307 307 307 305 305 304 308 301 304 304 304 303 304 302 300 299 299 298 296 295 295 294 293 293 292 292 291 291 291 290 290 290 290 290 290 290 289 290 290 290 290 290 290 290
304 306 304 303 305 305 301 302 303 302 302 302 301 299 298 298 297 295 293 293 293 293 292 292 292 291 290 290 290 289 288 288 289 289 289 289 289 289 289 290 290 290 290 290
302 303 300 301 302 302 299 301 302 301 300 299 298 298 298 297 295 292 292 291 291 291 291 291 290 289 289 289 288 287 287 287 287 287 287 288 289 289 289 289 289 289 289 289
304 301 301 302 302 300 299 301 300 299 298 297 298 296 296 293 291 290 290 290 290 290 289 289 289 288 287 287 287 286 286 286 286 286 286 287 288 289 289 289 289 288 288 289
301 301 300 300 299 300 299 297 297 297 297 296 294 294 293 290 289 289 289 289 289 289 288 288 287 287 287 286 286 286 286 286 285 285 286 286 287 288 288 288 288 288 288 289
305 301 301 300 300 298 297 297 296 295 294 293 292 291 291 289 288 288 288 288 287 287 287 287 286 286 286 285 285 285 284 284 284 285 285 286 287 288 288 287 287 287 287 288
303 298 299 299 298 296 297 296 294 293 292 291 291 289 289 287 287 288 286 285 285 285 285 285 285 285 285 284 284 284 284 284 284 285 285 285 286 287 286 287 286 286 286 287
297 296 299 297 298 295 295 293 294 291 290 289 288 287 286 286 285 285 284 284 284 284 284 284 284 284 283 283 284 284 284 284 284 284 284 285 286 286 286 286 286 285 285 286
295 296 297 294 293 292 292 290 288 287 286 286 286 285 285 284 284 284 283 283 283 282 282 282 282 283 283 283 284 283 283 283 283 284 285 286 286 287 287 286 286 285 285 284
293 294 294 294 292 291 289 287 286 286 286 285 285 284 284 284 283 283 282 281 281 281 281 281 282 282 282 283 282 282 282 283 284 284 285 285 286 286 287 286 285 285 284 284
291 292 291 290 291 289 288 286 286 286 285 284 284 283 283 282 281 280 280 280 280 280 280 281 281 281 282 281 281 281 282 282 284 283 284 284 285 286 286 285 285 284 284 284
293 292 291 290 289 286 286 286 285 284 284 283 283 282 281 280 279 279 279 279 279 280 280 280 281 282 281 280 281 281 282 282 283 283 283 284 285 285 285 285 285 285 285 285
290 289 288 288 287 286 285 284 283 283 282 282 281 280 280 279 279 279 279 279 279 278 279 280 281 280 280 280 281 282 282 282 282 282 282 283 283 284 284 284 284 284 284 284
287 287 286 285 286 285 283 283 283 282 281 280 280 279 279 279 278 278 278 278 279 279 279 280 280 279 279 280 281 283 282 282 282 282 282 283 283 284 284 284 284 283 282 282
285 285 285 284 284 283 283 282 282 280 280 280 280 279 278 278 278 278 277 278 278 278 280 280 279 279 280 281 283 281 281 281 281 281 281 282 282 282 282 282 282 281 281 282
283 282 282 283 283 282 281 281 280 280 279 279 278 278 278 278 278 278 278 278 278 279 279 280 279 280 282 283 282 281 280 280 280 280 280 281 281 281 281 281 281 280 280 280
283 282 282 282 282 281 280 280 279 279 279 278 278 278 278 278 278 277 277 278 278 278 280 279 279 280 281 281 281 281 280 280 279 279 279 279 279 278 279 279 279 279 279 279
282 282 282 281 280 279 279 279 279 279 279 278 278 278 277 277 278 278 277 277 277 278 278 278 278 280 281 279 280 280 280 279 279 278 278 278 277 276 277 277 277 277 277 278
283 282 281 279 278 279 279 279 278 279 278 278 278 277 277 278 277 277 277 276 277 277 277 276 277 277 278 278 279 279 278 278 278 278 277 277 276 275 275 275 275 276 277 277
281 281 280 280 280 280 279 278 278 278 278 277 277 277 278 277 277 277 276 276 276 276 275 275 275 275 276 277 278 277 277 277 277 277 277 276 275 275 275 275 275 276 276 277
281 281 280 280 279 279 278 278 278 278 278 277 277 277 277 276 276 276 276 276 276 275 274 274 275 275 275 275 276 276 276 276 276 276 276 275 276 276 276 276 276 276 277 277

GFSNGP_925_thetae_099.txt.gz
Theta_e
306 306 307 308 309 306 311 310 309 311 311 310 307 305 304 303 301 301 300 299 299 297 296 296 297 297 295 296 296 295 296 295 293 293 293 293 293 294 294 295 295 297 299 301
305 309 308 309 307 306 310 311 311 310 310 308 306 302 302 301 300 301 300 300 299 297 296 295 296 296 295 294 294 293 293 293 292 291 291 291 291 292 292 292 293 294 295 296
305 305 307 309 307 307 310 310 310 311 309 306 306 304 303 301 300 301 300 300 298 296 295 295 295 295 294 293 292 292 291 292 291 291 290 290 290 290 291 291 291 292 293 295
304 303 302 306 305 306 307 308 308 309 308 306 306 303 302 300 300 300 300 299 296 295 295 295 295 294 294 293 292 292 291 291 290 291 290 290 290 289 290 291 290 291 291 293
304 302 304 307 306 306 308 307 306 307 307 304 301 302 302 300 299 299 298 296 296 296 295 293 293 293 293 292 291 291 291 290 290 290 290 290 290 289 289 290 290 290 290 290
305 308 308 304 306 305 304 304 304 305 305 302 301 305 303 299 298 297 297 296 295 294 293 292 292 291 291 290 290 289 288 288 287 288 288 289 289 289 289 289 289 289 290 289
307 306 306 303 305 304 306 301 304 304 304 302 303 302 299 297 297 297 295 294 294 292 291 290 290 289 288 288 288 288 287 286 286 286 286 286 286 286 288 288 288 289 289 289
303 305 305 302 304 305 301 302 303 303 302 302 301 298 298 297 296 294 292 292 291 291 291 291 290 289 288 287 287 287 286 286 286 286 286 285 285 286 286 288 288 288 289 288
302 303 300 300 301 301 299 301 301 301 301 300 299 298 297 296 294 291 290 290 290 290 289 289 289 287 287 287 287 286 286 286 286 285 285 285 286 285 286 286 287 288 287 287
303 302 299 299 299 300 298 299 299 299 298 297 298 296 295 292 290 289 289 288 288 288 288 288 287 287 286 286 285 285 285 285 285 284 285 285 285 285 285 286 287 287 287 287
300 300 299 299 298 300 299 298 298 297 297 296 295 294 292 290 289 288 288 288 287 286 286 286 285 285 285 285 284 284 284 284 284 284 284 284 284 284 285 286 287 288 287 287
305 301 301 299 300 297 297 297 296 295 293 293 292 291 290 288 287 287 287 286 285 285 284 284 284 284 284 284 283 283 283 283 283 284 284 284 284 284 285 286 288 288 287 287
304 300 297 299 298 296 297 296 294 293 292 290 290 289 288 286 286 286 285 284 284 283 283 283 283 283 283 283 283 283 283 283 283 283 283 283 283 284 284 285 286 286 286 286
296 297 299 297 299 295 295 294 295 291 290 289 287 287 286 285 285 284 283 283 283 283 282 282 282 282 282 282 283 283 282 282 282 282 283 283 284 284 284 285 285 286 286 286
296 294 297 296 294 293 291 289 288 286 285 285 286 285 285 284 284 283 283 282 281 281 281 281 281 281 281 282 282 281 281 281 282 283 284 284 284 284 285 285 285 286 286 285
294 294 294 294 292 290 289 287 286 285 285 284 285 284 284 284 283 282 281 280 280 280 280 280 281 281 281 281 281 280 280 281 282 283 283 283 283 283 284 284 285 285 284 284
290 293 293 291 291 290 289 286 286 285 285 284 284 284 283 282 282 281 280 280 280 280 280 280 280 280 281 281 280 280 281 281 282 282 282 282 282 283 284 284 285 284 284 284
292 293 292 292 290 288 287 286 286 285 284 284 283 282 281 280 280 279 279 279 279 279 280 279 280 280 281 280 279 280 281 281 281 282 282 281 282 282 283 283 284 284 284 284
291 291 290 290 288 287 286 285 285 284 283 283 281 281 280 280 279 279 279 279 279 278 279 279 280 280 279 280 280 281 281 282 281 281 281 281 281 282 283 283 284 284 284 283
287 287 287 286 287 286 284 284 283 282 282 281 280 280 279 279 279 278 278 278 279 279 279 280 280 280 279 280 281 282 281 280 280 280 280 281 280 281 282 281 282 282 282 281
282 284 285 285 284 284 284 283 282 281 281 280 280 280 279 279 278 278 278 278 279 278 280 279 279 279 279 281 282 281 281 279 279 279 279 279 279 280 280 281 281 281 281 280
282 280 282 283 283 283 282 282 282 281 280 280 280 279 278 278 278 278 278 278 278 278 278 279 279 279 280 282 281 280 279 279 279 278 278 278 279 278 278 278 278 279 279 278
282 283 283 283 282 282 281 281 280 280 280 280 279 278 278 278 278 277 277 278 278 278 279 278 278 279 280 280 279 279 279 279 278 277 278 278 278 277 277 276 276 276 276 276
283 283 282 283 282 280 277 280 280 280 280 279 278 278 278 278 278 278 277 277 277 278 278 277 278 278 279 278 277 277 278 277 277 277 278 277 277 276 275 275 275 275 275 276
283 283 282 280 278 278 280 280 279 279 279 278 278 278 278 277 278 278 277 277 277 277 276 276 276 276 276 276 276 277 277 277 277 277 276 277 276 275 275 275 275 275 276 276
281 281 281 281 280 280 280 280 278 279 278 278 278 278 277 278 277 277 276 276 276 276 276 275 276 275 275 275 275 275 275 275 275 275 276 275 276 276 276 275 275 275 276 276
283 282 281 280 280 280 280 279 278 278 279 278 278 278 277 278 277 276 276 276 276 276 275 275 275 275 274 274 275 275 275 275 274 275 275 276 276 277 276 276 277 277 278 278

GFSNGP_925_thetae_102.txt.gz
Theta_e
305 305 306 307 308 307 308 307 308 308 309 308 306 306 304 303 302 300 300 299 298 296 295 295 296 295 294 294 293 292 293 292 291 291 290 290 290 290 290 291 291 291 291 292
303 307 306 308 306 306 305 310 307 309 308 305 305 302 302 301 300 300 300 299 298 296 295 294 294 295 294 293 292 291 291 291 291 290 290 290 290 289 289 289 290 290 290 290
306 304 305 307 305 306 307 308 308 310 308 305 305 303 302 300 299 299 299 299 298 296 295 294 294 294 293 292 291 291 290 290 290 290 290 290 289 289 289 288 289 289 289 290
304 303 302 303 304 305 307 306 306 307 307 306 306 303 301 299 298 298 298 297 296 295 295 294 293 292 292 292 291 291 290 289 289 288 288 289 289 288 288 288 288 288 288 289
303 301 304 304 305 306 306 306 304 306 306 305 302 302 302 298 298 297 296 296 296 295 293 292 291 291 291 291 290 289 288 287 286 286 286 286 286 286 286 287 288 288 288 288
304 306 304 300 305 305 303 303 302 305 304 302 301 305 303 298 297 296 296 296 294 294 292 292 291 290 289 288 288 288 287 286 286 285 285 285 285 285 285 285 286 287 288 288
306 305 305 302 304 303 306 299 303 303 303 300 302 301 299 296 296 296 296 294 293 292 291 290 289 288 287 286 286 286 285 285 285 285 285 285 285 285 285 285 285 286 287 288
302 305 305 302 304 305 301 301 303 302 301 300 300 298 297 296 295 293 292 291 290 290 289 288 287 286 286 286 285 285 285 285 285 285 285 285 285 285 284 284 284 285 286 287
302 302 300 299 301 300 298 300 301 301 300 299 298 297 296 294 291 290 290 289 288 288 288 287 286 286 285 285 285 285 285 284 284 284 284 284 284 284 284 284 284 284 285 286
302 302 299 298 297 297 298 298 299 298 298 297 297 295 294 291 289 288 288 287 287 286 285 285 285 285 284 284 284 284 283 283 283 283 284 284 284 283 283 283 283 284 285 286
299 300 298 299 297 297 298 297 298 297 297 296 295 294 292 290 288 287 287 287 286 285 284 284 284 284 284 284 283 283 283 283 283 282 283 283 283 283 283 284 285 286 286 287
304 301 299 300 298 298 297 297 296 296 295 294 293 291 290 288 287 286 286 285 284 284 284 284 283 283 283 282 282 282 282 282 282 283 283 282 282 283 283 284 285 286 287 287
302 300 297 297 296 297 297 296 295 294 293 292 291 290 288 286 286 287 284 284 284 283 283 283 282 282 282 282 282 282 282 281 282 282 282 282 282 283 283 283 284 285 286 286
296 296 296 296 298 296 295 294 296 292 291 290 288 287 286 285 285 284 283 283 283 282 282 281 281 281 281 281 282 282 281 281 281 281 282 282 283 283 283 283 283 284 284 285
294 293 295 293 295 294 292 290 289 288 286 285 286 286 285 284 283 283 283 282 281 281 281 281 281 281 281 281 281 281 280 280 281 282 282 282 282 282 282 282 283 284 284 285
293 291 292 292 293 291 290 289 289 286 285 284 284 284 284 284 283 283 282 281 280 280 280 280 280 280 280 281 281 280 280 281 282 282 282 281 281 281 281 282 283 283 284 284
288 291 292 290 291 290 289 287 287 286 285 284 285 284 283 283 282 281 281 280 280 280 280 280 280 280 281 281 280 279 280 280 282 281 281 282 282 281 281 282 282 283 283 284
289 290 291 291 289 289 288 287 286 285 285 285 284 283 282 281 280 280 280 280 280 280 280 280 279 280 281 280 279 280 280 280 280 281 281 281 281 282 281 281 281 282 283 283
290 290 290 290 290 288 286 284 285 286 285 284 283 282 281 281 280 280 279 279 279 279 280 279 280 280 280 279 280 281 281 281 280 280 280 280 280 280 279 280 281 281 281 282
288 288 288 288 288 287 284 285 285 283 283 283 282 281 280 280 280 279 279 279 279 279 279 279 280 279 279 279 280 281 282 279 280 280 279 280 279 279 279 279 279 279 279 280
282 283 285 286 285 286 286 285 283 282 282 282 281 280 280 280 279 279 278 278 280 279 279 279 279 279 279 280 281 281 280 279 279 279 279 278 278 278 278 278 277 277 278 278
280 279 280 283 283 283 284 284 283 282 281 281 281 280 280 279 279 279 279 278 279 279 279 279 279 278 280 281 280 279 278 278 278 278 278 277 278 278 278 277 276 276 276 276
282 282 282 282 282 282 282 282 282 281 281 281 280 280 279 279 279 278 278 279 278 278 279 279 278 279 280 279 278 277 277 277 277 276 276 277 277 277 277 276 276 276 275 275
284 283 283 283 283 281 277 281 281 281 281 281 280 280 279 279 278 278 278 278 278 278 278 278 278 279 279 277 276 276 276 276 276 276 277 277 276 276 276 275 275 275 275 275
284 284 282 280 279 280 281 281 280 280 279 279 279 279 279 279 278 278 278 278 277 277 277 277 276 276 275 275 275 275 275 275 275 276 275 275 275 275 276 276 276 275 276 277
282 282 282 281 282 281 281 280 278 279 279 278 279 279 279 278 278 278 278 277 276 276 276 276 276 275 275 275 275 274 275 275 275 274 275 275 275 276 276 276 277 278 277 278
283 284 282 280 281 281 281 280 278 278 279 279 278 279 278 278 278 277 277 276 276 276 276 275 275 275 274 274 275 275 275 275 275 274 275 276 276 277 277 278 278 279 279 280

GFSNGP_925_thetae_105.txt.gz
Theta_e
306 306 306 308 308 306 307 306 310 308 308 307 306 307 307 306 304 301 300 299 298 297 296 295 295 294 293 292 292 291 291 291 290 290 290 289 289 289 289 288 289 289 289 289
303 306 306 307 306 305 306 306 306 306 308 305 305 303 303 303 301 300 299 299 298 296 295 294 294 294 292 291 291 290 290 290 289 289 289 289 288 288 287 287 287 287 288 288
306 303 303 304 304 305 306 305 307 310 308 305 305 304 304 302 300 300 299 298 297 296 295 294 294 293 292 291 291 290 289 288 287 287 286 286 286 286 286 286 286 286 287 287
304 303 299 300 303 303 305 306 305 306 306 305 305 304 302 299 300 299 298 298 296 295 295 293 292 292 291 290 289 289 288 287 286 286 286 286 286 285 285 285 285 285 286 287
303 302 303 301 304 305 306 305 303 304 305 305 302 302 302 299 297 298 297 296 296 296 294 292 290 290 290 289 288 288 287 286 286 285 285 285 285 285 285 285 285 285 285 286
303 305 305 298 303 303 302 303 300 302 304 303 302 307 305 299 297 296 296 296 295 293 292 290 290 289 289 288 287 286 286 285 285 285 285 285 285 284 284 284 284 284 284 285
306 305 305 301 303 302 306 300 302 303 303 301 303 303 299 296 296 295 295 294 293 291 290 289 289 289 287 286 286 285 285 285 284 284 284 284 283 284 284 284 284 284 284 285
302 305 305 300 303 305 301 299 301 301 301 301 299 299 297 296 295 293 292 291 290 289 289 288 287 286 285 285 284 284 284 284 284 283 283 284 284 283 283 283 283 283 283 284
301 303 300 298 301 300 297 300 301 301 299 299 299 298 297 296 294 291 290 289 289 288 287 286 285 285 284 284 284 284 284 283 283 283 283 283 283 283 283 283 283 283 284 285
301 301 299 297 296 297 297 298 298 298 299 297 298 297 296 294 291 289 288 287 287 286 285 285 284 284 284 284 283 283 283 283 283 282 283 283 282 282 282 283 283 284 284 285
298 299 299 299 296 297 297 296 296 296 297 297 296 295 294 292 289 288 287 287 286 285 284 284 283 283 283 282 282 282 282 282 282 282 282 282 282 282 283 283 284 285 285 286
304 300 299 299 298 297 298 298 296 295 295 295 294 294 291 289 288 287 286 285 284 284 283 283 283 282 282 282 282 282 282 282 281 282 282 281 282 282 283 283 284 284 285 285
302 299 297 296 295 295 296 297 295 294 294 293 292 291 289 286 286 287 285 284 283 283 283 282 282 282 282 281 281 282 281 281 281 281 281 281 282 282 283 283 282 283 283 284
295 296 296 296 297 294 293 293 296 294 293 291 289 289 287 285 287 284 283 284 283 282 282 281 281 281 281 281 281 281 281 281 281 281 281 282 282 282 281 281 282 282 282 283
295 293 294 293 291 291 293 291 291 290 287 286 287 286 286 284 284 283 283 283 282 281 281 281 281 281 281 281 281 281 280 280 280 281 282 282 281 281 281 281 281 281 281 282
294 292 290 290 291 291 291 290 290 289 286 285 285 285 285 284 284 283 283 282 281 281 281 280 280 280 280 281 281 280 279 280 281 282 282 281 281 282 281 281 281 281 282 282
289 291 292 290 292 292 290 289 289 287 285 285 285 285 284 283 283 282 281 281 280 280 280 280 280 280 280 281 280 279 280 280 281 280 281 281 281 281 281 281 280 280 280 281
289 290 290 291 289 291 290 288 288 287 285 286 285 284 283 282 280 281 281 280 280 280 280 280 280 280 280 280 279 280 280 280 280 281 280 280 280 281 280 279 279 279 280 280
288 289 289 289 290 289 288 286 286 287 286 285 284 282 282 282 281 281 280 279 279 279 280 280 280 280 280 280 280 280 281 281 280 280 280 280 279 280 278 278 279 279 278 278
289 289 289 289 290 289 286 287 286 284 285 284 283 281 280 280 280 280 279 279 279 280 280 280 280 280 279 279 280 281 281 280 279 279 279 280 278 278 278 278 278 278 278 277
286 284 285 287 287 287 287 286 285 283 283 283 281 281 280 281 280 280 279 278 280 279 279 280 279 279 279 280 281 281 279 278 277 278 277 277 277 277 277 278 277 277 277 276
281 281 281 284 285 285 285 285 284 284 283 282 281 281 280 280 280 279 279 279 280 279 279 279 279 279 280 281 280 279 277 276 277 276 276 276 276 276 277 277 277 276 276 276
283 283 283 282 283 284 284 284 283 283 282 281 281 281 280 281 280 278 277 279 279 279 279 279 279 279 280 280 278 276 276 276 275 275 275 276 276 276 275 276 276 276 276 275
285 284 283 284 283 282 279 282 282 282 282 282 281 281 281 279 279 279 279 279 279 279 278 278 278 279 279 277 276 275 275 275 275 275 275 276 275 275 275 275 275 276 276 276
286 285 283 281 279 281 282 283 282 281 280 280 281 280 280 280 279 279 279 279 278 278 277 277 277 277 276 276 275 275 275 274 274 275 275 275 275 275 276 276 276 276 277 278
284 284 284 283 283 283 282 282 280 280 280 279 280 280 280 279 279 278 278 278 278 277 277 276 276 275 275 275 275 275 275 275 275 275 274 275 276 276 276 277 277 278 278 280
286 286 284 282 283 282 282 281 279 279 280 279 279 281 280 279 279 278 278 278 277 277 276 276 276 275 275 275 275 275 275 275 275 274 275 276 277 277 277 278 278 279 280 281

GFSNGP_925_thetae_108.txt.gz
Theta_e
313 312 312 312 312 311 312 312 312 311 311 311 311 313 312 310 309 309 307 305 303 303 301 299 298 297 295 293 292 292 292 292 291 291 291 290 290 289 288 288 289 289 289 289
311 310 310 310 310 310 310 311 310 310 311 310 310 310 312 311 310 309 306 304 303 302 300 299 297 296 294 293 292 291 291 291 290 289 289 288 288 288 287 287 287 288 288 288
313 309 309 310 308 308 309 309 310 311 310 310 310 309 310 311 310 308 306 305 303 302 300 299 296 295 294 293 291 291 290 289 288 288 288 287 287 287 287 287 287 287 287 288
314 311 309 305 305 307 308 308 309 309 310 310 311 310 309 308 309 307 305 304 303 302 300 298 295 293 293 292 290 290 289 288 287 287 287 287 287 287 287 287 287 287 287 287
314 311 309 305 306 307 308 308 307 309 309 309 308 307 309 307 306 307 306 304 303 301 299 295 293 292 291 290 289 289 288 288 287 287 286 286 286 286 286 286 286 286 286 286
309 311 308 303 305 305 306 308 304 304 307 308 307 312 311 307 304 303 302 302 300 298 295 293 292 290 290 289 288 288 287 287 286 286 286 285 285 285 285 285 285 286 286 286
310 310 311 308 306 304 308 306 304 306 308 308 309 310 306 303 302 301 300 299 297 294 293 292 290 289 289 288 288 286 286 285 285 285 285 284 285 285 285 285 285 285 286 286
310 311 312 305 305 307 306 303 304 305 306 307 307 306 303 302 301 299 297 295 294 293 291 290 288 288 288 287 286 285 285 285 284 284 284 284 284 285 285 285 285 285 286 286
308 309 306 304 308 305 303 304 304 304 305 305 305 305 304 302 300 298 296 293 291 291 290 288 286 286 286 286 284 284 284 284 284 284 284 284 284 284 285 285 285 285 286 286
303 306 304 304 303 302 302 302 302 302 302 303 303 304 303 301 299 296 292 291 289 289 288 287 285 284 284 284 284 283 284 284 284 284 284 284 284 284 284 285 285 285 285 286
305 305 305 304 304 303 302 301 300 301 300 301 301 302 302 301 298 294 291 289 288 287 287 286 284 284 283 283 283 283 283 283 284 283 284 283 283 283 283 284 284 285 285 285
307 306 305 305 303 301 302 302 301 301 301 300 300 301 299 299 296 292 290 288 287 286 286 285 284 283 283 282 282 283 283 284 283 283 283 283 283 284 284 284 284 283 284 284
306 305 303 303 301 300 300 300 298 298 299 300 298 298 297 295 292 290 288 287 287 286 285 284 283 283 282 282 282 282 283 283 283 283 283 283 283 283 283 283 282 283 283 283
303 302 302 300 302 299 297 297 296 297 296 297 297 294 293 291 290 289 287 287 285 284 283 283 282 282 282 281 281 282 282 282 282 282 282 283 283 283 282 282 282 282 282 282
301 300 301 299 296 296 295 295 296 297 295 292 292 291 290 290 289 287 286 284 284 283 282 282 282 282 281 281 281 282 282 281 281 282 283 283 283 282 282 282 282 282 282 282
299 298 297 296 296 294 294 295 295 296 293 291 290 289 289 288 287 285 284 283 283 283 283 282 282 282 281 281 281 282 281 281 281 282 283 282 282 282 282 282 282 282 281 281
296 298 296 295 296 296 295 295 294 295 292 291 290 288 286 286 285 284 283 282 282 282 281 281 281 281 280 281 281 281 281 281 282 282 282 282 281 281 281 281 281 281 280 280
297 297 294 294 294 295 294 293 292 292 290 289 288 286 285 285 286 284 283 282 281 281 281 281 281 280 281 281 281 281 281 281 282 281 281 281 281 281 281 280 280 280 280 279
292 293 293 293 292 293 293 292 291 290 288 287 286 285 285 284 283 282 281 281 281 281 282 280 280 281 281 281 280 281 281 281 281 281 281 281 281 281 280 280 280 279 279 279
292 291 291 291 291 291 291 290 289 287 286 285 285 284 283 282 282 281 281 281 281 282 280 280 280 281 280 280 280 281 281 281 280 279 280 280 280 279 279 279 279 279 279 279
290 290 290 290 290 289 289 288 287 286 285 284 284 284 283 282 281 281 280 281 281 280 280 280 280 280 280 280 281 281 280 279 278 278 279 278 278 278 278 278 279 278 278 278
290 288 287 287 288 289 288 287 286 285 284 283 283 282 281 281 281 280 280 281 280 280 280 280 280 279 280 281 280 279 278 277 277 277 277 277 277 277 278 278 278 278 278 278
289 288 287 286 287 287 286 285 285 285 284 283 282 282 281 282 281 281 282 280 280 279 280 280 279 280 280 280 279 277 276 276 276 276 276 276 276 277 277 277 277 277 277 277
289 288 287 287 285 284 285 284 284 284 284 284 283 282 281 280 280 280 280 280 280 280 280 279 279 279 279 278 277 276 275 275 275 275 275 276 276 276 276 276 276 277 277 277
289 288 286 284 284 285 285 285 284 283 282 282 282 281 281 281 281 281 280 279 279 279 279 278 278 278 277 276 276 275 275 275 274 275 276 275 275 275 275 276 276 276 278 278
288 288 287 286 287 286 284 283 283 282 281 281 280 281 281 281 280 279 279 279 278 278 278 277 277 277 276 276 275 275 275 275 275 275 274 275 275 275 275 276 277 278 279 280
289 289 287 285 285 285 284 283 283 283 282 282 282 281 281 280 280 279 278 278 278 278 277 277 277 276 276 275 275 275 275 275 275 274 274 275 275 276 276 277 278 280 280 281

GFSNGP_925_thetae_111.txt.gz
Theta_e
314 313 312 312 312 312 312 313 314 312 310 310 310 311 313 313 312 311 310 309 308 306 305 303 301 299 297 295 294 293 293 293 292 291 290 290 289 289 289 288 289 289 289 289
313 311 311 311 311 311 311 311 311 312 312 310 310 310 311 312 312 311 311 310 307 306 305 303 301 299 297 295 294 293 293 292 291 290 289 289 289 289 288 288 288 288 288 288
314 311 312 312 311 310 310 310 310 311 310 310 311 311 312 312 312 312 311 310 307 306 305 303 301 298 297 295 293 293 292 291 290 289 289 289 288 288 288 288 288 288 288 288
314 313 315 309 307 307 308 309 309 309 309 310 310 311 311 311 311 312 311 309 307 306 304 302 299 296 295 294 293 292 291 290 289 288 288 288 288 288 288 287 287 287 287 288
314 313 311 309 306 308 309 308 309 309 309 308 308 310 310 310 310 310 310 309 307 306 304 301 298 295 294 293 292 291 290 289 288 288 288 287 287 287 287 287 287 287 287 287
312 312 311 307 308 307 308 309 308 307 307 309 309 309 310 309 309 308 307 306 305 304 301 299 296 294 293 292 291 290 289 288 287 287 287 286 286 286 286 286 286 286 287 287
312 311 310 310 308 307 308 308 307 308 307 308 309 308 309 306 306 305 305 304 302 301 298 296 294 292 291 291 290 288 287 287 286 286 286 285 285 286 286 286 286 286 287 287
310 311 312 307 307 308 308 307 306 307 307 306 306 307 308 306 305 303 302 301 299 298 295 293 291 290 290 289 287 286 286 286 285 285 285 285 285 286 286 286 286 286 287 287
310 311 309 307 308 307 307 306 306 305 305 305 305 305 306 306 305 303 301 298 297 296 293 291 290 288 288 287 286 286 285 285 285 285 285 285 285 285 285 286 286 286 286 286
306 307 307 307 306 306 305 305 304 304 304 304 304 305 305 305 305 302 300 297 294 293 292 290 288 287 286 286 285 284 285 285 285 285 285 285 285 285 285 285 285 285 285 286
307 307 307 307 307 307 307 305 304 303 303 303 303 304 304 304 304 301 297 295 292 292 291 290 287 286 286 285 284 284 284 285 285 285 285 285 284 285 285 285 285 285 285 285
308 307 308 308 306 304 304 304 304 303 302 302 302 302 303 303 302 300 296 293 291 290 289 288 286 286 285 284 284 284 284 285 285 284 284 284 284 285 285 285 285 284 284 284
307 307 306 306 304 304 303 303 303 300 300 300 301 301 301 301 300 297 294 292 290 289 288 287 286 285 284 284 283 283 284 284 284 284 284 284 284 284 284 284 284 284 284 283
307 306 306 305 304 303 303 301 299 298 298 299 300 299 299 298 295 293 292 290 289 287 286 286 285 284 284 283 283 283 283 283 283 283 283 284 284 284 284 283 283 283 283 283
304 304 304 303 300 300 300 299 297 297 298 297 297 297 295 294 293 292 290 288 286 286 285 284 284 284 283 283 282 282 283 283 283 283 283 284 284 283 283 283 283 283 282 282
303 302 302 301 300 300 298 296 296 297 298 296 294 294 293 293 292 289 287 286 285 285 284 284 283 283 283 282 282 283 283 282 282 282 283 283 283 282 282 282 282 282 282 282
300 300 299 299 298 298 297 297 297 297 296 294 293 292 290 289 288 287 286 285 285 284 284 283 283 283 282 282 282 283 282 282 282 283 282 282 282 282 282 282 282 281 281 281
301 301 298 298 297 297 297 296 295 295 295 293 292 290 288 288 288 287 285 284 283 283 283 283 283 282 282 282 282 282 282 282 282 282 282 282 282 282 282 281 281 281 280 280
299 298 297 295 295 295 295 295 294 293 292 290 289 288 288 287 287 285 284 283 283 283 283 282 282 281 282 282 281 281 282 282 282 282 281 281 281 281 281 280 280 280 280 280
296 294 294 295 294 293 294 293 293 292 290 289 288 287 287 286 285 284 283 283 283 283 283 282 281 281 282 281 281 281 282 282 282 281 280 280 281 280 280 280 280 279 280 279
293 293 293 293 293 292 292 292 291 290 289 288 287 287 286 285 284 283 283 283 283 282 281 281 281 282 281 281 281 281 282 281 280 279 279 279 279 279 279 279 279 279 279 279
294 292 291 291 291 291 291 290 290 289 287 286 286 286 285 284 283 282 283 283 283 282 281 281 281 281 281 281 282 281 281 279 278 278 278 278 278 278 278 278 278 278 278 278
293 292 291 291 290 291 290 289 288 288 286 286 285 284 284 284 283 283 283 282 282 281 281 281 281 281 280 281 281 280 279 278 277 277 277 277 277 277 277 277 277 277 278 278
293 292 291 290 289 288 288 288 287 287 286 286 286 285 284 283 282 282 283 283 282 281 281 281 281 280 281 281 280 278 277 277 277 277 277 277 277 277 276 276 277 277 277 278
292 292 290 288 288 289 288 288 287 285 285 284 284 284 284 283 283 283 282 281 281 281 281 281 280 280 279 279 278 277 277 276 276 276 276 276 276 276 276 276 276 277 278 279
292 292 291 290 290 289 288 287 287 286 284 284 283 283 283 282 282 282 281 281 280 281 280 280 279 279 278 277 277 276 276 276 276 276 275 275 276 276 275 275 276 276 278 279
292 292 291 289 288 288 288 287 287 287 286 285 285 283 282 282 281 281 280 280 279 279 279 279 278 277 277 277 276 276 276 276 275 275 275 275 275 275 275 277 277 278 279 280

GFSNGP_925_thetae_114.txt.gz
Theta_e
312 312 312 312 311 311 310 311 312 311 310 309 309 308 308 310 309 308 308 307 306 305 303 302 301 299 297 295 294 293 293 292 291 290 289 289 289 288 288 288 288 288 288 288
308 310 310 311 310 310 310 310 310 310 311 309 308 306 308 308 309 310 309 307 306 305 304 303 301 299 297 295 294 293 292 291 290 289 289 288 288 288 288 288 288 288 288 288
311 310 310 311 309 309 309 308 309 310 309 307 307 309 309 309 308 309 308 308 307 304 303 303 302 299 297 295 294 292 292 291 290 289 288 288 288 288 288 287 287 287 287 287
309 308 311 310 307 306 308 308 307 307 307 307 306 306 307 308 308 308 308 308 306 304 304 304 301 298 296 295 293 292 291 290 289 288 288 288 287 287 287 286 286 286 287 287
307 309 310 309 306 306 306 306 306 306 306 306 307 307 306 306 306 306 307 306 306 306 305 302 299 297 295 294 292 291 291 289 288 288 287 287 286 286 286 286 286 286 286 286
309 310 311 308 306 306 307 306 305 306 306 307 307 306 304 307 307 306 307 305 305 305 303 300 297 295 294 293 291 290 289 288 287 287 286 286 286 285 286 286 286 286 286 286
310 310 309 306 306 307 306 304 305 305 305 306 306 304 305 304 305 304 305 304 303 302 300 298 295 293 292 291 290 289 288 287 286 286 285 285 285 285 286 286 286 286 286 286
308 309 309 306 306 305 304 305 304 305 305 305 304 303 303 304 304 303 302 302 301 299 297 294 293 292 291 290 289 288 286 286 285 285 285 285 285 285 285 285 285 286 286 286
308 308 307 305 305 304 305 304 305 304 304 303 303 303 302 302 303 301 301 300 299 297 294 293 291 290 289 288 287 286 285 285 285 285 285 285 285 285 285 285 285 285 285 285
305 304 304 305 304 304 303 303 303 303 302 302 302 302 301 301 301 300 300 298 297 295 293 291 290 288 287 287 286 285 284 285 285 285 285 285 285 285 284 284 284 284 284 284
305 305 304 305 304 304 303 302 302 302 302 301 301 301 300 300 300 300 299 297 295 293 292 291 289 287 286 286 285 284 284 284 284 285 285 284 284 284 284 285 285 285 285 285
307 305 304 304 304 304 303 303 302 302 302 301 300 299 299 299 300 300 296 294 293 292 291 289 288 287 286 285 284 284 284 284 284 284 284 284 284 284 284 285 285 285 285 285
306 304 303 303 302 302 301 301 302 301 300 298 298 298 299 299 300 299 295 293 291 290 289 288 287 286 285 284 284 284 283 283 283 284 283 283 283 284 284 284 284 284 284 284
304 303 304 303 302 301 301 301 301 299 298 297 297 298 299 298 298 295 293 292 291 290 288 287 286 285 285 284 284 283 283 283 284 283 283 283 283 283 284 283 283 282 283 283
303 301 302 301 300 300 299 298 297 296 295 294 296 296 297 293 292 292 292 290 289 288 287 286 285 284 284 284 283 283 282 283 283 282 282 283 283 283 283 282 282 282 282 282
301 300 300 301 300 299 298 297 295 293 294 295 293 294 294 294 293 291 289 288 286 285 286 285 284 284 284 283 283 282 282 283 283 283 282 283 283 282 282 282 282 282 282 281
296 297 298 297 297 297 296 295 294 294 294 293 292 293 292 291 290 288 287 287 286 285 285 284 284 283 283 283 282 282 282 282 282 283 283 282 282 282 282 282 282 282 281 281
298 299 297 297 295 295 294 294 293 293 293 294 293 291 289 288 287 287 286 286 285 284 284 284 283 283 283 282 282 282 282 282 282 282 282 282 282 281 282 281 281 281 280 279
298 297 296 296 294 293 292 290 293 294 294 294 291 289 289 288 288 287 286 285 283 283 283 283 283 283 282 282 282 282 281 281 282 282 282 281 280 280 281 280 280 280 279 279
298 297 296 294 294 293 292 293 293 293 292 291 290 288 287 287 287 286 285 284 284 284 284 284 283 282 282 282 282 282 281 281 282 281 281 280 280 280 280 280 279 279 279 279
290 289 291 292 291 293 293 293 292 291 291 290 289 288 287 287 287 286 284 283 284 283 283 283 282 282 281 282 282 281 281 281 281 281 279 278 278 278 279 279 278 278 278 278
290 289 290 289 290 291 292 292 292 291 290 289 288 288 287 286 285 284 284 284 284 284 283 282 282 281 282 282 281 281 281 281 280 279 278 277 278 278 278 278 278 277 277 277
292 292 291 290 289 290 292 291 291 290 289 288 287 287 286 286 285 283 283 284 283 283 283 282 282 282 282 282 281 281 281 280 279 278 277 277 277 277 277 277 277 277 277 277
293 292 291 292 292 290 288 289 290 290 289 289 289 289 287 284 284 284 284 284 284 283 283 282 282 282 282 281 281 281 280 279 278 277 276 277 277 277 277 276 276 276 276 277
293 293 292 289 287 289 289 290 289 288 287 287 287 289 287 286 286 285 284 283 283 283 282 282 282 282 282 281 280 280 279 278 277 276 276 276 276 276 276 276 275 276 277 278
292 291 291 291 290 290 289 288 288 287 286 285 285 286 286 286 285 284 284 283 282 283 282 281 282 282 281 280 279 278 278 277 277 277 276 276 275 275 275 275 276 276 277 278
291 292 290 289 290 290 289 288 287 288 287 286 287 290 289 285 284 283 283 283 282 281 282 281 281 280 280 279 278 278 277 276 276 276 276 276 275 275 275 275 277 277 278 279

GFSNGP_925_thetae_117.txt.gz
Theta_e
309 310 310 311 311 310 310 310 311 309 308 308 306 305 305 306 308 307 306 305 305 304 303 303 302 299 296 295 294 293 293 292 291 290 289 288 288 288 288 288 287 287 287 287
304 309 308 309 308 309 309 309 310 309 309 308 307 303 303 304 305 307 307 306 306 304 303 300 299 299 298 296 294 293 292 291 290 289 288 288 288 287 287 287 287 286 287 287
307 307 306 307 307 306 307 307 308 309 308 306 306 306 305 306 306 306 306 306 305 304 303 303 300 300 297 296 294 293 292 291 290 289 288 288 287 287 286 286 286 286 286 286
306 305 307 304 306 305 307 307 306 306 306 305 305 304 303 303 305 305 306 305 304 303 303 303 302 299 298 296 294 292 291 290 289 289 288 287 286 286 286 286 286 286 286 286
305 305 306 308 306 305 305 304 304 306 306 304 305 305 302 306 305 305 305 304 305 306 304 303 301 298 297 295 293 292 291 290 289 288 287 286 286 285 285 285 286 286 286 286
305 308 311 305 305 305 305 302 302 302 303 303 305 304 301 303 305 305 305 304 304 303 303 301 298 297 296 294 293 291 290 289 288 287 286 285 285 285 285 285 285 285 286 286
310 310 307 305 305 305 305 304 305 303 303 304 305 303 301 304 304 304 304 303 303 302 300 299 297 296 294 293 291 291 289 288 286 286 285 285 285 285 285 285 285 285 285 286
307 308 307 304 305 305 304 303 303 304 303 303 302 302 302 301 301 301 301 301 300 299 297 296 295 294 293 291 291 289 288 286 286 285 285 285 285 285 285 284 284 285 285 285
306 307 304 303 304 303 302 302 303 303 302 302 302 302 301 300 300 300 300 300 300 297 294 293 293 293 291 290 289 288 286 285 285 285 285 285 285 285 284 284 284 284 284 284
304 305 305 305 303 302 302 302 302 301 301 300 301 300 300 299 299 299 299 298 299 295 292 291 292 291 290 289 287 286 285 284 284 284 285 285 284 284 284 284 284 284 284 284
304 305 304 304 303 302 302 300 301 299 299 300 299 299 299 298 298 298 299 298 297 295 293 292 291 290 288 287 286 285 284 284 284 284 284 284 284 284 284 284 285 285 285 285
307 305 304 304 302 303 302 302 301 299 300 300 299 299 298 297 297 298 298 297 295 294 293 292 290 288 287 286 285 284 284 284 284 284 284 284 283 283 283 284 284 285 285 284
305 304 302 301 300 301 300 300 299 299 299 299 298 297 297 297 298 299 298 295 293 293 292 291 289 288 287 286 285 284 284 283 283 284 283 283 283 283 283 283 283 283 283 283
300 300 302 301 303 299 299 299 301 299 298 297 296 296 296 296 297 297 294 295 294 292 290 289 288 287 286 285 284 284 283 283 283 284 283 282 282 282 283 283 282 282 282 282
300 299 301 299 299 299 298 297 298 296 295 294 295 294 295 294 294 295 295 294 292 291 289 288 287 287 285 284 284 284 283 283 283 283 282 282 283 283 282 282 282 282 281 281
299 298 298 298 297 297 297 297 296 295 294 292 292 293 295 295 294 294 292 291 289 287 288 287 286 286 284 284 284 283 283 282 283 284 283 282 282 282 282 282 282 281 281 281
296 298 296 295 296 297 296 295 294 294 293 292 293 294 293 292 291 290 289 289 289 289 288 287 286 285 284 284 283 283 282 282 283 283 283 282 282 282 282 281 281 281 281 280
294 295 296 296 295 295 295 293 292 292 292 294 294 293 291 289 289 288 288 288 287 286 286 285 285 284 284 283 283 283 282 282 282 282 282 282 282 282 281 280 280 281 280 279
294 294 294 295 294 294 292 290 291 293 294 294 292 289 290 290 289 289 288 286 285 284 285 284 284 284 283 283 283 282 282 282 282 281 282 282 282 280 280 280 280 280 279 279
293 295 296 295 296 294 292 293 293 293 293 292 292 290 288 288 289 288 287 285 286 286 286 285 284 283 283 283 283 283 282 282 281 281 281 281 281 279 279 279 279 279 278 278
290 290 292 292 292 293 293 293 293 292 293 292 290 289 289 289 289 288 285 285 286 287 285 284 284 283 283 283 282 283 282 281 281 281 281 280 279 278 278 278 278 278 277 277
292 290 291 292 291 291 292 293 292 292 292 291 290 290 289 288 288 287 287 287 287 287 285 284 283 283 283 282 282 282 282 281 281 280 280 279 278 277 277 277 277 277 277 277
292 293 292 291 291 291 292 292 292 292 291 290 289 288 288 288 288 285 286 288 287 285 284 284 284 283 283 282 282 282 281 281 281 280 280 278 277 277 277 277 277 277 276 276
292 293 292 294 293 289 288 291 291 291 291 291 291 290 289 287 286 288 291 289 288 286 284 284 284 283 283 283 282 282 281 281 281 280 278 277 277 277 276 276 276 276 276 276
294 293 292 290 287 289 291 291 289 290 290 289 290 290 290 289 288 289 288 287 285 285 284 284 283 283 284 283 283 282 281 281 280 279 277 277 276 276 276 275 276 275 276 277
293 293 294 293 292 293 291 290 288 289 288 287 287 288 288 288 288 286 287 287 285 284 284 283 283 283 283 283 282 281 280 280 279 278 277 277 277 276 275 275 275 276 276 277
292 292 292 290 292 291 290 289 288 289 289 288 288 289 287 287 287 286 287 287 284 284 283 283 283 283 283 283 282 281 280 279 278 277 277 276 276 276 275 275 276 277 277 277